<?xml version="1.0" encoding="UTF-8" standalone="no" ?>
<gpx xmlns="http://www.topografix.com/GPX/1/1" xmlns:xsi="http://www.w3.org/2001/XMLSchema-instance" xsi:schemaLocation="http://www.topografix.com/GPX/1/1 http://www.topografix.com/GPX/1/1/gpx.xsd" version="1.1" creator="VisuGPX - https://www.visugpx.com">
  <metadata>
    <name>Font Romeu - Roc de la Calma</name>
    <desc><![CDATA[File with points/tracks from Locus Map/4.12.1]]></desc>
  </metadata>
  <trk>
    <name><![CDATA[2022-11-05 10:50]]></name>
    <extensions>
      <line xmlns="http://www.topografix.com/GPX/gpx_style/0/2">
        <color>0000FF</color>
        <opacity>0.59</opacity>
        <width>6.0</width>
      </line>
    </extensions>
    <trkseg>
      <trkpt lat="42.51623" lon="2.04134">
        <ele>1853.64</ele>
        <time>2022-11-05T09:50:13.000Z</time>
      </trkpt>
      <trkpt lat="42.51622" lon="2.04132">
        <ele>1854.69</ele>
        <time>2022-11-05T09:50:23.000Z</time>
      </trkpt>
      <trkpt lat="42.51623" lon="2.04133">
        <ele>1859.33</ele>
        <time>2022-11-05T09:51:09.000Z</time>
      </trkpt>
      <trkpt lat="42.51625" lon="2.04134">
        <ele>1860.69</ele>
        <time>2022-11-05T09:51:19.000Z</time>
      </trkpt>
      <trkpt lat="42.51624" lon="2.04132">
        <ele>1862.43</ele>
        <time>2022-11-05T09:51:29.000Z</time>
      </trkpt>
      <trkpt lat="42.51623" lon="2.04132">
        <ele>1862.69</ele>
        <time>2022-11-05T09:51:39.000Z</time>
      </trkpt>
      <trkpt lat="42.51626" lon="2.04132">
        <ele>1865.69</ele>
        <time>2022-11-05T09:51:49.000Z</time>
      </trkpt>
      <trkpt lat="42.51631" lon="2.04134">
        <ele>1866.68</ele>
        <time>2022-11-05T09:51:59.000Z</time>
      </trkpt>
      <trkpt lat="42.51638" lon="2.04141">
        <ele>1866.7</ele>
        <time>2022-11-05T09:52:09.000Z</time>
      </trkpt>
      <trkpt lat="42.51638" lon="2.04143">
        <ele>1866.69</ele>
        <time>2022-11-05T09:52:19.000Z</time>
      </trkpt>
      <trkpt lat="42.51639" lon="2.04143">
        <ele>1866.69</ele>
        <time>2022-11-05T09:52:29.000Z</time>
      </trkpt>
      <trkpt lat="42.51638" lon="2.04142">
        <ele>1864.75</ele>
        <time>2022-11-05T09:52:55.000Z</time>
      </trkpt>
      <trkpt lat="42.51637" lon="2.04142">
        <ele>1865.67</ele>
        <time>2022-11-05T09:53:10.701Z</time>
      </trkpt>
      <trkpt lat="42.51637" lon="2.04148">
        <ele>1865.94</ele>
        <time>2022-11-05T09:53:20.000Z</time>
      </trkpt>
      <trkpt lat="42.51637" lon="2.04148">
        <ele>1867.69</ele>
        <time>2022-11-05T09:53:34.000Z</time>
      </trkpt>
      <trkpt lat="42.51636" lon="2.04149">
        <ele>1866.19</ele>
        <time>2022-11-05T09:54:30.000Z</time>
      </trkpt>
      <trkpt lat="42.51637" lon="2.04151">
        <ele>1864.69</ele>
        <time>2022-11-05T09:54:40.000Z</time>
      </trkpt>
      <trkpt lat="42.51636" lon="2.04152">
        <ele>1860.93</ele>
        <time>2022-11-05T09:56:52.000Z</time>
      </trkpt>
      <trkpt lat="42.51636" lon="2.04163">
        <ele>1863.62</ele>
        <time>2022-11-05T09:57:02.000Z</time>
      </trkpt>
      <trkpt lat="42.51644" lon="2.04173">
        <ele>1865.44</ele>
        <time>2022-11-05T09:57:11.371Z</time>
      </trkpt>
      <trkpt lat="42.51652" lon="2.04172">
        <ele>1866.69</ele>
        <time>2022-11-05T09:57:20.491Z</time>
      </trkpt>
      <trkpt lat="42.5166" lon="2.04174">
        <ele>1869.44</ele>
        <time>2022-11-05T09:57:29.870Z</time>
      </trkpt>
      <trkpt lat="42.51662" lon="2.04171">
        <ele>1872.63</ele>
        <time>2022-11-05T09:57:39.531Z</time>
      </trkpt>
      <trkpt lat="42.51669" lon="2.04166">
        <ele>1873.44</ele>
        <time>2022-11-05T09:57:49.000Z</time>
      </trkpt>
      <trkpt lat="42.51674" lon="2.04163">
        <ele>1876.69</ele>
        <time>2022-11-05T09:57:58.212Z</time>
      </trkpt>
      <trkpt lat="42.51682" lon="2.04161">
        <ele>1875.93</ele>
        <time>2022-11-05T09:58:07.432Z</time>
      </trkpt>
      <trkpt lat="42.51687" lon="2.0416">
        <ele>1876.44</ele>
        <time>2022-11-05T09:58:16.671Z</time>
      </trkpt>
      <trkpt lat="42.51693" lon="2.04156">
        <ele>1876.69</ele>
        <time>2022-11-05T09:58:26.000Z</time>
      </trkpt>
      <trkpt lat="42.51698" lon="2.04153">
        <ele>1877.69</ele>
        <time>2022-11-05T09:58:35.950Z</time>
      </trkpt>
      <trkpt lat="42.51702" lon="2.04154">
        <ele>1878.44</ele>
        <time>2022-11-05T09:58:45.000Z</time>
      </trkpt>
      <trkpt lat="42.51707" lon="2.04155">
        <ele>1878.94</ele>
        <time>2022-11-05T09:58:56.000Z</time>
      </trkpt>
      <trkpt lat="42.51711" lon="2.04159">
        <ele>1879.69</ele>
        <time>2022-11-05T09:59:05.512Z</time>
      </trkpt>
      <trkpt lat="42.51711" lon="2.04165">
        <ele>1880.94</ele>
        <time>2022-11-05T09:59:15.000Z</time>
      </trkpt>
      <trkpt lat="42.51712" lon="2.04168">
        <ele>1880.69</ele>
        <time>2022-11-05T09:59:25.000Z</time>
      </trkpt>
      <trkpt lat="42.51717" lon="2.0417">
        <ele>1880.69</ele>
        <time>2022-11-05T09:59:34.911Z</time>
      </trkpt>
      <trkpt lat="42.51721" lon="2.04168">
        <ele>1883.63</ele>
        <time>2022-11-05T09:59:44.000Z</time>
      </trkpt>
      <trkpt lat="42.51729" lon="2.04164">
        <ele>1882.69</ele>
        <time>2022-11-05T09:59:53.591Z</time>
      </trkpt>
      <trkpt lat="42.51738" lon="2.04161">
        <ele>1882.69</ele>
        <time>2022-11-05T10:00:03.252Z</time>
      </trkpt>
      <trkpt lat="42.51745" lon="2.04163">
        <ele>1883.69</ele>
        <time>2022-11-05T10:00:13.000Z</time>
      </trkpt>
      <trkpt lat="42.5175" lon="2.04163">
        <ele>1886.62</ele>
        <time>2022-11-05T10:00:22.412Z</time>
      </trkpt>
      <trkpt lat="42.51756" lon="2.04163">
        <ele>1889.69</ele>
        <time>2022-11-05T10:00:31.853Z</time>
      </trkpt>
      <trkpt lat="42.51763" lon="2.04164">
        <ele>1890.75</ele>
        <time>2022-11-05T10:00:41.970Z</time>
      </trkpt>
      <trkpt lat="42.5177" lon="2.04168">
        <ele>1888.94</ele>
        <time>2022-11-05T10:00:51.511Z</time>
      </trkpt>
      <trkpt lat="42.51775" lon="2.04173">
        <ele>1888.69</ele>
        <time>2022-11-05T10:01:00.670Z</time>
      </trkpt>
      <trkpt lat="42.51778" lon="2.04177">
        <ele>1890.44</ele>
        <time>2022-11-05T10:01:10.000Z</time>
      </trkpt>
      <trkpt lat="42.51782" lon="2.04183">
        <ele>1891.44</ele>
        <time>2022-11-05T10:01:19.491Z</time>
      </trkpt>
      <trkpt lat="42.51785" lon="2.04191">
        <ele>1894.69</ele>
        <time>2022-11-05T10:01:28.551Z</time>
      </trkpt>
      <trkpt lat="42.51789" lon="2.04198">
        <ele>1895.68</ele>
        <time>2022-11-05T10:01:37.877Z</time>
      </trkpt>
      <trkpt lat="42.51794" lon="2.042">
        <ele>1898.63</ele>
        <time>2022-11-05T10:01:48.000Z</time>
      </trkpt>
      <trkpt lat="42.518" lon="2.04205">
        <ele>1898.69</ele>
        <time>2022-11-05T10:01:58.000Z</time>
      </trkpt>
      <trkpt lat="42.51803" lon="2.04208">
        <ele>1899.5</ele>
        <time>2022-11-05T10:02:07.910Z</time>
      </trkpt>
      <trkpt lat="42.51812" lon="2.04214">
        <ele>1902.63</ele>
        <time>2022-11-05T10:02:18.000Z</time>
      </trkpt>
      <trkpt lat="42.51821" lon="2.04217">
        <ele>1904.69</ele>
        <time>2022-11-05T10:02:28.000Z</time>
      </trkpt>
      <trkpt lat="42.5183" lon="2.04223">
        <ele>1904.69</ele>
        <time>2022-11-05T10:02:38.000Z</time>
      </trkpt>
      <trkpt lat="42.51838" lon="2.04232">
        <ele>1902.63</ele>
        <time>2022-11-05T10:02:47.651Z</time>
      </trkpt>
      <trkpt lat="42.5184" lon="2.0424">
        <ele>1904.69</ele>
        <time>2022-11-05T10:02:57.000Z</time>
      </trkpt>
      <trkpt lat="42.51843" lon="2.04248">
        <ele>1905.44</ele>
        <time>2022-11-05T10:03:07.000Z</time>
      </trkpt>
      <trkpt lat="42.51841" lon="2.04258">
        <ele>1905.01</ele>
        <time>2022-11-05T10:03:17.000Z</time>
      </trkpt>
      <trkpt lat="42.51838" lon="2.04271">
        <ele>1904.45</ele>
        <time>2022-11-05T10:03:26.990Z</time>
      </trkpt>
      <trkpt lat="42.51833" lon="2.04281">
        <ele>1906.44</ele>
        <time>2022-11-05T10:03:36.000Z</time>
      </trkpt>
      <trkpt lat="42.51828" lon="2.04293">
        <ele>1907.46</ele>
        <time>2022-11-05T10:03:45.591Z</time>
      </trkpt>
      <trkpt lat="42.51826" lon="2.04301">
        <ele>1908.44</ele>
        <time>2022-11-05T10:03:56.000Z</time>
      </trkpt>
      <trkpt lat="42.51832" lon="2.04312">
        <ele>1910.7</ele>
        <time>2022-11-05T10:04:05.271Z</time>
      </trkpt>
      <trkpt lat="42.51839" lon="2.04322">
        <ele>1912.44</ele>
        <time>2022-11-05T10:04:14.491Z</time>
      </trkpt>
      <trkpt lat="42.51847" lon="2.04325">
        <ele>1913.63</ele>
        <time>2022-11-05T10:04:24.000Z</time>
      </trkpt>
      <trkpt lat="42.51857" lon="2.04326">
        <ele>1914.7</ele>
        <time>2022-11-05T10:04:34.000Z</time>
      </trkpt>
      <trkpt lat="42.51868" lon="2.04327">
        <ele>1913.71</ele>
        <time>2022-11-05T10:04:43.632Z</time>
      </trkpt>
      <trkpt lat="42.51877" lon="2.04326">
        <ele>1915.69</ele>
        <time>2022-11-05T10:04:54.000Z</time>
      </trkpt>
      <trkpt lat="42.51883" lon="2.04328">
        <ele>1920.69</ele>
        <time>2022-11-05T10:05:03.551Z</time>
      </trkpt>
      <trkpt lat="42.51885" lon="2.04329">
        <ele>1919.76</ele>
        <time>2022-11-05T10:05:14.000Z</time>
      </trkpt>
      <trkpt lat="42.51897" lon="2.04329">
        <ele>1919.7</ele>
        <time>2022-11-05T10:05:23.292Z</time>
      </trkpt>
      <trkpt lat="42.51906" lon="2.04327">
        <ele>1918.95</ele>
        <time>2022-11-05T10:05:33.000Z</time>
      </trkpt>
      <trkpt lat="42.51917" lon="2.04323">
        <ele>1914.76</ele>
        <time>2022-11-05T10:05:43.000Z</time>
      </trkpt>
      <trkpt lat="42.51927" lon="2.0432">
        <ele>1915.69</ele>
        <time>2022-11-05T10:05:52.871Z</time>
      </trkpt>
      <trkpt lat="42.51935" lon="2.04321">
        <ele>1916.69</ele>
        <time>2022-11-05T10:06:02.000Z</time>
      </trkpt>
      <trkpt lat="42.51946" lon="2.04322">
        <ele>1915.7</ele>
        <time>2022-11-05T10:06:11.371Z</time>
      </trkpt>
      <trkpt lat="42.51954" lon="2.04327">
        <ele>1918.44</ele>
        <time>2022-11-05T10:06:20.571Z</time>
      </trkpt>
      <trkpt lat="42.5196" lon="2.04324">
        <ele>1921.45</ele>
        <time>2022-11-05T10:06:31.000Z</time>
      </trkpt>
      <trkpt lat="42.51966" lon="2.04317">
        <ele>1925.71</ele>
        <time>2022-11-05T10:06:40.990Z</time>
      </trkpt>
      <trkpt lat="42.51975" lon="2.04308">
        <ele>1930.38</ele>
        <time>2022-11-05T10:06:50.251Z</time>
      </trkpt>
      <trkpt lat="42.51982" lon="2.04305">
        <ele>1932.7</ele>
        <time>2022-11-05T10:06:59.552Z</time>
      </trkpt>
      <trkpt lat="42.51991" lon="2.04298">
        <ele>1931.95</ele>
        <time>2022-11-05T10:07:10.000Z</time>
      </trkpt>
      <trkpt lat="42.51993" lon="2.04296">
        <ele>1930.7</ele>
        <time>2022-11-05T10:07:20.000Z</time>
      </trkpt>
      <trkpt lat="42.51997" lon="2.04293">
        <ele>1928.95</ele>
        <time>2022-11-05T10:07:29.270Z</time>
      </trkpt>
      <trkpt lat="42.52005" lon="2.04285">
        <ele>1923.65</ele>
        <time>2022-11-05T10:07:39.000Z</time>
      </trkpt>
      <trkpt lat="42.52017" lon="2.04275">
        <ele>1922.95</ele>
        <time>2022-11-05T10:07:48.591Z</time>
      </trkpt>
      <trkpt lat="42.52027" lon="2.04271">
        <ele>1921.7</ele>
        <time>2022-11-05T10:07:58.000Z</time>
      </trkpt>
      <trkpt lat="42.52033" lon="2.0427">
        <ele>1922.7</ele>
        <time>2022-11-05T10:08:07.435Z</time>
      </trkpt>
      <trkpt lat="42.5204" lon="2.04272">
        <ele>1922.7</ele>
        <time>2022-11-05T10:08:18.000Z</time>
      </trkpt>
      <trkpt lat="42.52045" lon="2.04268">
        <ele>1919.77</ele>
        <time>2022-11-05T10:08:28.000Z</time>
      </trkpt>
      <trkpt lat="42.52045" lon="2.04257">
        <ele>1920.7</ele>
        <time>2022-11-05T10:08:38.000Z</time>
      </trkpt>
      <trkpt lat="42.52046" lon="2.04241">
        <ele>1919.45</ele>
        <time>2022-11-05T10:08:47.271Z</time>
      </trkpt>
      <trkpt lat="42.52048" lon="2.04224">
        <ele>1917.7</ele>
        <time>2022-11-05T10:08:56.751Z</time>
      </trkpt>
      <trkpt lat="42.52049" lon="2.04208">
        <ele>1918.68</ele>
        <time>2022-11-05T10:09:05.771Z</time>
      </trkpt>
      <trkpt lat="42.52052" lon="2.04192">
        <ele>1917.7</ele>
        <time>2022-11-05T10:09:15.150Z</time>
      </trkpt>
      <trkpt lat="42.52055" lon="2.04177">
        <ele>1917.7</ele>
        <time>2022-11-05T10:09:25.000Z</time>
      </trkpt>
      <trkpt lat="42.52059" lon="2.04161">
        <ele>1917.7</ele>
        <time>2022-11-05T10:09:34.010Z</time>
      </trkpt>
      <trkpt lat="42.52063" lon="2.04145">
        <ele>1916.7</ele>
        <time>2022-11-05T10:09:43.514Z</time>
      </trkpt>
      <trkpt lat="42.52065" lon="2.04131">
        <ele>1916.95</ele>
        <time>2022-11-05T10:09:53.000Z</time>
      </trkpt>
      <trkpt lat="42.52069" lon="2.04115">
        <ele>1921.62</ele>
        <time>2022-11-05T10:10:02.571Z</time>
      </trkpt>
      <trkpt lat="42.52073" lon="2.04104">
        <ele>1922.44</ele>
        <time>2022-11-05T10:10:13.000Z</time>
      </trkpt>
      <trkpt lat="42.52079" lon="2.04096">
        <ele>1921.64</ele>
        <time>2022-11-05T10:10:22.910Z</time>
      </trkpt>
      <trkpt lat="42.52085" lon="2.04083">
        <ele>1922.7</ele>
        <time>2022-11-05T10:10:33.000Z</time>
      </trkpt>
      <trkpt lat="42.5209" lon="2.04069">
        <ele>1923.7</ele>
        <time>2022-11-05T10:10:43.000Z</time>
      </trkpt>
      <trkpt lat="42.52095" lon="2.04055">
        <ele>1924.46</ele>
        <time>2022-11-05T10:10:52.431Z</time>
      </trkpt>
      <trkpt lat="42.52101" lon="2.04041">
        <ele>1922.71</ele>
        <time>2022-11-05T10:11:03.000Z</time>
      </trkpt>
      <trkpt lat="42.52107" lon="2.04026">
        <ele>1924.69</ele>
        <time>2022-11-05T10:11:13.000Z</time>
      </trkpt>
      <trkpt lat="42.52113" lon="2.04013">
        <ele>1926.44</ele>
        <time>2022-11-05T10:11:22.431Z</time>
      </trkpt>
      <trkpt lat="42.52117" lon="2.04001">
        <ele>1926.69</ele>
        <time>2022-11-05T10:11:31.671Z</time>
      </trkpt>
      <trkpt lat="42.5212" lon="2.0399">
        <ele>1927.69</ele>
        <time>2022-11-05T10:11:41.000Z</time>
      </trkpt>
      <trkpt lat="42.52126" lon="2.03981">
        <ele>1925.46</ele>
        <time>2022-11-05T10:11:50.373Z</time>
      </trkpt>
      <trkpt lat="42.5213" lon="2.03966">
        <ele>1926.69</ele>
        <time>2022-11-05T10:11:59.431Z</time>
      </trkpt>
      <trkpt lat="42.5213" lon="2.03954">
        <ele>1928.68</ele>
        <time>2022-11-05T10:12:09.000Z</time>
      </trkpt>
      <trkpt lat="42.5213" lon="2.03937">
        <ele>1930.44</ele>
        <time>2022-11-05T10:12:18.491Z</time>
      </trkpt>
      <trkpt lat="42.52131" lon="2.03923">
        <ele>1931.69</ele>
        <time>2022-11-05T10:12:27.892Z</time>
      </trkpt>
      <trkpt lat="42.52131" lon="2.0391">
        <ele>1931.5</ele>
        <time>2022-11-05T10:12:37.000Z</time>
      </trkpt>
      <trkpt lat="42.52131" lon="2.03894">
        <ele>1932.68</ele>
        <time>2022-11-05T10:12:47.000Z</time>
      </trkpt>
      <trkpt lat="42.52131" lon="2.03876">
        <ele>1932.69</ele>
        <time>2022-11-05T10:12:56.291Z</time>
      </trkpt>
      <trkpt lat="42.52132" lon="2.0386">
        <ele>1932.7</ele>
        <time>2022-11-05T10:13:05.958Z</time>
      </trkpt>
      <trkpt lat="42.52131" lon="2.03846">
        <ele>1933.69</ele>
        <time>2022-11-05T10:13:16.000Z</time>
      </trkpt>
      <trkpt lat="42.52133" lon="2.03829">
        <ele>1933.69</ele>
        <time>2022-11-05T10:13:25.691Z</time>
      </trkpt>
      <trkpt lat="42.52132" lon="2.03814">
        <ele>1933.69</ele>
        <time>2022-11-05T10:13:34.811Z</time>
      </trkpt>
      <trkpt lat="42.52132" lon="2.03799">
        <ele>1934.69</ele>
        <time>2022-11-05T10:13:44.491Z</time>
      </trkpt>
      <trkpt lat="42.52132" lon="2.03784">
        <ele>1935.44</ele>
        <time>2022-11-05T10:13:53.651Z</time>
      </trkpt>
      <trkpt lat="42.52132" lon="2.0377">
        <ele>1935.69</ele>
        <time>2022-11-05T10:14:02.911Z</time>
      </trkpt>
      <trkpt lat="42.52132" lon="2.03757">
        <ele>1937.44</ele>
        <time>2022-11-05T10:14:12.571Z</time>
      </trkpt>
      <trkpt lat="42.52133" lon="2.03744">
        <ele>1936.94</ele>
        <time>2022-11-05T10:14:22.000Z</time>
      </trkpt>
      <trkpt lat="42.52132" lon="2.0374">
        <ele>1933.92</ele>
        <time>2022-11-05T10:14:32.000Z</time>
      </trkpt>
      <trkpt lat="42.52125" lon="2.03744">
        <ele>1932.69</ele>
        <time>2022-11-05T10:14:42.000Z</time>
      </trkpt>
      <trkpt lat="42.52119" lon="2.03737">
        <ele>1931.69</ele>
        <time>2022-11-05T10:14:51.441Z</time>
      </trkpt>
      <trkpt lat="42.52114" lon="2.03728">
        <ele>1930.94</ele>
        <time>2022-11-05T10:15:01.000Z</time>
      </trkpt>
      <trkpt lat="42.52109" lon="2.03713">
        <ele>1931.68</ele>
        <time>2022-11-05T10:15:10.631Z</time>
      </trkpt>
      <trkpt lat="42.52105" lon="2.03699">
        <ele>1931.69</ele>
        <time>2022-11-05T10:15:21.000Z</time>
      </trkpt>
      <trkpt lat="42.52102" lon="2.03684">
        <ele>1932.69</ele>
        <time>2022-11-05T10:15:31.000Z</time>
      </trkpt>
      <trkpt lat="42.52099" lon="2.03668">
        <ele>1933.44</ele>
        <time>2022-11-05T10:15:40.531Z</time>
      </trkpt>
      <trkpt lat="42.52095" lon="2.03657">
        <ele>1932.69</ele>
        <time>2022-11-05T10:15:49.731Z</time>
      </trkpt>
      <trkpt lat="42.52089" lon="2.03646">
        <ele>1932.69</ele>
        <time>2022-11-05T10:15:58.931Z</time>
      </trkpt>
      <trkpt lat="42.52088" lon="2.0364">
        <ele>1932.69</ele>
        <time>2022-11-05T10:16:08.000Z</time>
      </trkpt>
      <trkpt lat="42.52097" lon="2.03635">
        <ele>1934.68</ele>
        <time>2022-11-05T10:16:17.752Z</time>
      </trkpt>
      <trkpt lat="42.52104" lon="2.03629">
        <ele>1935.68</ele>
        <time>2022-11-05T10:16:26.831Z</time>
      </trkpt>
      <trkpt lat="42.52103" lon="2.03625">
        <ele>1934.94</ele>
        <time>2022-11-05T10:16:37.000Z</time>
      </trkpt>
      <trkpt lat="42.52103" lon="2.03623">
        <ele>1934.67</ele>
        <time>2022-11-05T10:16:47.000Z</time>
      </trkpt>
      <trkpt lat="42.52104" lon="2.03622">
        <ele>1935.67</ele>
        <time>2022-11-05T10:17:02.000Z</time>
      </trkpt>
      <trkpt lat="42.52105" lon="2.0362">
        <ele>1935.69</ele>
        <time>2022-11-05T10:17:12.000Z</time>
      </trkpt>
      <trkpt lat="42.52105" lon="2.03618">
        <ele>1935.69</ele>
        <time>2022-11-05T10:17:50.000Z</time>
      </trkpt>
      <trkpt lat="42.52106" lon="2.03618">
        <ele>1937.37</ele>
        <time>2022-11-05T10:18:40.000Z</time>
      </trkpt>
      <trkpt lat="42.52107" lon="2.03617">
        <ele>1937.69</ele>
        <time>2022-11-05T10:18:50.000Z</time>
      </trkpt>
      <trkpt lat="42.52108" lon="2.03617">
        <ele>1935.69</ele>
        <time>2022-11-05T10:19:11.000Z</time>
      </trkpt>
      <trkpt lat="42.52108" lon="2.03615">
        <ele>1935.69</ele>
        <time>2022-11-05T10:19:29.000Z</time>
      </trkpt>
      <trkpt lat="42.52109" lon="2.03612">
        <ele>1934.67</ele>
        <time>2022-11-05T10:19:39.000Z</time>
      </trkpt>
      <trkpt lat="42.52109" lon="2.03607">
        <ele>1935.44</ele>
        <time>2022-11-05T10:19:49.000Z</time>
      </trkpt>
      <trkpt lat="42.5211" lon="2.03604">
        <ele>1935.5</ele>
        <time>2022-11-05T10:19:59.000Z</time>
      </trkpt>
      <trkpt lat="42.52115" lon="2.03594">
        <ele>1933.94</ele>
        <time>2022-11-05T10:20:08.492Z</time>
      </trkpt>
      <trkpt lat="42.52117" lon="2.03607">
        <ele>1933.87</ele>
        <time>2022-11-05T10:20:18.151Z</time>
      </trkpt>
      <trkpt lat="42.52121" lon="2.03619">
        <ele>1934.69</ele>
        <time>2022-11-05T10:20:27.551Z</time>
      </trkpt>
      <trkpt lat="42.52121" lon="2.03632">
        <ele>1934.69</ele>
        <time>2022-11-05T10:20:36.791Z</time>
      </trkpt>
      <trkpt lat="42.5212" lon="2.03644">
        <ele>1934.5</ele>
        <time>2022-11-05T10:20:47.000Z</time>
      </trkpt>
      <trkpt lat="42.52119" lon="2.03647">
        <ele>1931.69</ele>
        <time>2022-11-05T10:20:57.000Z</time>
      </trkpt>
      <trkpt lat="42.52119" lon="2.03645">
        <ele>1932.44</ele>
        <time>2022-11-05T10:21:17.000Z</time>
      </trkpt>
      <trkpt lat="42.5212" lon="2.03635">
        <ele>1932.87</ele>
        <time>2022-11-05T10:21:27.000Z</time>
      </trkpt>
      <trkpt lat="42.52117" lon="2.03623">
        <ele>1934.44</ele>
        <time>2022-11-05T10:21:37.000Z</time>
      </trkpt>
      <trkpt lat="42.52118" lon="2.0362">
        <ele>1933.69</ele>
        <time>2022-11-05T10:21:47.000Z</time>
      </trkpt>
      <trkpt lat="42.5212" lon="2.03619">
        <ele>1932.69</ele>
        <time>2022-11-05T10:21:57.000Z</time>
      </trkpt>
      <trkpt lat="42.52118" lon="2.03619">
        <ele>1935.19</ele>
        <time>2022-11-05T10:22:17.000Z</time>
      </trkpt>
      <trkpt lat="42.52118" lon="2.03618">
        <ele>1933.94</ele>
        <time>2022-11-05T10:22:32.000Z</time>
      </trkpt>
      <trkpt lat="42.52119" lon="2.03614">
        <ele>1934.63</ele>
        <time>2022-11-05T10:22:41.411Z</time>
      </trkpt>
      <trkpt lat="42.52118" lon="2.03609">
        <ele>1935.68</ele>
        <time>2022-11-05T10:22:51.000Z</time>
      </trkpt>
      <trkpt lat="42.52119" lon="2.03607">
        <ele>1935.69</ele>
        <time>2022-11-05T10:23:01.000Z</time>
      </trkpt>
      <trkpt lat="42.52119" lon="2.03608">
        <ele>1935.69</ele>
        <time>2022-11-05T10:23:14.000Z</time>
      </trkpt>
      <trkpt lat="42.52119" lon="2.03609">
        <ele>1935.69</ele>
        <time>2022-11-05T10:25:32.000Z</time>
      </trkpt>
      <trkpt lat="42.52118" lon="2.03609">
        <ele>1936.44</ele>
        <time>2022-11-05T10:26:20.311Z</time>
      </trkpt>
      <trkpt lat="42.52115" lon="2.03595">
        <ele>1933.94</ele>
        <time>2022-11-05T10:26:29.511Z</time>
      </trkpt>
      <trkpt lat="42.52113" lon="2.03588">
        <ele>1932.69</ele>
        <time>2022-11-05T10:26:40.000Z</time>
      </trkpt>
      <trkpt lat="42.52114" lon="2.03577">
        <ele>1934.67</ele>
        <time>2022-11-05T10:26:49.551Z</time>
      </trkpt>
      <trkpt lat="42.52115" lon="2.0357">
        <ele>1936.42</ele>
        <time>2022-11-05T10:26:59.000Z</time>
      </trkpt>
      <trkpt lat="42.52115" lon="2.03566">
        <ele>1935.69</ele>
        <time>2022-11-05T10:27:09.000Z</time>
      </trkpt>
      <trkpt lat="42.52114" lon="2.03565">
        <ele>1934.75</ele>
        <time>2022-11-05T10:27:26.051Z</time>
      </trkpt>
      <trkpt lat="42.52115" lon="2.03562">
        <ele>1935.69</ele>
        <time>2022-11-05T10:27:36.000Z</time>
      </trkpt>
      <trkpt lat="42.52116" lon="2.03561">
        <ele>1934.69</ele>
        <time>2022-11-05T10:28:05.771Z</time>
      </trkpt>
      <trkpt lat="42.52116" lon="2.03559">
        <ele>1932.69</ele>
        <time>2022-11-05T10:28:15.000Z</time>
      </trkpt>
      <trkpt lat="42.52116" lon="2.0356">
        <ele>1932.69</ele>
        <time>2022-11-05T10:28:26.000Z</time>
      </trkpt>
      <trkpt lat="42.52116" lon="2.03559">
        <ele>1931.69</ele>
        <time>2022-11-05T10:28:35.791Z</time>
      </trkpt>
      <trkpt lat="42.52116" lon="2.03548">
        <ele>1933.68</ele>
        <time>2022-11-05T10:28:45.211Z</time>
      </trkpt>
      <trkpt lat="42.52118" lon="2.03539">
        <ele>1933.68</ele>
        <time>2022-11-05T10:28:54.532Z</time>
      </trkpt>
      <trkpt lat="42.52118" lon="2.03529">
        <ele>1934.68</ele>
        <time>2022-11-05T10:29:03.571Z</time>
      </trkpt>
      <trkpt lat="42.52118" lon="2.03524">
        <ele>1934.68</ele>
        <time>2022-11-05T10:29:13.000Z</time>
      </trkpt>
      <trkpt lat="42.52119" lon="2.03518">
        <ele>1933.7</ele>
        <time>2022-11-05T10:29:22.631Z</time>
      </trkpt>
      <trkpt lat="42.52117" lon="2.0351">
        <ele>1934.43</ele>
        <time>2022-11-05T10:29:32.000Z</time>
      </trkpt>
      <trkpt lat="42.52117" lon="2.035">
        <ele>1932.94</ele>
        <time>2022-11-05T10:29:41.451Z</time>
      </trkpt>
      <trkpt lat="42.52115" lon="2.0349">
        <ele>1932.68</ele>
        <time>2022-11-05T10:29:51.000Z</time>
      </trkpt>
      <trkpt lat="42.52114" lon="2.03479">
        <ele>1933.69</ele>
        <time>2022-11-05T10:30:01.000Z</time>
      </trkpt>
      <trkpt lat="42.52108" lon="2.03469">
        <ele>1934.68</ele>
        <time>2022-11-05T10:30:10.010Z</time>
      </trkpt>
      <trkpt lat="42.52103" lon="2.0346">
        <ele>1934.68</ele>
        <time>2022-11-05T10:30:20.000Z</time>
      </trkpt>
      <trkpt lat="42.52096" lon="2.0345">
        <ele>1935.68</ele>
        <time>2022-11-05T10:30:29.251Z</time>
      </trkpt>
      <trkpt lat="42.52092" lon="2.0344">
        <ele>1935.68</ele>
        <time>2022-11-05T10:30:39.000Z</time>
      </trkpt>
      <trkpt lat="42.52084" lon="2.03431">
        <ele>1936.67</ele>
        <time>2022-11-05T10:30:48.411Z</time>
      </trkpt>
      <trkpt lat="42.52076" lon="2.03425">
        <ele>1936.68</ele>
        <time>2022-11-05T10:30:58.000Z</time>
      </trkpt>
      <trkpt lat="42.52068" lon="2.03416">
        <ele>1936.87</ele>
        <time>2022-11-05T10:31:07.872Z</time>
      </trkpt>
      <trkpt lat="42.52062" lon="2.03408">
        <ele>1936.68</ele>
        <time>2022-11-05T10:31:17.971Z</time>
      </trkpt>
      <trkpt lat="42.52056" lon="2.03403">
        <ele>1937.43</ele>
        <time>2022-11-05T10:31:27.000Z</time>
      </trkpt>
      <trkpt lat="42.52048" lon="2.03394">
        <ele>1937.68</ele>
        <time>2022-11-05T10:31:37.000Z</time>
      </trkpt>
      <trkpt lat="42.52046" lon="2.03386">
        <ele>1938.62</ele>
        <time>2022-11-05T10:31:47.000Z</time>
      </trkpt>
      <trkpt lat="42.52046" lon="2.03383">
        <ele>1939.68</ele>
        <time>2022-11-05T10:31:57.000Z</time>
      </trkpt>
      <trkpt lat="42.52043" lon="2.03379">
        <ele>1939.66</ele>
        <time>2022-11-05T10:32:07.000Z</time>
      </trkpt>
      <trkpt lat="42.52042" lon="2.03377">
        <ele>1939.7</ele>
        <time>2022-11-05T10:32:19.551Z</time>
      </trkpt>
      <trkpt lat="42.52039" lon="2.03362">
        <ele>1939.43</ele>
        <time>2022-11-05T10:32:30.000Z</time>
      </trkpt>
      <trkpt lat="42.52039" lon="2.03351">
        <ele>1939.62</ele>
        <time>2022-11-05T10:32:40.000Z</time>
      </trkpt>
      <trkpt lat="42.52039" lon="2.03343">
        <ele>1938.93</ele>
        <time>2022-11-05T10:32:50.000Z</time>
      </trkpt>
      <trkpt lat="42.52034" lon="2.03337">
        <ele>1938.66</ele>
        <time>2022-11-05T10:33:00.000Z</time>
      </trkpt>
      <trkpt lat="42.52028" lon="2.03328">
        <ele>1936.69</ele>
        <time>2022-11-05T10:33:10.000Z</time>
      </trkpt>
      <trkpt lat="42.52023" lon="2.0331">
        <ele>1935.68</ele>
        <time>2022-11-05T10:33:19.978Z</time>
      </trkpt>
      <trkpt lat="42.52023" lon="2.03306">
        <ele>1936.68</ele>
        <time>2022-11-05T10:33:29.000Z</time>
      </trkpt>
      <trkpt lat="42.52018" lon="2.03291">
        <ele>1937.43</ele>
        <time>2022-11-05T10:33:38.590Z</time>
      </trkpt>
      <trkpt lat="42.52018" lon="2.03278">
        <ele>1937.68</ele>
        <time>2022-11-05T10:33:47.851Z</time>
      </trkpt>
      <trkpt lat="42.52015" lon="2.03275">
        <ele>1937.74</ele>
        <time>2022-11-05T10:33:57.000Z</time>
      </trkpt>
      <trkpt lat="42.52014" lon="2.03272">
        <ele>1938.68</ele>
        <time>2022-11-05T10:34:06.872Z</time>
      </trkpt>
      <trkpt lat="42.52015" lon="2.03259">
        <ele>1938.68</ele>
        <time>2022-11-05T10:34:17.000Z</time>
      </trkpt>
      <trkpt lat="42.52015" lon="2.03253">
        <ele>1939.68</ele>
        <time>2022-11-05T10:34:27.000Z</time>
      </trkpt>
      <trkpt lat="42.52014" lon="2.03242">
        <ele>1939.49</ele>
        <time>2022-11-05T10:34:37.000Z</time>
      </trkpt>
      <trkpt lat="42.52011" lon="2.0323">
        <ele>1939.68</ele>
        <time>2022-11-05T10:34:47.000Z</time>
      </trkpt>
      <trkpt lat="42.52008" lon="2.03226">
        <ele>1939.68</ele>
        <time>2022-11-05T10:34:57.000Z</time>
      </trkpt>
      <trkpt lat="42.52005" lon="2.03215">
        <ele>1939.67</ele>
        <time>2022-11-05T10:35:06.550Z</time>
      </trkpt>
      <trkpt lat="42.5201" lon="2.03207">
        <ele>1941.43</ele>
        <time>2022-11-05T10:35:15.980Z</time>
      </trkpt>
      <trkpt lat="42.52017" lon="2.032">
        <ele>1943.68</ele>
        <time>2022-11-05T10:35:26.000Z</time>
      </trkpt>
      <trkpt lat="42.52024" lon="2.0319">
        <ele>1945.67</ele>
        <time>2022-11-05T10:35:35.611Z</time>
      </trkpt>
      <trkpt lat="42.52027" lon="2.03181">
        <ele>1946.68</ele>
        <time>2022-11-05T10:35:45.000Z</time>
      </trkpt>
      <trkpt lat="42.52032" lon="2.03172">
        <ele>1947.67</ele>
        <time>2022-11-05T10:35:55.000Z</time>
      </trkpt>
      <trkpt lat="42.52041" lon="2.03177">
        <ele>1949.68</ele>
        <time>2022-11-05T10:36:05.000Z</time>
      </trkpt>
      <trkpt lat="42.5205" lon="2.03183">
        <ele>1950.66</ele>
        <time>2022-11-05T10:36:14.551Z</time>
      </trkpt>
      <trkpt lat="42.52059" lon="2.03189">
        <ele>1951.68</ele>
        <time>2022-11-05T10:36:23.631Z</time>
      </trkpt>
      <trkpt lat="42.52067" lon="2.03195">
        <ele>1953.68</ele>
        <time>2022-11-05T10:36:32.911Z</time>
      </trkpt>
      <trkpt lat="42.52075" lon="2.03198">
        <ele>1956.36</ele>
        <time>2022-11-05T10:36:43.000Z</time>
      </trkpt>
      <trkpt lat="42.52081" lon="2.032">
        <ele>1958.67</ele>
        <time>2022-11-05T10:36:52.611Z</time>
      </trkpt>
      <trkpt lat="42.52083" lon="2.03199">
        <ele>1961.67</ele>
        <time>2022-11-05T10:37:03.000Z</time>
      </trkpt>
      <trkpt lat="42.5209" lon="2.03191">
        <ele>1964.43</ele>
        <time>2022-11-05T10:37:12.552Z</time>
      </trkpt>
      <trkpt lat="42.52094" lon="2.03184">
        <ele>1962.68</ele>
        <time>2022-11-05T10:37:21.591Z</time>
      </trkpt>
      <trkpt lat="42.52097" lon="2.0318">
        <ele>1960.68</ele>
        <time>2022-11-05T10:37:32.000Z</time>
      </trkpt>
      <trkpt lat="42.52101" lon="2.03168">
        <ele>1958.68</ele>
        <time>2022-11-05T10:37:41.411Z</time>
      </trkpt>
      <trkpt lat="42.52106" lon="2.03158">
        <ele>1959.18</ele>
        <time>2022-11-05T10:37:51.000Z</time>
      </trkpt>
      <trkpt lat="42.52111" lon="2.03152">
        <ele>1963.43</ele>
        <time>2022-11-05T10:38:02.000Z</time>
      </trkpt>
      <trkpt lat="42.52119" lon="2.03151">
        <ele>1967.66</ele>
        <time>2022-11-05T10:38:11.530Z</time>
      </trkpt>
      <trkpt lat="42.52122" lon="2.03147">
        <ele>1962.68</ele>
        <time>2022-11-05T10:38:21.000Z</time>
      </trkpt>
      <trkpt lat="42.52122" lon="2.03146">
        <ele>1962.68</ele>
        <time>2022-11-05T10:38:37.000Z</time>
      </trkpt>
      <trkpt lat="42.52123" lon="2.03147">
        <ele>1962.68</ele>
        <time>2022-11-05T10:46:28.000Z</time>
      </trkpt>
      <trkpt lat="42.52122" lon="2.03147">
        <ele>1961.68</ele>
        <time>2022-11-05T10:47:14.000Z</time>
      </trkpt>
      <trkpt lat="42.52123" lon="2.03145">
        <ele>1961.62</ele>
        <time>2022-11-05T10:47:24.000Z</time>
      </trkpt>
      <trkpt lat="42.52128" lon="2.03139">
        <ele>1963.67</ele>
        <time>2022-11-05T10:47:34.000Z</time>
      </trkpt>
      <trkpt lat="42.52134" lon="2.03132">
        <ele>1965.61</ele>
        <time>2022-11-05T10:47:44.000Z</time>
      </trkpt>
      <trkpt lat="42.52139" lon="2.03123">
        <ele>1966.67</ele>
        <time>2022-11-05T10:47:54.000Z</time>
      </trkpt>
      <trkpt lat="42.52143" lon="2.03112">
        <ele>1967.66</ele>
        <time>2022-11-05T10:48:04.000Z</time>
      </trkpt>
      <trkpt lat="42.52147" lon="2.03102">
        <ele>1968.43</ele>
        <time>2022-11-05T10:48:14.000Z</time>
      </trkpt>
      <trkpt lat="42.5215" lon="2.03088">
        <ele>1969.63</ele>
        <time>2022-11-05T10:48:24.000Z</time>
      </trkpt>
      <trkpt lat="42.5215" lon="2.03077">
        <ele>1968.68</ele>
        <time>2022-11-05T10:48:34.000Z</time>
      </trkpt>
      <trkpt lat="42.52147" lon="2.03066">
        <ele>1967.68</ele>
        <time>2022-11-05T10:48:44.000Z</time>
      </trkpt>
      <trkpt lat="42.52142" lon="2.03054">
        <ele>1966.68</ele>
        <time>2022-11-05T10:48:54.000Z</time>
      </trkpt>
      <trkpt lat="42.52143" lon="2.0304">
        <ele>1967.67</ele>
        <time>2022-11-05T10:49:04.000Z</time>
      </trkpt>
      <trkpt lat="42.52141" lon="2.03027">
        <ele>1968.67</ele>
        <time>2022-11-05T10:49:14.000Z</time>
      </trkpt>
      <trkpt lat="42.52141" lon="2.03017">
        <ele>1969.67</ele>
        <time>2022-11-05T10:49:23.990Z</time>
      </trkpt>
      <trkpt lat="42.52138" lon="2.03003">
        <ele>1969.67</ele>
        <time>2022-11-05T10:49:34.000Z</time>
      </trkpt>
      <trkpt lat="42.52136" lon="2.02987">
        <ele>1968.67</ele>
        <time>2022-11-05T10:49:43.644Z</time>
      </trkpt>
      <trkpt lat="42.52136" lon="2.02974">
        <ele>1969.61</ele>
        <time>2022-11-05T10:49:54.000Z</time>
      </trkpt>
      <trkpt lat="42.52136" lon="2.02962">
        <ele>1969.67</ele>
        <time>2022-11-05T10:50:03.101Z</time>
      </trkpt>
      <trkpt lat="42.52137" lon="2.02949">
        <ele>1969.67</ele>
        <time>2022-11-05T10:50:12.361Z</time>
      </trkpt>
      <trkpt lat="42.52141" lon="2.02939">
        <ele>1970.67</ele>
        <time>2022-11-05T10:50:21.381Z</time>
      </trkpt>
      <trkpt lat="42.52143" lon="2.02932">
        <ele>1973.42</ele>
        <time>2022-11-05T10:50:31.000Z</time>
      </trkpt>
      <trkpt lat="42.52146" lon="2.02922">
        <ele>1974.61</ele>
        <time>2022-11-05T10:50:40.561Z</time>
      </trkpt>
      <trkpt lat="42.52149" lon="2.02914">
        <ele>1975.67</ele>
        <time>2022-11-05T10:50:49.771Z</time>
      </trkpt>
      <trkpt lat="42.5215" lon="2.02905">
        <ele>1977.61</ele>
        <time>2022-11-05T10:51:00.000Z</time>
      </trkpt>
      <trkpt lat="42.52154" lon="2.02897">
        <ele>1978.61</ele>
        <time>2022-11-05T10:51:10.000Z</time>
      </trkpt>
      <trkpt lat="42.52155" lon="2.02892">
        <ele>1978.67</ele>
        <time>2022-11-05T10:51:20.000Z</time>
      </trkpt>
      <trkpt lat="42.52155" lon="2.02879">
        <ele>1980.67</ele>
        <time>2022-11-05T10:51:30.000Z</time>
      </trkpt>
      <trkpt lat="42.52153" lon="2.02868">
        <ele>1981.42</ele>
        <time>2022-11-05T10:51:40.000Z</time>
      </trkpt>
      <trkpt lat="42.52154" lon="2.02856">
        <ele>1981.67</ele>
        <time>2022-11-05T10:51:49.573Z</time>
      </trkpt>
      <trkpt lat="42.52153" lon="2.02856">
        <ele>1982.67</ele>
        <time>2022-11-05T10:52:02.521Z</time>
      </trkpt>
      <trkpt lat="42.52152" lon="2.02851">
        <ele>1984.61</ele>
        <time>2022-11-05T10:52:13.000Z</time>
      </trkpt>
      <trkpt lat="42.52153" lon="2.0285">
        <ele>1985.67</ele>
        <time>2022-11-05T10:52:23.000Z</time>
      </trkpt>
      <trkpt lat="42.52154" lon="2.0285">
        <ele>1985.67</ele>
        <time>2022-11-05T10:52:33.000Z</time>
      </trkpt>
      <trkpt lat="42.52155" lon="2.02848">
        <ele>1986.67</ele>
        <time>2022-11-05T10:53:46.281Z</time>
      </trkpt>
      <trkpt lat="42.5216" lon="2.02847">
        <ele>1987.61</ele>
        <time>2022-11-05T10:53:56.000Z</time>
      </trkpt>
      <trkpt lat="42.52167" lon="2.02848">
        <ele>1989.66</ele>
        <time>2022-11-05T10:54:06.000Z</time>
      </trkpt>
      <trkpt lat="42.52173" lon="2.0285">
        <ele>1989.73</ele>
        <time>2022-11-05T10:54:15.370Z</time>
      </trkpt>
      <trkpt lat="42.52178" lon="2.02846">
        <ele>1990.67</ele>
        <time>2022-11-05T10:54:25.000Z</time>
      </trkpt>
      <trkpt lat="42.52185" lon="2.02841">
        <ele>1993.42</ele>
        <time>2022-11-05T10:54:34.832Z</time>
      </trkpt>
      <trkpt lat="42.52191" lon="2.02839">
        <ele>1993.67</ele>
        <time>2022-11-05T10:54:44.000Z</time>
      </trkpt>
      <trkpt lat="42.52194" lon="2.02836">
        <ele>1994.67</ele>
        <time>2022-11-05T10:54:53.661Z</time>
      </trkpt>
      <trkpt lat="42.52197" lon="2.02835">
        <ele>1996.61</ele>
        <time>2022-11-05T10:55:04.000Z</time>
      </trkpt>
      <trkpt lat="42.52204" lon="2.02827">
        <ele>1997.67</ele>
        <time>2022-11-05T10:55:13.521Z</time>
      </trkpt>
      <trkpt lat="42.52207" lon="2.02819">
        <ele>1997.67</ele>
        <time>2022-11-05T10:55:23.000Z</time>
      </trkpt>
      <trkpt lat="42.52207" lon="2.02808">
        <ele>1997.68</ele>
        <time>2022-11-05T10:55:33.000Z</time>
      </trkpt>
      <trkpt lat="42.52211" lon="2.02798">
        <ele>1999.66</ele>
        <time>2022-11-05T10:55:43.000Z</time>
      </trkpt>
      <trkpt lat="42.52214" lon="2.02794">
        <ele>2000.42</ele>
        <time>2022-11-05T10:55:53.000Z</time>
      </trkpt>
      <trkpt lat="42.5222" lon="2.02794">
        <ele>2003.42</ele>
        <time>2022-11-05T10:56:02.601Z</time>
      </trkpt>
      <trkpt lat="42.52222" lon="2.028">
        <ele>2005.42</ele>
        <time>2022-11-05T10:56:12.000Z</time>
      </trkpt>
      <trkpt lat="42.5223" lon="2.02803">
        <ele>2006.61</ele>
        <time>2022-11-05T10:56:22.000Z</time>
      </trkpt>
      <trkpt lat="42.52238" lon="2.02807">
        <ele>2007.43</ele>
        <time>2022-11-05T10:56:32.000Z</time>
      </trkpt>
      <trkpt lat="42.52247" lon="2.02814">
        <ele>2008.42</ele>
        <time>2022-11-05T10:56:43.000Z</time>
      </trkpt>
      <trkpt lat="42.52252" lon="2.02817">
        <ele>2009.42</ele>
        <time>2022-11-05T10:56:54.000Z</time>
      </trkpt>
      <trkpt lat="42.52257" lon="2.02826">
        <ele>2011.42</ele>
        <time>2022-11-05T10:57:03.422Z</time>
      </trkpt>
      <trkpt lat="42.52263" lon="2.02834">
        <ele>2012.66</ele>
        <time>2022-11-05T10:57:12.661Z</time>
      </trkpt>
      <trkpt lat="42.52269" lon="2.02843">
        <ele>2013.42</ele>
        <time>2022-11-05T10:57:23.000Z</time>
      </trkpt>
      <trkpt lat="42.52273" lon="2.02855">
        <ele>2014.67</ele>
        <time>2022-11-05T10:57:32.341Z</time>
      </trkpt>
      <trkpt lat="42.52279" lon="2.02864">
        <ele>2014.67</ele>
        <time>2022-11-05T10:57:41.621Z</time>
      </trkpt>
      <trkpt lat="42.52285" lon="2.02872">
        <ele>2015.67</ele>
        <time>2022-11-05T10:57:51.000Z</time>
      </trkpt>
      <trkpt lat="42.52293" lon="2.02878">
        <ele>2016.66</ele>
        <time>2022-11-05T10:58:00.002Z</time>
      </trkpt>
      <trkpt lat="42.52298" lon="2.02885">
        <ele>2018.67</ele>
        <time>2022-11-05T10:58:09.501Z</time>
      </trkpt>
      <trkpt lat="42.52304" lon="2.02891">
        <ele>2019.67</ele>
        <time>2022-11-05T10:58:18.503Z</time>
      </trkpt>
      <trkpt lat="42.5231" lon="2.02895">
        <ele>2020.67</ele>
        <time>2022-11-05T10:58:27.742Z</time>
      </trkpt>
      <trkpt lat="42.52316" lon="2.02898">
        <ele>2021.43</ele>
        <time>2022-11-05T10:58:37.000Z</time>
      </trkpt>
      <trkpt lat="42.52323" lon="2.02905">
        <ele>2022.68</ele>
        <time>2022-11-05T10:58:46.761Z</time>
      </trkpt>
      <trkpt lat="42.52329" lon="2.02909">
        <ele>2024.66</ele>
        <time>2022-11-05T10:58:56.301Z</time>
      </trkpt>
      <trkpt lat="42.52334" lon="2.02915">
        <ele>2025.61</ele>
        <time>2022-11-05T10:59:06.000Z</time>
      </trkpt>
      <trkpt lat="42.52338" lon="2.0292">
        <ele>2028.41</ele>
        <time>2022-11-05T10:59:15.661Z</time>
      </trkpt>
      <trkpt lat="42.52344" lon="2.02925">
        <ele>2028.93</ele>
        <time>2022-11-05T10:59:25.000Z</time>
      </trkpt>
      <trkpt lat="42.52354" lon="2.02926">
        <ele>2027.68</ele>
        <time>2022-11-05T10:59:34.371Z</time>
      </trkpt>
      <trkpt lat="42.52363" lon="2.0292">
        <ele>2029.68</ele>
        <time>2022-11-05T10:59:43.661Z</time>
      </trkpt>
      <trkpt lat="42.52371" lon="2.02915">
        <ele>2031.43</ele>
        <time>2022-11-05T10:59:54.000Z</time>
      </trkpt>
      <trkpt lat="42.52382" lon="2.02907">
        <ele>2031.68</ele>
        <time>2022-11-05T11:00:03.601Z</time>
      </trkpt>
      <trkpt lat="42.52391" lon="2.029">
        <ele>2032.68</ele>
        <time>2022-11-05T11:00:12.701Z</time>
      </trkpt>
      <trkpt lat="42.52399" lon="2.02895">
        <ele>2032.68</ele>
        <time>2022-11-05T11:00:21.841Z</time>
      </trkpt>
      <trkpt lat="42.52409" lon="2.02896">
        <ele>2032.68</ele>
        <time>2022-11-05T11:00:32.000Z</time>
      </trkpt>
      <trkpt lat="42.52418" lon="2.02902">
        <ele>2032.68</ele>
        <time>2022-11-05T11:00:41.361Z</time>
      </trkpt>
      <trkpt lat="42.52427" lon="2.02905">
        <ele>2032.68</ele>
        <time>2022-11-05T11:00:50.761Z</time>
      </trkpt>
      <trkpt lat="42.52434" lon="2.02903">
        <ele>2033.68</ele>
        <time>2022-11-05T11:01:00.921Z</time>
      </trkpt>
      <trkpt lat="42.52436" lon="2.02901">
        <ele>2034.68</ele>
        <time>2022-11-05T11:01:11.000Z</time>
      </trkpt>
      <trkpt lat="42.52437" lon="2.029">
        <ele>2034.68</ele>
        <time>2022-11-05T11:01:27.000Z</time>
      </trkpt>
      <trkpt lat="42.52437" lon="2.02902">
        <ele>2035.68</ele>
        <time>2022-11-05T11:04:05.000Z</time>
      </trkpt>
      <trkpt lat="42.52444" lon="2.02917">
        <ele>2034.93</ele>
        <time>2022-11-05T11:04:14.321Z</time>
      </trkpt>
      <trkpt lat="42.52451" lon="2.02925">
        <ele>2036.43</ele>
        <time>2022-11-05T11:04:24.000Z</time>
      </trkpt>
      <trkpt lat="42.52459" lon="2.02934">
        <ele>2037.68</ele>
        <time>2022-11-05T11:04:34.000Z</time>
      </trkpt>
      <trkpt lat="42.52468" lon="2.02943">
        <ele>2037.68</ele>
        <time>2022-11-05T11:04:43.422Z</time>
      </trkpt>
      <trkpt lat="42.52473" lon="2.02951">
        <ele>2037.68</ele>
        <time>2022-11-05T11:04:53.010Z</time>
      </trkpt>
      <trkpt lat="42.52478" lon="2.02962">
        <ele>2036.74</ele>
        <time>2022-11-05T11:05:03.000Z</time>
      </trkpt>
      <trkpt lat="42.52484" lon="2.0297">
        <ele>2036.68</ele>
        <time>2022-11-05T11:05:13.000Z</time>
      </trkpt>
      <trkpt lat="42.52494" lon="2.02976">
        <ele>2036.68</ele>
        <time>2022-11-05T11:05:22.692Z</time>
      </trkpt>
      <trkpt lat="42.52504" lon="2.02982">
        <ele>2037.68</ele>
        <time>2022-11-05T11:05:33.010Z</time>
      </trkpt>
      <trkpt lat="42.52512" lon="2.02988">
        <ele>2036.68</ele>
        <time>2022-11-05T11:05:42.642Z</time>
      </trkpt>
      <trkpt lat="42.52519" lon="2.0299">
        <ele>2038.62</ele>
        <time>2022-11-05T11:05:52.000Z</time>
      </trkpt>
      <trkpt lat="42.52529" lon="2.02989">
        <ele>2038.68</ele>
        <time>2022-11-05T11:06:03.000Z</time>
      </trkpt>
      <trkpt lat="42.52539" lon="2.02991">
        <ele>2039.68</ele>
        <time>2022-11-05T11:06:12.701Z</time>
      </trkpt>
      <trkpt lat="42.52547" lon="2.02992">
        <ele>2040.68</ele>
        <time>2022-11-05T11:06:24.000Z</time>
      </trkpt>
      <trkpt lat="42.52556" lon="2.02992">
        <ele>2041.68</ele>
        <time>2022-11-05T11:06:33.471Z</time>
      </trkpt>
      <trkpt lat="42.52563" lon="2.02996">
        <ele>2041.69</ele>
        <time>2022-11-05T11:06:42.521Z</time>
      </trkpt>
      <trkpt lat="42.52571" lon="2.03003">
        <ele>2041.68</ele>
        <time>2022-11-05T11:06:53.000Z</time>
      </trkpt>
      <trkpt lat="42.52581" lon="2.03009">
        <ele>2042.68</ele>
        <time>2022-11-05T11:07:03.000Z</time>
      </trkpt>
      <trkpt lat="42.52589" lon="2.03013">
        <ele>2042.68</ele>
        <time>2022-11-05T11:07:12.443Z</time>
      </trkpt>
      <trkpt lat="42.52596" lon="2.0302">
        <ele>2043.68</ele>
        <time>2022-11-05T11:07:21.684Z</time>
      </trkpt>
      <trkpt lat="42.52606" lon="2.03025">
        <ele>2043.68</ele>
        <time>2022-11-05T11:07:33.000Z</time>
      </trkpt>
      <trkpt lat="42.52615" lon="2.03026">
        <ele>2044.68</ele>
        <time>2022-11-05T11:07:43.000Z</time>
      </trkpt>
      <trkpt lat="42.52624" lon="2.03027">
        <ele>2045.68</ele>
        <time>2022-11-05T11:07:52.010Z</time>
      </trkpt>
      <trkpt lat="42.52631" lon="2.03026">
        <ele>2048.67</ele>
        <time>2022-11-05T11:08:01.953Z</time>
      </trkpt>
      <trkpt lat="42.52637" lon="2.03016">
        <ele>2051.68</ele>
        <time>2022-11-05T11:08:11.962Z</time>
      </trkpt>
      <trkpt lat="42.52641" lon="2.03007">
        <ele>2052.68</ele>
        <time>2022-11-05T11:08:21.571Z</time>
      </trkpt>
      <trkpt lat="42.52646" lon="2.02999">
        <ele>2053.68</ele>
        <time>2022-11-05T11:08:30.681Z</time>
      </trkpt>
      <trkpt lat="42.52652" lon="2.02989">
        <ele>2053.68</ele>
        <time>2022-11-05T11:08:40.000Z</time>
      </trkpt>
      <trkpt lat="42.52662" lon="2.02983">
        <ele>2053.68</ele>
        <time>2022-11-05T11:08:49.564Z</time>
      </trkpt>
      <trkpt lat="42.52671" lon="2.02978">
        <ele>2054.68</ele>
        <time>2022-11-05T11:08:58.601Z</time>
      </trkpt>
      <trkpt lat="42.52681" lon="2.02974">
        <ele>2053.68</ele>
        <time>2022-11-05T11:09:09.000Z</time>
      </trkpt>
      <trkpt lat="42.52693" lon="2.0297">
        <ele>2053.62</ele>
        <time>2022-11-05T11:09:18.841Z</time>
      </trkpt>
      <trkpt lat="42.52702" lon="2.02972">
        <ele>2054.68</ele>
        <time>2022-11-05T11:09:28.361Z</time>
      </trkpt>
      <trkpt lat="42.52707" lon="2.02971">
        <ele>2053.69</ele>
        <time>2022-11-05T11:09:38.000Z</time>
      </trkpt>
      <trkpt lat="42.5272" lon="2.0297">
        <ele>2053.69</ele>
        <time>2022-11-05T11:09:48.000Z</time>
      </trkpt>
      <trkpt lat="42.52732" lon="2.02971">
        <ele>2054.68</ele>
        <time>2022-11-05T11:09:58.000Z</time>
      </trkpt>
      <trkpt lat="42.52742" lon="2.02973">
        <ele>2054.75</ele>
        <time>2022-11-05T11:10:08.000Z</time>
      </trkpt>
      <trkpt lat="42.52753" lon="2.02973">
        <ele>2055.67</ele>
        <time>2022-11-05T11:10:17.682Z</time>
      </trkpt>
      <trkpt lat="42.52762" lon="2.02972">
        <ele>2055.69</ele>
        <time>2022-11-05T11:10:27.000Z</time>
      </trkpt>
      <trkpt lat="42.52773" lon="2.02971">
        <ele>2056.69</ele>
        <time>2022-11-05T11:10:37.000Z</time>
      </trkpt>
      <trkpt lat="42.52783" lon="2.02971">
        <ele>2056.69</ele>
        <time>2022-11-05T11:10:46.381Z</time>
      </trkpt>
      <trkpt lat="42.52792" lon="2.02972">
        <ele>2056.69</ele>
        <time>2022-11-05T11:10:56.000Z</time>
      </trkpt>
      <trkpt lat="42.528" lon="2.02969">
        <ele>2057.69</ele>
        <time>2022-11-05T11:11:06.000Z</time>
      </trkpt>
      <trkpt lat="42.52809" lon="2.02963">
        <ele>2058.69</ele>
        <time>2022-11-05T11:11:15.541Z</time>
      </trkpt>
      <trkpt lat="42.52816" lon="2.02958">
        <ele>2059.69</ele>
        <time>2022-11-05T11:11:25.000Z</time>
      </trkpt>
      <trkpt lat="42.52822" lon="2.0295">
        <ele>2061.69</ele>
        <time>2022-11-05T11:11:34.421Z</time>
      </trkpt>
      <trkpt lat="42.52827" lon="2.02943">
        <ele>2063.62</ele>
        <time>2022-11-05T11:11:44.000Z</time>
      </trkpt>
      <trkpt lat="42.52834" lon="2.02933">
        <ele>2064.68</ele>
        <time>2022-11-05T11:11:54.000Z</time>
      </trkpt>
      <trkpt lat="42.52841" lon="2.02923">
        <ele>2065.69</ele>
        <time>2022-11-05T11:12:03.501Z</time>
      </trkpt>
      <trkpt lat="42.52846" lon="2.02915">
        <ele>2065.69</ele>
        <time>2022-11-05T11:12:13.000Z</time>
      </trkpt>
      <trkpt lat="42.52852" lon="2.02909">
        <ele>2067.68</ele>
        <time>2022-11-05T11:12:22.601Z</time>
      </trkpt>
      <trkpt lat="42.52858" lon="2.02901">
        <ele>2068.69</ele>
        <time>2022-11-05T11:12:32.221Z</time>
      </trkpt>
      <trkpt lat="42.52861" lon="2.02892">
        <ele>2068.94</ele>
        <time>2022-11-05T11:12:42.000Z</time>
      </trkpt>
      <trkpt lat="42.52868" lon="2.0288">
        <ele>2069.68</ele>
        <time>2022-11-05T11:12:52.000Z</time>
      </trkpt>
      <trkpt lat="42.52874" lon="2.02868">
        <ele>2069.69</ele>
        <time>2022-11-05T11:13:01.332Z</time>
      </trkpt>
      <trkpt lat="42.52881" lon="2.02855">
        <ele>2071.62</ele>
        <time>2022-11-05T11:13:10.682Z</time>
      </trkpt>
      <trkpt lat="42.52887" lon="2.02845">
        <ele>2073.43</ele>
        <time>2022-11-05T11:13:20.190Z</time>
      </trkpt>
      <trkpt lat="42.52892" lon="2.02836">
        <ele>2074.93</ele>
        <time>2022-11-05T11:13:30.000Z</time>
      </trkpt>
      <trkpt lat="42.52899" lon="2.02823">
        <ele>2074.5</ele>
        <time>2022-11-05T11:13:39.522Z</time>
      </trkpt>
      <trkpt lat="42.52906" lon="2.02813">
        <ele>2076.62</ele>
        <time>2022-11-05T11:13:49.281Z</time>
      </trkpt>
      <trkpt lat="42.52913" lon="2.02802">
        <ele>2076.69</ele>
        <time>2022-11-05T11:13:58.881Z</time>
      </trkpt>
      <trkpt lat="42.52919" lon="2.02792">
        <ele>2076.69</ele>
        <time>2022-11-05T11:14:08.000Z</time>
      </trkpt>
      <trkpt lat="42.52925" lon="2.02782">
        <ele>2075.69</ele>
        <time>2022-11-05T11:14:18.000Z</time>
      </trkpt>
      <trkpt lat="42.52934" lon="2.02771">
        <ele>2076.69</ele>
        <time>2022-11-05T11:14:27.341Z</time>
      </trkpt>
      <trkpt lat="42.52942" lon="2.02763">
        <ele>2076.7</ele>
        <time>2022-11-05T11:14:38.000Z</time>
      </trkpt>
      <trkpt lat="42.52952" lon="2.02755">
        <ele>2077.69</ele>
        <time>2022-11-05T11:14:47.901Z</time>
      </trkpt>
      <trkpt lat="42.52955" lon="2.02752">
        <ele>2078.68</ele>
        <time>2022-11-05T11:14:57.000Z</time>
      </trkpt>
      <trkpt lat="42.52957" lon="2.02752">
        <ele>2077.89</ele>
        <time>2022-11-05T11:15:20.000Z</time>
      </trkpt>
      <trkpt lat="42.52967" lon="2.02749">
        <ele>2076.87</ele>
        <time>2022-11-05T11:15:29.184Z</time>
      </trkpt>
      <trkpt lat="42.52975" lon="2.02748">
        <ele>2075.69</ele>
        <time>2022-11-05T11:15:38.321Z</time>
      </trkpt>
      <trkpt lat="42.52981" lon="2.02747">
        <ele>2076.62</ele>
        <time>2022-11-05T11:15:48.000Z</time>
      </trkpt>
      <trkpt lat="42.52982" lon="2.02749">
        <ele>2076.44</ele>
        <time>2022-11-05T11:18:28.881Z</time>
      </trkpt>
      <trkpt lat="42.52992" lon="2.02748">
        <ele>2076.69</ele>
        <time>2022-11-05T11:18:39.000Z</time>
      </trkpt>
      <trkpt lat="42.52994" lon="2.02749">
        <ele>2076.69</ele>
        <time>2022-11-05T11:18:50.000Z</time>
      </trkpt>
      <trkpt lat="42.53006" lon="2.0275">
        <ele>2077.69</ele>
        <time>2022-11-05T11:18:59.271Z</time>
      </trkpt>
      <trkpt lat="42.53015" lon="2.02748">
        <ele>2077.87</ele>
        <time>2022-11-05T11:19:08.321Z</time>
      </trkpt>
      <trkpt lat="42.53023" lon="2.02747">
        <ele>2078.69</ele>
        <time>2022-11-05T11:19:17.492Z</time>
      </trkpt>
      <trkpt lat="42.53032" lon="2.02747">
        <ele>2078.68</ele>
        <time>2022-11-05T11:19:26.561Z</time>
      </trkpt>
      <trkpt lat="42.53041" lon="2.02747">
        <ele>2079.62</ele>
        <time>2022-11-05T11:19:37.000Z</time>
      </trkpt>
      <trkpt lat="42.5305" lon="2.0275">
        <ele>2080.44</ele>
        <time>2022-11-05T11:19:46.301Z</time>
      </trkpt>
      <trkpt lat="42.53057" lon="2.02749">
        <ele>2080.64</ele>
        <time>2022-11-05T11:19:56.000Z</time>
      </trkpt>
      <trkpt lat="42.53064" lon="2.02752">
        <ele>2081.68</ele>
        <time>2022-11-05T11:20:05.441Z</time>
      </trkpt>
      <trkpt lat="42.53071" lon="2.02754">
        <ele>2082.69</ele>
        <time>2022-11-05T11:20:16.000Z</time>
      </trkpt>
      <trkpt lat="42.53082" lon="2.02757">
        <ele>2082.69</ele>
        <time>2022-11-05T11:20:26.010Z</time>
      </trkpt>
      <trkpt lat="42.53088" lon="2.0276">
        <ele>2084.68</ele>
        <time>2022-11-05T11:20:36.000Z</time>
      </trkpt>
      <trkpt lat="42.53097" lon="2.02765">
        <ele>2083.69</ele>
        <time>2022-11-05T11:20:45.451Z</time>
      </trkpt>
      <trkpt lat="42.53104" lon="2.02766">
        <ele>2081.94</ele>
        <time>2022-11-05T11:20:55.000Z</time>
      </trkpt>
      <trkpt lat="42.53112" lon="2.0277">
        <ele>2083.69</ele>
        <time>2022-11-05T11:21:06.000Z</time>
      </trkpt>
      <trkpt lat="42.53113" lon="2.0277">
        <ele>2084.67</ele>
        <time>2022-11-05T11:21:17.511Z</time>
      </trkpt>
      <trkpt lat="42.5312" lon="2.02774">
        <ele>2086.44</ele>
        <time>2022-11-05T11:21:27.000Z</time>
      </trkpt>
      <trkpt lat="42.53129" lon="2.02772">
        <ele>2087.69</ele>
        <time>2022-11-05T11:21:37.000Z</time>
      </trkpt>
      <trkpt lat="42.53139" lon="2.02771">
        <ele>2089.63</ele>
        <time>2022-11-05T11:21:46.431Z</time>
      </trkpt>
      <trkpt lat="42.53147" lon="2.0277">
        <ele>2091.64</ele>
        <time>2022-11-05T11:21:56.000Z</time>
      </trkpt>
      <trkpt lat="42.53157" lon="2.02771">
        <ele>2092.69</ele>
        <time>2022-11-05T11:22:05.341Z</time>
      </trkpt>
      <trkpt lat="42.53166" lon="2.02772">
        <ele>2091.69</ele>
        <time>2022-11-05T11:22:15.000Z</time>
      </trkpt>
      <trkpt lat="42.53176" lon="2.02773">
        <ele>2093.68</ele>
        <time>2022-11-05T11:22:25.000Z</time>
      </trkpt>
      <trkpt lat="42.53184" lon="2.02773">
        <ele>2093.69</ele>
        <time>2022-11-05T11:22:34.621Z</time>
      </trkpt>
      <trkpt lat="42.5319" lon="2.02779">
        <ele>2093.69</ele>
        <time>2022-11-05T11:22:45.000Z</time>
      </trkpt>
      <trkpt lat="42.5319" lon="2.02789">
        <ele>2097.44</ele>
        <time>2022-11-05T11:22:55.010Z</time>
      </trkpt>
      <trkpt lat="42.53184" lon="2.02799">
        <ele>2099.69</ele>
        <time>2022-11-05T11:23:04.373Z</time>
      </trkpt>
      <trkpt lat="42.53177" lon="2.02805">
        <ele>2100.63</ele>
        <time>2022-11-05T11:23:14.000Z</time>
      </trkpt>
      <trkpt lat="42.53169" lon="2.02811">
        <ele>2103.62</ele>
        <time>2022-11-05T11:23:23.321Z</time>
      </trkpt>
      <trkpt lat="42.53162" lon="2.02817">
        <ele>2104.69</ele>
        <time>2022-11-05T11:23:32.681Z</time>
      </trkpt>
      <trkpt lat="42.53155" lon="2.02823">
        <ele>2104.69</ele>
        <time>2022-11-05T11:23:42.010Z</time>
      </trkpt>
      <trkpt lat="42.53148" lon="2.02829">
        <ele>2107.69</ele>
        <time>2022-11-05T11:23:51.521Z</time>
      </trkpt>
      <trkpt lat="42.53142" lon="2.0284">
        <ele>2106.75</ele>
        <time>2022-11-05T11:24:00.861Z</time>
      </trkpt>
      <trkpt lat="42.53136" lon="2.02853">
        <ele>2104.94</ele>
        <time>2022-11-05T11:24:10.000Z</time>
      </trkpt>
      <trkpt lat="42.53136" lon="2.02869">
        <ele>2104.69</ele>
        <time>2022-11-05T11:24:19.661Z</time>
      </trkpt>
      <trkpt lat="42.5314" lon="2.02879">
        <ele>2105.69</ele>
        <time>2022-11-05T11:24:30.000Z</time>
      </trkpt>
      <trkpt lat="42.53146" lon="2.02887">
        <ele>2105.69</ele>
        <time>2022-11-05T11:24:39.951Z</time>
      </trkpt>
      <trkpt lat="42.53153" lon="2.02889">
        <ele>2105.69</ele>
        <time>2022-11-05T11:24:49.250Z</time>
      </trkpt>
      <trkpt lat="42.53162" lon="2.02888">
        <ele>2105.69</ele>
        <time>2022-11-05T11:25:00.000Z</time>
      </trkpt>
      <trkpt lat="42.53172" lon="2.02886">
        <ele>2106.69</ele>
        <time>2022-11-05T11:25:09.421Z</time>
      </trkpt>
      <trkpt lat="42.53179" lon="2.02887">
        <ele>2105.7</ele>
        <time>2022-11-05T11:25:19.000Z</time>
      </trkpt>
      <trkpt lat="42.53188" lon="2.02889">
        <ele>2106.93</ele>
        <time>2022-11-05T11:25:28.692Z</time>
      </trkpt>
      <trkpt lat="42.53196" lon="2.02889">
        <ele>2107.69</ele>
        <time>2022-11-05T11:25:37.701Z</time>
      </trkpt>
      <trkpt lat="42.53203" lon="2.02892">
        <ele>2108.63</ele>
        <time>2022-11-05T11:25:47.361Z</time>
      </trkpt>
      <trkpt lat="42.53211" lon="2.02894">
        <ele>2108.69</ele>
        <time>2022-11-05T11:25:56.602Z</time>
      </trkpt>
      <trkpt lat="42.53218" lon="2.029">
        <ele>2109.68</ele>
        <time>2022-11-05T11:26:05.711Z</time>
      </trkpt>
      <trkpt lat="42.53224" lon="2.02905">
        <ele>2110.63</ele>
        <time>2022-11-05T11:26:15.000Z</time>
      </trkpt>
      <trkpt lat="42.53231" lon="2.02911">
        <ele>2111.69</ele>
        <time>2022-11-05T11:26:25.000Z</time>
      </trkpt>
      <trkpt lat="42.53239" lon="2.02918">
        <ele>2111.49</ele>
        <time>2022-11-05T11:26:35.000Z</time>
      </trkpt>
      <trkpt lat="42.53247" lon="2.02924">
        <ele>2112.69</ele>
        <time>2022-11-05T11:26:44.621Z</time>
      </trkpt>
      <trkpt lat="42.53255" lon="2.02926">
        <ele>2114.69</ele>
        <time>2022-11-05T11:26:53.941Z</time>
      </trkpt>
      <trkpt lat="42.53265" lon="2.02928">
        <ele>2116.51</ele>
        <time>2022-11-05T11:27:04.000Z</time>
      </trkpt>
      <trkpt lat="42.53273" lon="2.02929">
        <ele>2117.7</ele>
        <time>2022-11-05T11:27:13.370Z</time>
      </trkpt>
      <trkpt lat="42.53282" lon="2.0293">
        <ele>2117.7</ele>
        <time>2022-11-05T11:27:22.481Z</time>
      </trkpt>
      <trkpt lat="42.5329" lon="2.02933">
        <ele>2118.69</ele>
        <time>2022-11-05T11:27:31.501Z</time>
      </trkpt>
      <trkpt lat="42.53297" lon="2.02937">
        <ele>2120.7</ele>
        <time>2022-11-05T11:27:40.661Z</time>
      </trkpt>
      <trkpt lat="42.53305" lon="2.02942">
        <ele>2120.95</ele>
        <time>2022-11-05T11:27:50.000Z</time>
      </trkpt>
      <trkpt lat="42.53316" lon="2.02945">
        <ele>2120.71</ele>
        <time>2022-11-05T11:27:59.701Z</time>
      </trkpt>
      <trkpt lat="42.53324" lon="2.02945">
        <ele>2119.7</ele>
        <time>2022-11-05T11:28:10.000Z</time>
      </trkpt>
      <trkpt lat="42.53333" lon="2.02946">
        <ele>2119.94</ele>
        <time>2022-11-05T11:28:21.000Z</time>
      </trkpt>
      <trkpt lat="42.5334" lon="2.02942">
        <ele>2119.68</ele>
        <time>2022-11-05T11:28:30.652Z</time>
      </trkpt>
      <trkpt lat="42.53349" lon="2.02947">
        <ele>2118.69</ele>
        <time>2022-11-05T11:28:41.000Z</time>
      </trkpt>
      <trkpt lat="42.53355" lon="2.02952">
        <ele>2119.7</ele>
        <time>2022-11-05T11:28:51.000Z</time>
      </trkpt>
      <trkpt lat="42.53364" lon="2.02954">
        <ele>2121.69</ele>
        <time>2022-11-05T11:29:00.581Z</time>
      </trkpt>
      <trkpt lat="42.53371" lon="2.02957">
        <ele>2121.7</ele>
        <time>2022-11-05T11:29:09.601Z</time>
      </trkpt>
      <trkpt lat="42.53378" lon="2.02961">
        <ele>2121.68</ele>
        <time>2022-11-05T11:29:18.753Z</time>
      </trkpt>
      <trkpt lat="42.53385" lon="2.02965">
        <ele>2121.76</ele>
        <time>2022-11-05T11:29:28.381Z</time>
      </trkpt>
      <trkpt lat="42.53392" lon="2.02969">
        <ele>2123.64</ele>
        <time>2022-11-05T11:29:38.000Z</time>
      </trkpt>
      <trkpt lat="42.534" lon="2.02975">
        <ele>2123.95</ele>
        <time>2022-11-05T11:29:47.321Z</time>
      </trkpt>
      <trkpt lat="42.53407" lon="2.02979">
        <ele>2123.7</ele>
        <time>2022-11-05T11:29:57.000Z</time>
      </trkpt>
      <trkpt lat="42.53412" lon="2.0299">
        <ele>2122.47</ele>
        <time>2022-11-05T11:30:06.442Z</time>
      </trkpt>
      <trkpt lat="42.53415" lon="2.02998">
        <ele>2121.7</ele>
        <time>2022-11-05T11:30:15.481Z</time>
      </trkpt>
      <trkpt lat="42.53418" lon="2.03004">
        <ele>2121.64</ele>
        <time>2022-11-05T11:30:25.000Z</time>
      </trkpt>
      <trkpt lat="42.53418" lon="2.03006">
        <ele>2121.7</ele>
        <time>2022-11-05T11:30:35.000Z</time>
      </trkpt>
      <trkpt lat="42.5342" lon="2.03009">
        <ele>2121.45</ele>
        <time>2022-11-05T11:30:44.481Z</time>
      </trkpt>
      <trkpt lat="42.53422" lon="2.03015">
        <ele>2119.7</ele>
        <time>2022-11-05T11:30:53.961Z</time>
      </trkpt>
      <trkpt lat="42.53423" lon="2.03016">
        <ele>2119.7</ele>
        <time>2022-11-05T11:31:14.000Z</time>
      </trkpt>
      <trkpt lat="42.53422" lon="2.03016">
        <ele>2120.45</ele>
        <time>2022-11-05T11:31:37.641Z</time>
      </trkpt>
      <trkpt lat="42.5342" lon="2.03008">
        <ele>2123.45</ele>
        <time>2022-11-05T11:31:48.000Z</time>
      </trkpt>
      <trkpt lat="42.53421" lon="2.03002">
        <ele>2126.45</ele>
        <time>2022-11-05T11:31:58.000Z</time>
      </trkpt>
      <trkpt lat="42.53422" lon="2.02995">
        <ele>2127.7</ele>
        <time>2022-11-05T11:32:07.741Z</time>
      </trkpt>
      <trkpt lat="42.53425" lon="2.02994">
        <ele>2125.7</ele>
        <time>2022-11-05T11:32:17.381Z</time>
      </trkpt>
      <trkpt lat="42.5343" lon="2.02995">
        <ele>2124.68</ele>
        <time>2022-11-05T11:32:26.481Z</time>
      </trkpt>
      <trkpt lat="42.53431" lon="2.02997">
        <ele>2125.7</ele>
        <time>2022-11-05T11:32:36.000Z</time>
      </trkpt>
      <trkpt lat="42.53431" lon="2.02995">
        <ele>2126.7</ele>
        <time>2022-11-05T11:32:46.000Z</time>
      </trkpt>
      <trkpt lat="42.53432" lon="2.02993">
        <ele>2126.7</ele>
        <time>2022-11-05T11:32:56.000Z</time>
      </trkpt>
      <trkpt lat="42.53435" lon="2.02994">
        <ele>2126.7</ele>
        <time>2022-11-05T11:33:06.000Z</time>
      </trkpt>
      <trkpt lat="42.53436" lon="2.02996">
        <ele>2126.7</ele>
        <time>2022-11-05T11:33:16.000Z</time>
      </trkpt>
      <trkpt lat="42.53437" lon="2.02998">
        <ele>2127.64</ele>
        <time>2022-11-05T11:33:32.000Z</time>
      </trkpt>
      <trkpt lat="42.53436" lon="2.03">
        <ele>2125.95</ele>
        <time>2022-11-05T11:33:43.000Z</time>
      </trkpt>
      <trkpt lat="42.53437" lon="2.03003">
        <ele>2125.7</ele>
        <time>2022-11-05T11:33:53.000Z</time>
      </trkpt>
      <trkpt lat="42.53437" lon="2.03004">
        <ele>2126.7</ele>
        <time>2022-11-05T11:34:07.000Z</time>
      </trkpt>
      <trkpt lat="42.53437" lon="2.03006">
        <ele>2126.7</ele>
        <time>2022-11-05T11:35:22.000Z</time>
      </trkpt>
      <trkpt lat="42.53438" lon="2.03007">
        <ele>2130.39</ele>
        <time>2022-11-05T11:35:32.000Z</time>
      </trkpt>
      <trkpt lat="42.53437" lon="2.03006">
        <ele>2129.2</ele>
        <time>2022-11-05T11:36:41.000Z</time>
      </trkpt>
      <trkpt lat="42.53438" lon="2.03004">
        <ele>2128.7</ele>
        <time>2022-11-05T11:36:51.000Z</time>
      </trkpt>
      <trkpt lat="42.53437" lon="2.03003">
        <ele>2127.95</ele>
        <time>2022-11-05T11:37:26.000Z</time>
      </trkpt>
      <trkpt lat="42.53436" lon="2.03002">
        <ele>2127.7</ele>
        <time>2022-11-05T11:37:36.000Z</time>
      </trkpt>
      <trkpt lat="42.53436" lon="2.02994">
        <ele>2127.45</ele>
        <time>2022-11-05T11:37:45.763Z</time>
      </trkpt>
      <trkpt lat="42.53437" lon="2.02991">
        <ele>2127.7</ele>
        <time>2022-11-05T11:37:55.000Z</time>
      </trkpt>
      <trkpt lat="42.53438" lon="2.02991">
        <ele>2126.76</ele>
        <time>2022-11-05T11:38:32.000Z</time>
      </trkpt>
      <trkpt lat="42.53438" lon="2.02993">
        <ele>2127.45</ele>
        <time>2022-11-05T11:39:43.000Z</time>
      </trkpt>
      <trkpt lat="42.53439" lon="2.02995">
        <ele>2128.7</ele>
        <time>2022-11-05T11:39:53.000Z</time>
      </trkpt>
      <trkpt lat="42.53439" lon="2.02997">
        <ele>2127.7</ele>
        <time>2022-11-05T11:40:02.010Z</time>
      </trkpt>
      <trkpt lat="42.53432" lon="2.03003">
        <ele>2127.95</ele>
        <time>2022-11-05T11:40:11.990Z</time>
      </trkpt>
      <trkpt lat="42.5343" lon="2.03003">
        <ele>2127.7</ele>
        <time>2022-11-05T11:40:21.000Z</time>
      </trkpt>
      <trkpt lat="42.53432" lon="2.03002">
        <ele>2127.7</ele>
        <time>2022-11-05T11:42:18.762Z</time>
      </trkpt>
      <trkpt lat="42.53436" lon="2.02996">
        <ele>2127.51</ele>
        <time>2022-11-05T11:42:28.000Z</time>
      </trkpt>
      <trkpt lat="42.53438" lon="2.02989">
        <ele>2128.7</ele>
        <time>2022-11-05T11:42:39.000Z</time>
      </trkpt>
      <trkpt lat="42.53438" lon="2.0299">
        <ele>2128.7</ele>
        <time>2022-11-05T11:43:03.000Z</time>
      </trkpt>
      <trkpt lat="42.53438" lon="2.02992">
        <ele>2128.7</ele>
        <time>2022-11-05T11:43:31.000Z</time>
      </trkpt>
      <trkpt lat="42.53438" lon="2.02991">
        <ele>2129.7</ele>
        <time>2022-11-05T11:45:07.000Z</time>
      </trkpt>
      <trkpt lat="42.53435" lon="2.02991">
        <ele>2128.7</ele>
        <time>2022-11-05T11:45:17.000Z</time>
      </trkpt>
      <trkpt lat="42.53438" lon="2.02993">
        <ele>2130.7</ele>
        <time>2022-11-05T11:45:27.000Z</time>
      </trkpt>
      <trkpt lat="42.53437" lon="2.02992">
        <ele>2130.7</ele>
        <time>2022-11-05T11:45:42.000Z</time>
      </trkpt>
      <trkpt lat="42.53431" lon="2.02985">
        <ele>2127.7</ele>
        <time>2022-11-05T11:45:52.000Z</time>
      </trkpt>
      <trkpt lat="42.53426" lon="2.02975">
        <ele>2126.75</ele>
        <time>2022-11-05T11:46:02.000Z</time>
      </trkpt>
      <trkpt lat="42.53423" lon="2.02969">
        <ele>2127.7</ele>
        <time>2022-11-05T11:46:12.000Z</time>
      </trkpt>
      <trkpt lat="42.53424" lon="2.02959">
        <ele>2129.45</ele>
        <time>2022-11-05T11:46:22.000Z</time>
      </trkpt>
      <trkpt lat="42.5343" lon="2.02953">
        <ele>2129.76</ele>
        <time>2022-11-05T11:46:32.000Z</time>
      </trkpt>
      <trkpt lat="42.53435" lon="2.02949">
        <ele>2130.7</ele>
        <time>2022-11-05T11:46:42.000Z</time>
      </trkpt>
      <trkpt lat="42.5344" lon="2.02944">
        <ele>2131.7</ele>
        <time>2022-11-05T11:46:52.000Z</time>
      </trkpt>
      <trkpt lat="42.53446" lon="2.02938">
        <ele>2131.95</ele>
        <time>2022-11-05T11:47:02.000Z</time>
      </trkpt>
      <trkpt lat="42.53448" lon="2.02937">
        <ele>2131.7</ele>
        <time>2022-11-05T11:47:12.000Z</time>
      </trkpt>
      <trkpt lat="42.53453" lon="2.02932">
        <ele>2132.7</ele>
        <time>2022-11-05T11:47:22.000Z</time>
      </trkpt>
      <trkpt lat="42.53459" lon="2.02925">
        <ele>2133.68</ele>
        <time>2022-11-05T11:47:32.000Z</time>
      </trkpt>
      <trkpt lat="42.53464" lon="2.02916">
        <ele>2135.69</ele>
        <time>2022-11-05T11:47:42.000Z</time>
      </trkpt>
      <trkpt lat="42.53468" lon="2.02908">
        <ele>2138.68</ele>
        <time>2022-11-05T11:47:52.000Z</time>
      </trkpt>
      <trkpt lat="42.53471" lon="2.02899">
        <ele>2140.69</ele>
        <time>2022-11-05T11:48:02.000Z</time>
      </trkpt>
      <trkpt lat="42.53474" lon="2.02888">
        <ele>2140.76</ele>
        <time>2022-11-05T11:48:12.000Z</time>
      </trkpt>
      <trkpt lat="42.53476" lon="2.02884">
        <ele>2140.7</ele>
        <time>2022-11-05T11:48:22.000Z</time>
      </trkpt>
      <trkpt lat="42.53476" lon="2.0288">
        <ele>2138.7</ele>
        <time>2022-11-05T11:48:32.000Z</time>
      </trkpt>
      <trkpt lat="42.53476" lon="2.02879">
        <ele>2137.76</ele>
        <time>2022-11-05T11:48:58.000Z</time>
      </trkpt>
      <trkpt lat="42.53476" lon="2.02877">
        <ele>2136.2</ele>
        <time>2022-11-05T11:49:38.000Z</time>
      </trkpt>
      <trkpt lat="42.53476" lon="2.02874">
        <ele>2134.68</ele>
        <time>2022-11-05T11:49:48.000Z</time>
      </trkpt>
      <trkpt lat="42.53477" lon="2.02876">
        <ele>2130.7</ele>
        <time>2022-11-05T11:50:45.000Z</time>
      </trkpt>
      <trkpt lat="42.53479" lon="2.02879">
        <ele>2130.7</ele>
        <time>2022-11-05T11:50:56.000Z</time>
      </trkpt>
      <trkpt lat="42.53483" lon="2.0288">
        <ele>2129.94</ele>
        <time>2022-11-05T11:51:05.711Z</time>
      </trkpt>
      <trkpt lat="42.53486" lon="2.02874">
        <ele>2126.97</ele>
        <time>2022-11-05T11:51:15.000Z</time>
      </trkpt>
      <trkpt lat="42.53491" lon="2.02868">
        <ele>2127.7</ele>
        <time>2022-11-05T11:51:25.000Z</time>
      </trkpt>
      <trkpt lat="42.53492" lon="2.02859">
        <ele>2127.7</ele>
        <time>2022-11-05T11:51:34.010Z</time>
      </trkpt>
      <trkpt lat="42.53489" lon="2.02853">
        <ele>2128.45</ele>
        <time>2022-11-05T11:51:44.000Z</time>
      </trkpt>
      <trkpt lat="42.53489" lon="2.02849">
        <ele>2129.5</ele>
        <time>2022-11-05T11:51:55.000Z</time>
      </trkpt>
      <trkpt lat="42.5349" lon="2.0285">
        <ele>2128.95</ele>
        <time>2022-11-05T11:52:54.311Z</time>
      </trkpt>
      <trkpt lat="42.53493" lon="2.02841">
        <ele>2130.62</ele>
        <time>2022-11-05T11:53:04.000Z</time>
      </trkpt>
      <trkpt lat="42.53499" lon="2.02836">
        <ele>2134.68</ele>
        <time>2022-11-05T11:53:13.362Z</time>
      </trkpt>
      <trkpt lat="42.53511" lon="2.02832">
        <ele>2135.7</ele>
        <time>2022-11-05T11:53:24.000Z</time>
      </trkpt>
      <trkpt lat="42.5352" lon="2.02828">
        <ele>2136.71</ele>
        <time>2022-11-05T11:53:33.750Z</time>
      </trkpt>
      <trkpt lat="42.53526" lon="2.02822">
        <ele>2137.64</ele>
        <time>2022-11-05T11:53:42.941Z</time>
      </trkpt>
      <trkpt lat="42.53532" lon="2.02814">
        <ele>2136.45</ele>
        <time>2022-11-05T11:53:52.000Z</time>
      </trkpt>
      <trkpt lat="42.53536" lon="2.02797">
        <ele>2136.7</ele>
        <time>2022-11-05T11:54:02.000Z</time>
      </trkpt>
      <trkpt lat="42.53538" lon="2.02781">
        <ele>2135.76</ele>
        <time>2022-11-05T11:54:11.521Z</time>
      </trkpt>
      <trkpt lat="42.53539" lon="2.02771">
        <ele>2135.7</ele>
        <time>2022-11-05T11:54:20.831Z</time>
      </trkpt>
      <trkpt lat="42.53538" lon="2.02758">
        <ele>2134.64</ele>
        <time>2022-11-05T11:54:30.000Z</time>
      </trkpt>
      <trkpt lat="42.53538" lon="2.02741">
        <ele>2133.7</ele>
        <time>2022-11-05T11:54:39.341Z</time>
      </trkpt>
      <trkpt lat="42.53543" lon="2.02728">
        <ele>2130.95</ele>
        <time>2022-11-05T11:54:49.000Z</time>
      </trkpt>
      <trkpt lat="42.53549" lon="2.02718">
        <ele>2129.76</ele>
        <time>2022-11-05T11:54:58.551Z</time>
      </trkpt>
      <trkpt lat="42.53553" lon="2.02709">
        <ele>2130.7</ele>
        <time>2022-11-05T11:55:08.000Z</time>
      </trkpt>
      <trkpt lat="42.53557" lon="2.027">
        <ele>2131.7</ele>
        <time>2022-11-05T11:55:18.000Z</time>
      </trkpt>
      <trkpt lat="42.53561" lon="2.02691">
        <ele>2131.7</ele>
        <time>2022-11-05T11:55:27.631Z</time>
      </trkpt>
      <trkpt lat="42.53564" lon="2.02686">
        <ele>2132.45</ele>
        <time>2022-11-05T11:55:37.000Z</time>
      </trkpt>
      <trkpt lat="42.53569" lon="2.0268">
        <ele>2133.7</ele>
        <time>2022-11-05T11:55:46.471Z</time>
      </trkpt>
      <trkpt lat="42.53571" lon="2.02675">
        <ele>2134.63</ele>
        <time>2022-11-05T11:55:56.000Z</time>
      </trkpt>
      <trkpt lat="42.53571" lon="2.02669">
        <ele>2135.7</ele>
        <time>2022-11-05T11:56:05.620Z</time>
      </trkpt>
      <trkpt lat="42.53571" lon="2.02666">
        <ele>2135.7</ele>
        <time>2022-11-05T11:56:15.000Z</time>
      </trkpt>
      <trkpt lat="42.53572" lon="2.02662">
        <ele>2136.63</ele>
        <time>2022-11-05T11:56:25.000Z</time>
      </trkpt>
      <trkpt lat="42.53572" lon="2.02653">
        <ele>2138.7</ele>
        <time>2022-11-05T11:56:34.791Z</time>
      </trkpt>
      <trkpt lat="42.53572" lon="2.02644">
        <ele>2139.7</ele>
        <time>2022-11-05T11:56:45.000Z</time>
      </trkpt>
      <trkpt lat="42.53571" lon="2.0263">
        <ele>2138.7</ele>
        <time>2022-11-05T11:56:54.551Z</time>
      </trkpt>
      <trkpt lat="42.53569" lon="2.02621">
        <ele>2139.69</ele>
        <time>2022-11-05T11:57:03.791Z</time>
      </trkpt>
      <trkpt lat="42.53566" lon="2.02617">
        <ele>2138.7</ele>
        <time>2022-11-05T11:57:13.000Z</time>
      </trkpt>
      <trkpt lat="42.53565" lon="2.02614">
        <ele>2138.69</ele>
        <time>2022-11-05T11:57:23.000Z</time>
      </trkpt>
      <trkpt lat="42.53564" lon="2.02611">
        <ele>2135.7</ele>
        <time>2022-11-05T11:57:33.000Z</time>
      </trkpt>
      <trkpt lat="42.53562" lon="2.02602">
        <ele>2135.69</ele>
        <time>2022-11-05T11:57:43.000Z</time>
      </trkpt>
      <trkpt lat="42.53564" lon="2.02589">
        <ele>2139.44</ele>
        <time>2022-11-05T11:57:53.000Z</time>
      </trkpt>
      <trkpt lat="42.53561" lon="2.02579">
        <ele>2139.76</ele>
        <time>2022-11-05T11:58:03.000Z</time>
      </trkpt>
      <trkpt lat="42.53561" lon="2.02568">
        <ele>2140.69</ele>
        <time>2022-11-05T11:58:12.551Z</time>
      </trkpt>
      <trkpt lat="42.53559" lon="2.02559">
        <ele>2139.44</ele>
        <time>2022-11-05T11:58:23.000Z</time>
      </trkpt>
      <trkpt lat="42.53559" lon="2.02553">
        <ele>2140.69</ele>
        <time>2022-11-05T11:58:32.631Z</time>
      </trkpt>
      <trkpt lat="42.53558" lon="2.02547">
        <ele>2140.69</ele>
        <time>2022-11-05T11:58:43.000Z</time>
      </trkpt>
      <trkpt lat="42.53554" lon="2.0254">
        <ele>2140.68</ele>
        <time>2022-11-05T11:58:53.000Z</time>
      </trkpt>
      <trkpt lat="42.53552" lon="2.02534">
        <ele>2140.63</ele>
        <time>2022-11-05T11:59:03.000Z</time>
      </trkpt>
      <trkpt lat="42.5355" lon="2.02526">
        <ele>2140.69</ele>
        <time>2022-11-05T11:59:13.000Z</time>
      </trkpt>
      <trkpt lat="42.5355" lon="2.02517">
        <ele>2140.63</ele>
        <time>2022-11-05T11:59:22.430Z</time>
      </trkpt>
      <trkpt lat="42.53553" lon="2.02509">
        <ele>2142.69</ele>
        <time>2022-11-05T11:59:32.000Z</time>
      </trkpt>
      <trkpt lat="42.53554" lon="2.02496">
        <ele>2144.49</ele>
        <time>2022-11-05T11:59:42.000Z</time>
      </trkpt>
      <trkpt lat="42.53554" lon="2.02479">
        <ele>2144.69</ele>
        <time>2022-11-05T11:59:51.491Z</time>
      </trkpt>
      <trkpt lat="42.53553" lon="2.02472">
        <ele>2146.69</ele>
        <time>2022-11-05T12:00:01.000Z</time>
      </trkpt>
      <trkpt lat="42.5355" lon="2.02464">
        <ele>2148.69</ele>
        <time>2022-11-05T12:00:11.000Z</time>
      </trkpt>
      <trkpt lat="42.53549" lon="2.02454">
        <ele>2147.69</ele>
        <time>2022-11-05T12:00:20.631Z</time>
      </trkpt>
      <trkpt lat="42.53551" lon="2.02448">
        <ele>2148.69</ele>
        <time>2022-11-05T12:00:30.000Z</time>
      </trkpt>
      <trkpt lat="42.53552" lon="2.02437">
        <ele>2148.94</ele>
        <time>2022-11-05T12:00:39.413Z</time>
      </trkpt>
      <trkpt lat="42.5355" lon="2.02425">
        <ele>2148.94</ele>
        <time>2022-11-05T12:00:48.492Z</time>
      </trkpt>
      <trkpt lat="42.53551" lon="2.02416">
        <ele>2151.69</ele>
        <time>2022-11-05T12:00:59.000Z</time>
      </trkpt>
      <trkpt lat="42.53553" lon="2.02408">
        <ele>2152.75</ele>
        <time>2022-11-05T12:01:08.230Z</time>
      </trkpt>
      <trkpt lat="42.53552" lon="2.02395">
        <ele>2153.44</ele>
        <time>2022-11-05T12:01:19.000Z</time>
      </trkpt>
      <trkpt lat="42.53552" lon="2.02385">
        <ele>2153.69</ele>
        <time>2022-11-05T12:01:28.490Z</time>
      </trkpt>
      <trkpt lat="42.53552" lon="2.0237">
        <ele>2153.69</ele>
        <time>2022-11-05T12:01:38.000Z</time>
      </trkpt>
      <trkpt lat="42.53548" lon="2.02357">
        <ele>2152.64</ele>
        <time>2022-11-05T12:01:47.251Z</time>
      </trkpt>
      <trkpt lat="42.53548" lon="2.02348">
        <ele>2154.44</ele>
        <time>2022-11-05T12:01:56.611Z</time>
      </trkpt>
      <trkpt lat="42.53548" lon="2.02338">
        <ele>2154.92</ele>
        <time>2022-11-05T12:02:07.000Z</time>
      </trkpt>
      <trkpt lat="42.5355" lon="2.0233">
        <ele>2152.69</ele>
        <time>2022-11-05T12:02:17.000Z</time>
      </trkpt>
      <trkpt lat="42.53546" lon="2.02324">
        <ele>2152.69</ele>
        <time>2022-11-05T12:02:26.411Z</time>
      </trkpt>
      <trkpt lat="42.53546" lon="2.02319">
        <ele>2156.38</ele>
        <time>2022-11-05T12:02:35.571Z</time>
      </trkpt>
      <trkpt lat="42.53546" lon="2.02311">
        <ele>2159.67</ele>
        <time>2022-11-05T12:02:45.000Z</time>
      </trkpt>
      <trkpt lat="42.53548" lon="2.023">
        <ele>2160.44</ele>
        <time>2022-11-05T12:02:54.732Z</time>
      </trkpt>
      <trkpt lat="42.53546" lon="2.02293">
        <ele>2161.69</ele>
        <time>2022-11-05T12:03:03.771Z</time>
      </trkpt>
      <trkpt lat="42.53542" lon="2.02285">
        <ele>2160.75</ele>
        <time>2022-11-05T12:03:12.842Z</time>
      </trkpt>
      <trkpt lat="42.5354" lon="2.02281">
        <ele>2161.69</ele>
        <time>2022-11-05T12:03:22.643Z</time>
      </trkpt>
      <trkpt lat="42.53536" lon="2.02277">
        <ele>2163.68</ele>
        <time>2022-11-05T12:03:32.000Z</time>
      </trkpt>
      <trkpt lat="42.53534" lon="2.02272">
        <ele>2164.69</ele>
        <time>2022-11-05T12:03:41.771Z</time>
      </trkpt>
      <trkpt lat="42.53535" lon="2.02265">
        <ele>2164.67</ele>
        <time>2022-11-05T12:03:52.000Z</time>
      </trkpt>
      <trkpt lat="42.53538" lon="2.02251">
        <ele>2163.94</ele>
        <time>2022-11-05T12:04:01.692Z</time>
      </trkpt>
      <trkpt lat="42.53538" lon="2.02242">
        <ele>2166.44</ele>
        <time>2022-11-05T12:04:10.732Z</time>
      </trkpt>
      <trkpt lat="42.53538" lon="2.02235">
        <ele>2166.75</ele>
        <time>2022-11-05T12:04:20.000Z</time>
      </trkpt>
      <trkpt lat="42.53535" lon="2.0223">
        <ele>2168.69</ele>
        <time>2022-11-05T12:04:30.000Z</time>
      </trkpt>
      <trkpt lat="42.53533" lon="2.02223">
        <ele>2167.69</ele>
        <time>2022-11-05T12:04:40.000Z</time>
      </trkpt>
      <trkpt lat="42.53534" lon="2.02217">
        <ele>2167.69</ele>
        <time>2022-11-05T12:04:49.751Z</time>
      </trkpt>
      <trkpt lat="42.53535" lon="2.0221">
        <ele>2168.67</ele>
        <time>2022-11-05T12:05:00.000Z</time>
      </trkpt>
      <trkpt lat="42.53539" lon="2.02201">
        <ele>2169.44</ele>
        <time>2022-11-05T12:05:10.000Z</time>
      </trkpt>
      <trkpt lat="42.5354" lon="2.02193">
        <ele>2169.7</ele>
        <time>2022-11-05T12:05:19.611Z</time>
      </trkpt>
      <trkpt lat="42.53541" lon="2.02188">
        <ele>2170.69</ele>
        <time>2022-11-05T12:05:29.000Z</time>
      </trkpt>
      <trkpt lat="42.53543" lon="2.0218">
        <ele>2169.7</ele>
        <time>2022-11-05T12:05:39.000Z</time>
      </trkpt>
      <trkpt lat="42.53545" lon="2.02175">
        <ele>2164.06</ele>
        <time>2022-11-05T12:05:49.000Z</time>
      </trkpt>
      <trkpt lat="42.53548" lon="2.02171">
        <ele>2163.62</ele>
        <time>2022-11-05T12:05:59.000Z</time>
      </trkpt>
      <trkpt lat="42.53548" lon="2.02167">
        <ele>2166.19</ele>
        <time>2022-11-05T12:06:09.000Z</time>
      </trkpt>
      <trkpt lat="42.53546" lon="2.02163">
        <ele>2170.67</ele>
        <time>2022-11-05T12:06:18.751Z</time>
      </trkpt>
      <trkpt lat="42.53542" lon="2.02162">
        <ele>2174.62</ele>
        <time>2022-11-05T12:06:28.000Z</time>
      </trkpt>
      <trkpt lat="42.53539" lon="2.02159">
        <ele>2175.68</ele>
        <time>2022-11-05T12:06:37.831Z</time>
      </trkpt>
      <trkpt lat="42.53536" lon="2.02157">
        <ele>2176.62</ele>
        <time>2022-11-05T12:06:47.000Z</time>
      </trkpt>
      <trkpt lat="42.53532" lon="2.02154">
        <ele>2177.74</ele>
        <time>2022-11-05T12:06:56.670Z</time>
      </trkpt>
      <trkpt lat="42.5353" lon="2.02151">
        <ele>2178.68</ele>
        <time>2022-11-05T12:07:07.000Z</time>
      </trkpt>
      <trkpt lat="42.53525" lon="2.02149">
        <ele>2176.69</ele>
        <time>2022-11-05T12:07:17.000Z</time>
      </trkpt>
      <trkpt lat="42.5352" lon="2.02147">
        <ele>2178.68</ele>
        <time>2022-11-05T12:07:27.000Z</time>
      </trkpt>
      <trkpt lat="42.53518" lon="2.02144">
        <ele>2178.68</ele>
        <time>2022-11-05T12:07:37.000Z</time>
      </trkpt>
      <trkpt lat="42.53515" lon="2.02141">
        <ele>2179.62</ele>
        <time>2022-11-05T12:07:47.000Z</time>
      </trkpt>
      <trkpt lat="42.53511" lon="2.02139">
        <ele>2180.68</ele>
        <time>2022-11-05T12:07:57.000Z</time>
      </trkpt>
      <trkpt lat="42.53507" lon="2.02134">
        <ele>2177.93</ele>
        <time>2022-11-05T12:08:06.980Z</time>
      </trkpt>
      <trkpt lat="42.53501" lon="2.02131">
        <ele>2177.68</ele>
        <time>2022-11-05T12:08:17.000Z</time>
      </trkpt>
      <trkpt lat="42.535" lon="2.0213">
        <ele>2177.68</ele>
        <time>2022-11-05T12:08:29.491Z</time>
      </trkpt>
      <trkpt lat="42.53498" lon="2.02125">
        <ele>2178.62</ele>
        <time>2022-11-05T12:08:39.000Z</time>
      </trkpt>
      <trkpt lat="42.53496" lon="2.02121">
        <ele>2176.93</ele>
        <time>2022-11-05T12:08:48.551Z</time>
      </trkpt>
      <trkpt lat="42.53493" lon="2.02118">
        <ele>2176.68</ele>
        <time>2022-11-05T12:08:58.000Z</time>
      </trkpt>
      <trkpt lat="42.53492" lon="2.02117">
        <ele>2176.68</ele>
        <time>2022-11-05T12:09:08.000Z</time>
      </trkpt>
      <trkpt lat="42.53488" lon="2.02117">
        <ele>2175.93</ele>
        <time>2022-11-05T12:09:17.451Z</time>
      </trkpt>
      <trkpt lat="42.53486" lon="2.02117">
        <ele>2175.68</ele>
        <time>2022-11-05T12:09:27.000Z</time>
      </trkpt>
      <trkpt lat="42.53486" lon="2.02118">
        <ele>2175.68</ele>
        <time>2022-11-05T12:09:43.000Z</time>
      </trkpt>
      <trkpt lat="42.53485" lon="2.02118">
        <ele>2175.68</ele>
        <time>2022-11-05T12:10:09.000Z</time>
      </trkpt>
      <trkpt lat="42.53485" lon="2.02117">
        <ele>2175.68</ele>
        <time>2022-11-05T12:11:02.000Z</time>
      </trkpt>
      <trkpt lat="42.53488" lon="2.02117">
        <ele>2176.68</ele>
        <time>2022-11-05T12:11:11.831Z</time>
      </trkpt>
      <trkpt lat="42.53495" lon="2.02117">
        <ele>2177.68</ele>
        <time>2022-11-05T12:11:21.000Z</time>
      </trkpt>
      <trkpt lat="42.53497" lon="2.02112">
        <ele>2178.68</ele>
        <time>2022-11-05T12:11:30.651Z</time>
      </trkpt>
      <trkpt lat="42.535" lon="2.02101">
        <ele>2179.68</ele>
        <time>2022-11-05T12:11:40.000Z</time>
      </trkpt>
      <trkpt lat="42.53502" lon="2.02092">
        <ele>2179.68</ele>
        <time>2022-11-05T12:11:50.000Z</time>
      </trkpt>
      <trkpt lat="42.53505" lon="2.02082">
        <ele>2181.68</ele>
        <time>2022-11-05T12:11:59.491Z</time>
      </trkpt>
      <trkpt lat="42.53508" lon="2.02072">
        <ele>2182.68</ele>
        <time>2022-11-05T12:12:09.000Z</time>
      </trkpt>
      <trkpt lat="42.53511" lon="2.02062">
        <ele>2182.68</ele>
        <time>2022-11-05T12:12:19.000Z</time>
      </trkpt>
      <trkpt lat="42.53514" lon="2.02053">
        <ele>2184.62</ele>
        <time>2022-11-05T12:12:29.000Z</time>
      </trkpt>
      <trkpt lat="42.53518" lon="2.02045">
        <ele>2185.68</ele>
        <time>2022-11-05T12:12:38.470Z</time>
      </trkpt>
      <trkpt lat="42.5352" lon="2.02036">
        <ele>2186.68</ele>
        <time>2022-11-05T12:12:49.000Z</time>
      </trkpt>
      <trkpt lat="42.53523" lon="2.02028">
        <ele>2187.68</ele>
        <time>2022-11-05T12:12:59.000Z</time>
      </trkpt>
      <trkpt lat="42.53527" lon="2.02018">
        <ele>2187.68</ele>
        <time>2022-11-05T12:13:09.000Z</time>
      </trkpt>
      <trkpt lat="42.5353" lon="2.02008">
        <ele>2188.68</ele>
        <time>2022-11-05T12:13:18.670Z</time>
      </trkpt>
      <trkpt lat="42.53532" lon="2.02001">
        <ele>2189.68</ele>
        <time>2022-11-05T12:13:28.000Z</time>
      </trkpt>
      <trkpt lat="42.53536" lon="2.01993">
        <ele>2190.68</ele>
        <time>2022-11-05T12:13:38.000Z</time>
      </trkpt>
      <trkpt lat="42.53539" lon="2.01986">
        <ele>2191.68</ele>
        <time>2022-11-05T12:13:47.651Z</time>
      </trkpt>
      <trkpt lat="42.53542" lon="2.01979">
        <ele>2192.68</ele>
        <time>2022-11-05T12:13:56.851Z</time>
      </trkpt>
      <trkpt lat="42.53545" lon="2.01971">
        <ele>2193.62</ele>
        <time>2022-11-05T12:14:06.000Z</time>
      </trkpt>
      <trkpt lat="42.53546" lon="2.01964">
        <ele>2192.74</ele>
        <time>2022-11-05T12:14:16.000Z</time>
      </trkpt>
      <trkpt lat="42.53547" lon="2.01956">
        <ele>2193.68</ele>
        <time>2022-11-05T12:14:25.511Z</time>
      </trkpt>
      <trkpt lat="42.53547" lon="2.01952">
        <ele>2194.68</ele>
        <time>2022-11-05T12:14:34.871Z</time>
      </trkpt>
      <trkpt lat="42.53548" lon="2.01945">
        <ele>2196.62</ele>
        <time>2022-11-05T12:14:44.491Z</time>
      </trkpt>
      <trkpt lat="42.5355" lon="2.01939">
        <ele>2198.68</ele>
        <time>2022-11-05T12:14:54.000Z</time>
      </trkpt>
      <trkpt lat="42.53552" lon="2.01932">
        <ele>2201.62</ele>
        <time>2022-11-05T12:15:04.000Z</time>
      </trkpt>
      <trkpt lat="42.53553" lon="2.0192">
        <ele>2201.68</ele>
        <time>2022-11-05T12:15:14.000Z</time>
      </trkpt>
      <trkpt lat="42.53553" lon="2.0191">
        <ele>2202.68</ele>
        <time>2022-11-05T12:15:24.000Z</time>
      </trkpt>
      <trkpt lat="42.53551" lon="2.01899">
        <ele>2203.68</ele>
        <time>2022-11-05T12:15:33.730Z</time>
      </trkpt>
      <trkpt lat="42.5355" lon="2.01889">
        <ele>2204.68</ele>
        <time>2022-11-05T12:15:42.791Z</time>
      </trkpt>
      <trkpt lat="42.53548" lon="2.01878">
        <ele>2204.68</ele>
        <time>2022-11-05T12:15:51.970Z</time>
      </trkpt>
      <trkpt lat="42.53547" lon="2.01868">
        <ele>2204.74</ele>
        <time>2022-11-05T12:16:02.000Z</time>
      </trkpt>
      <trkpt lat="42.53547" lon="2.01855">
        <ele>2204.68</ele>
        <time>2022-11-05T12:16:11.431Z</time>
      </trkpt>
      <trkpt lat="42.53545" lon="2.0185">
        <ele>2204.68</ele>
        <time>2022-11-05T12:16:21.000Z</time>
      </trkpt>
      <trkpt lat="42.53545" lon="2.01848">
        <ele>2203.74</ele>
        <time>2022-11-05T12:16:31.000Z</time>
      </trkpt>
      <trkpt lat="42.5354" lon="2.0184">
        <ele>2203.68</ele>
        <time>2022-11-05T12:16:41.000Z</time>
      </trkpt>
      <trkpt lat="42.53538" lon="2.0184">
        <ele>2202.68</ele>
        <time>2022-11-05T12:16:51.000Z</time>
      </trkpt>
      <trkpt lat="42.53538" lon="2.01838">
        <ele>2203.67</ele>
        <time>2022-11-05T12:17:01.000Z</time>
      </trkpt>
      <trkpt lat="42.53536" lon="2.01835">
        <ele>2205.68</ele>
        <time>2022-11-05T12:17:11.000Z</time>
      </trkpt>
      <trkpt lat="42.53534" lon="2.01833">
        <ele>2204.74</ele>
        <time>2022-11-05T12:17:26.000Z</time>
      </trkpt>
      <trkpt lat="42.5353" lon="2.01833">
        <ele>2202.74</ele>
        <time>2022-11-05T12:17:36.000Z</time>
      </trkpt>
      <trkpt lat="42.5353" lon="2.01836">
        <ele>2201.68</ele>
        <time>2022-11-05T12:17:46.000Z</time>
      </trkpt>
      <trkpt lat="42.53528" lon="2.01835">
        <ele>2202.68</ele>
        <time>2022-11-05T12:33:10.000Z</time>
      </trkpt>
      <trkpt lat="42.53527" lon="2.01836">
        <ele>2202.68</ele>
        <time>2022-11-05T12:34:07.000Z</time>
      </trkpt>
      <trkpt lat="42.53526" lon="2.01836">
        <ele>2202.68</ele>
        <time>2022-11-05T12:34:17.000Z</time>
      </trkpt>
      <trkpt lat="42.53526" lon="2.01837">
        <ele>2201.74</ele>
        <time>2022-11-05T12:35:21.000Z</time>
      </trkpt>
      <trkpt lat="42.53527" lon="2.01838">
        <ele>2201.43</ele>
        <time>2022-11-05T12:35:50.000Z</time>
      </trkpt>
      <trkpt lat="42.53528" lon="2.01837">
        <ele>2202.68</ele>
        <time>2022-11-05T12:36:00.000Z</time>
      </trkpt>
      <trkpt lat="42.53529" lon="2.01837">
        <ele>2203.62</ele>
        <time>2022-11-05T12:36:16.231Z</time>
      </trkpt>
      <trkpt lat="42.53534" lon="2.01835">
        <ele>2201.68</ele>
        <time>2022-11-05T12:36:27.000Z</time>
      </trkpt>
      <trkpt lat="42.53541" lon="2.01829">
        <ele>2203.62</ele>
        <time>2022-11-05T12:36:36.571Z</time>
      </trkpt>
      <trkpt lat="42.53543" lon="2.01817">
        <ele>2204.68</ele>
        <time>2022-11-05T12:36:47.000Z</time>
      </trkpt>
      <trkpt lat="42.53546" lon="2.01803">
        <ele>2205.68</ele>
        <time>2022-11-05T12:36:57.000Z</time>
      </trkpt>
      <trkpt lat="42.53547" lon="2.01789">
        <ele>2206.68</ele>
        <time>2022-11-05T12:37:07.000Z</time>
      </trkpt>
      <trkpt lat="42.53546" lon="2.01776">
        <ele>2207.61</ele>
        <time>2022-11-05T12:37:16.654Z</time>
      </trkpt>
      <trkpt lat="42.53548" lon="2.01773">
        <ele>2207.68</ele>
        <time>2022-11-05T12:37:26.000Z</time>
      </trkpt>
      <trkpt lat="42.53554" lon="2.01764">
        <ele>2206.74</ele>
        <time>2022-11-05T12:37:36.000Z</time>
      </trkpt>
      <trkpt lat="42.53559" lon="2.01759">
        <ele>2204.74</ele>
        <time>2022-11-05T12:37:46.000Z</time>
      </trkpt>
      <trkpt lat="42.53565" lon="2.01753">
        <ele>2204.68</ele>
        <time>2022-11-05T12:37:56.000Z</time>
      </trkpt>
      <trkpt lat="42.53572" lon="2.01746">
        <ele>2205.43</ele>
        <time>2022-11-05T12:38:06.000Z</time>
      </trkpt>
      <trkpt lat="42.53579" lon="2.01741">
        <ele>2206.66</ele>
        <time>2022-11-05T12:38:16.000Z</time>
      </trkpt>
      <trkpt lat="42.53589" lon="2.01732">
        <ele>2206.69</ele>
        <time>2022-11-05T12:38:26.001Z</time>
      </trkpt>
      <trkpt lat="42.53594" lon="2.01725">
        <ele>2207.68</ele>
        <time>2022-11-05T12:38:35.481Z</time>
      </trkpt>
      <trkpt lat="42.53599" lon="2.01717">
        <ele>2207.68</ele>
        <time>2022-11-05T12:38:44.921Z</time>
      </trkpt>
      <trkpt lat="42.53606" lon="2.01706">
        <ele>2207.68</ele>
        <time>2022-11-05T12:38:55.000Z</time>
      </trkpt>
      <trkpt lat="42.53613" lon="2.01694">
        <ele>2207.67</ele>
        <time>2022-11-05T12:39:05.000Z</time>
      </trkpt>
      <trkpt lat="42.5362" lon="2.01688">
        <ele>2207.93</ele>
        <time>2022-11-05T12:39:15.000Z</time>
      </trkpt>
      <trkpt lat="42.53626" lon="2.01679">
        <ele>2207.68</ele>
        <time>2022-11-05T12:39:24.828Z</time>
      </trkpt>
      <trkpt lat="42.5363" lon="2.01674">
        <ele>2208.68</ele>
        <time>2022-11-05T12:39:34.000Z</time>
      </trkpt>
      <trkpt lat="42.5363" lon="2.01672">
        <ele>2205.68</ele>
        <time>2022-11-05T12:39:44.000Z</time>
      </trkpt>
      <trkpt lat="42.53632" lon="2.0167">
        <ele>2205.68</ele>
        <time>2022-11-05T12:39:53.582Z</time>
      </trkpt>
      <trkpt lat="42.53633" lon="2.01668">
        <ele>2204.68</ele>
        <time>2022-11-05T12:40:04.000Z</time>
      </trkpt>
      <trkpt lat="42.53639" lon="2.01663">
        <ele>2205.61</ele>
        <time>2022-11-05T12:40:14.000Z</time>
      </trkpt>
      <trkpt lat="42.53646" lon="2.01658">
        <ele>2203.74</ele>
        <time>2022-11-05T12:40:23.001Z</time>
      </trkpt>
      <trkpt lat="42.53647" lon="2.01657">
        <ele>2202.68</ele>
        <time>2022-11-05T12:40:46.000Z</time>
      </trkpt>
      <trkpt lat="42.53647" lon="2.01656">
        <ele>2202.68</ele>
        <time>2022-11-05T12:40:56.000Z</time>
      </trkpt>
      <trkpt lat="42.53647" lon="2.01654">
        <ele>2201.69</ele>
        <time>2022-11-05T12:41:06.000Z</time>
      </trkpt>
      <trkpt lat="42.53646" lon="2.01655">
        <ele>2199.93</ele>
        <time>2022-11-05T12:41:23.000Z</time>
      </trkpt>
      <trkpt lat="42.53641" lon="2.01653">
        <ele>2200.68</ele>
        <time>2022-11-05T12:41:34.000Z</time>
      </trkpt>
      <trkpt lat="42.53643" lon="2.01653">
        <ele>2201.68</ele>
        <time>2022-11-05T12:41:44.000Z</time>
      </trkpt>
      <trkpt lat="42.53647" lon="2.01652">
        <ele>2201.68</ele>
        <time>2022-11-05T12:41:54.000Z</time>
      </trkpt>
      <trkpt lat="42.53645" lon="2.01654">
        <ele>2203.42</ele>
        <time>2022-11-05T12:42:04.000Z</time>
      </trkpt>
      <trkpt lat="42.53637" lon="2.01653">
        <ele>2202.68</ele>
        <time>2022-11-05T12:42:14.000Z</time>
      </trkpt>
      <trkpt lat="42.53639" lon="2.01651">
        <ele>2202.68</ele>
        <time>2022-11-05T12:42:23.442Z</time>
      </trkpt>
      <trkpt lat="42.53643" lon="2.0165">
        <ele>2201.74</ele>
        <time>2022-11-05T12:42:33.000Z</time>
      </trkpt>
      <trkpt lat="42.53646" lon="2.01653">
        <ele>2201.68</ele>
        <time>2022-11-05T12:42:43.000Z</time>
      </trkpt>
      <trkpt lat="42.5364" lon="2.0164">
        <ele>2201.43</ele>
        <time>2022-11-05T12:42:53.000Z</time>
      </trkpt>
      <trkpt lat="42.5363" lon="2.01631">
        <ele>2203.67</ele>
        <time>2022-11-05T12:43:03.000Z</time>
      </trkpt>
      <trkpt lat="42.5362" lon="2.01628">
        <ele>2206.43</ele>
        <time>2022-11-05T12:43:13.000Z</time>
      </trkpt>
      <trkpt lat="42.5361" lon="2.01631">
        <ele>2205.68</ele>
        <time>2022-11-05T12:43:23.000Z</time>
      </trkpt>
      <trkpt lat="42.53602" lon="2.01629">
        <ele>2204.93</ele>
        <time>2022-11-05T12:43:33.000Z</time>
      </trkpt>
      <trkpt lat="42.53592" lon="2.01627">
        <ele>2205.49</ele>
        <time>2022-11-05T12:43:43.000Z</time>
      </trkpt>
      <trkpt lat="42.53584" lon="2.01624">
        <ele>2206.44</ele>
        <time>2022-11-05T12:43:53.000Z</time>
      </trkpt>
      <trkpt lat="42.53575" lon="2.01622">
        <ele>2207.67</ele>
        <time>2022-11-05T12:44:03.000Z</time>
      </trkpt>
      <trkpt lat="42.53569" lon="2.01615">
        <ele>2209.67</ele>
        <time>2022-11-05T12:44:13.000Z</time>
      </trkpt>
      <trkpt lat="42.53561" lon="2.01608">
        <ele>2208.69</ele>
        <time>2022-11-05T12:44:23.000Z</time>
      </trkpt>
      <trkpt lat="42.53551" lon="2.01605">
        <ele>2209.42</ele>
        <time>2022-11-05T12:44:33.000Z</time>
      </trkpt>
      <trkpt lat="42.53546" lon="2.01596">
        <ele>2210.91</ele>
        <time>2022-11-05T12:44:43.000Z</time>
      </trkpt>
      <trkpt lat="42.53548" lon="2.01589">
        <ele>2209.67</ele>
        <time>2022-11-05T12:44:53.000Z</time>
      </trkpt>
      <trkpt lat="42.53547" lon="2.0158">
        <ele>2211.64</ele>
        <time>2022-11-05T12:45:03.000Z</time>
      </trkpt>
      <trkpt lat="42.53548" lon="2.0157">
        <ele>2212.67</ele>
        <time>2022-11-05T12:45:13.000Z</time>
      </trkpt>
      <trkpt lat="42.53548" lon="2.01561">
        <ele>2214.6</ele>
        <time>2022-11-05T12:45:23.000Z</time>
      </trkpt>
      <trkpt lat="42.53551" lon="2.01555">
        <ele>2214.68</ele>
        <time>2022-11-05T12:45:33.000Z</time>
      </trkpt>
      <trkpt lat="42.53555" lon="2.0155">
        <ele>2214.74</ele>
        <time>2022-11-05T12:45:43.000Z</time>
      </trkpt>
      <trkpt lat="42.53557" lon="2.01551">
        <ele>2216.67</ele>
        <time>2022-11-05T12:45:53.000Z</time>
      </trkpt>
      <trkpt lat="42.53556" lon="2.01549">
        <ele>2217.9</ele>
        <time>2022-11-05T12:46:43.000Z</time>
      </trkpt>
      <trkpt lat="42.53553" lon="2.01545">
        <ele>2218.72</ele>
        <time>2022-11-05T12:46:53.000Z</time>
      </trkpt>
      <trkpt lat="42.53552" lon="2.01545">
        <ele>2220.66</ele>
        <time>2022-11-05T12:50:08.872Z</time>
      </trkpt>
      <trkpt lat="42.53552" lon="2.01547">
        <ele>2219.67</ele>
        <time>2022-11-05T12:50:33.000Z</time>
      </trkpt>
      <trkpt lat="42.53551" lon="2.01549">
        <ele>2219.67</ele>
        <time>2022-11-05T12:50:43.000Z</time>
      </trkpt>
      <trkpt lat="42.5355" lon="2.0155">
        <ele>2219.67</ele>
        <time>2022-11-05T12:51:03.000Z</time>
      </trkpt>
      <trkpt lat="42.53548" lon="2.01557">
        <ele>2217.92</ele>
        <time>2022-11-05T12:51:13.000Z</time>
      </trkpt>
      <trkpt lat="42.53542" lon="2.01567">
        <ele>2216.69</ele>
        <time>2022-11-05T12:51:22.574Z</time>
      </trkpt>
      <trkpt lat="42.53533" lon="2.01566">
        <ele>2215.67</ele>
        <time>2022-11-05T12:51:33.000Z</time>
      </trkpt>
      <trkpt lat="42.5353" lon="2.01556">
        <ele>2214.69</ele>
        <time>2022-11-05T12:51:43.000Z</time>
      </trkpt>
      <trkpt lat="42.53528" lon="2.0155">
        <ele>2215.67</ele>
        <time>2022-11-05T12:51:53.000Z</time>
      </trkpt>
      <trkpt lat="42.53529" lon="2.0155">
        <ele>2214.92</ele>
        <time>2022-11-05T12:52:08.000Z</time>
      </trkpt>
      <trkpt lat="42.53531" lon="2.01548">
        <ele>2214.67</ele>
        <time>2022-11-05T12:52:17.901Z</time>
      </trkpt>
      <trkpt lat="42.53534" lon="2.01547">
        <ele>2215.67</ele>
        <time>2022-11-05T12:52:27.000Z</time>
      </trkpt>
      <trkpt lat="42.53533" lon="2.01546">
        <ele>2214.73</ele>
        <time>2022-11-05T12:53:09.000Z</time>
      </trkpt>
      <trkpt lat="42.53533" lon="2.01536">
        <ele>2214.67</ele>
        <time>2022-11-05T12:53:18.173Z</time>
      </trkpt>
      <trkpt lat="42.5353" lon="2.01526">
        <ele>2215.67</ele>
        <time>2022-11-05T12:53:28.000Z</time>
      </trkpt>
      <trkpt lat="42.53521" lon="2.01515">
        <ele>2212.73</ele>
        <time>2022-11-05T12:53:38.000Z</time>
      </trkpt>
      <trkpt lat="42.53511" lon="2.01509">
        <ele>2210.92</ele>
        <time>2022-11-05T12:53:47.822Z</time>
      </trkpt>
      <trkpt lat="42.53503" lon="2.01499">
        <ele>2209.67</ele>
        <time>2022-11-05T12:53:56.866Z</time>
      </trkpt>
      <trkpt lat="42.53499" lon="2.01489">
        <ele>2208.67</ele>
        <time>2022-11-05T12:54:07.000Z</time>
      </trkpt>
      <trkpt lat="42.53494" lon="2.01478">
        <ele>2208.67</ele>
        <time>2022-11-05T12:54:16.232Z</time>
      </trkpt>
      <trkpt lat="42.53488" lon="2.01466">
        <ele>2205.92</ele>
        <time>2022-11-05T12:54:26.000Z</time>
      </trkpt>
      <trkpt lat="42.53488" lon="2.01452">
        <ele>2205.44</ele>
        <time>2022-11-05T12:54:35.382Z</time>
      </trkpt>
      <trkpt lat="42.5349" lon="2.01441">
        <ele>2206.67</ele>
        <time>2022-11-05T12:54:45.000Z</time>
      </trkpt>
      <trkpt lat="42.53496" lon="2.0143">
        <ele>2207.67</ele>
        <time>2022-11-05T12:54:54.001Z</time>
      </trkpt>
      <trkpt lat="42.53494" lon="2.01419">
        <ele>2203.67</ele>
        <time>2022-11-05T12:55:04.020Z</time>
      </trkpt>
      <trkpt lat="42.53488" lon="2.01409">
        <ele>2203.86</ele>
        <time>2022-11-05T12:55:13.492Z</time>
      </trkpt>
      <trkpt lat="42.53485" lon="2.01399">
        <ele>2205.67</ele>
        <time>2022-11-05T12:55:24.000Z</time>
      </trkpt>
      <trkpt lat="42.53485" lon="2.01387">
        <ele>2205.67</ele>
        <time>2022-11-05T12:55:33.472Z</time>
      </trkpt>
      <trkpt lat="42.53487" lon="2.01382">
        <ele>2206.67</ele>
        <time>2022-11-05T12:55:44.000Z</time>
      </trkpt>
      <trkpt lat="42.5349" lon="2.01369">
        <ele>2206.67</ele>
        <time>2022-11-05T12:55:53.611Z</time>
      </trkpt>
      <trkpt lat="42.53492" lon="2.01363">
        <ele>2206.67</ele>
        <time>2022-11-05T12:56:03.000Z</time>
      </trkpt>
      <trkpt lat="42.53495" lon="2.01353">
        <ele>2207.67</ele>
        <time>2022-11-05T12:56:12.591Z</time>
      </trkpt>
      <trkpt lat="42.53493" lon="2.01342">
        <ele>2206.86</ele>
        <time>2022-11-05T12:56:22.331Z</time>
      </trkpt>
      <trkpt lat="42.53487" lon="2.01332">
        <ele>2205.67</ele>
        <time>2022-11-05T12:56:31.512Z</time>
      </trkpt>
      <trkpt lat="42.53488" lon="2.01323">
        <ele>2206.67</ele>
        <time>2022-11-05T12:56:42.000Z</time>
      </trkpt>
      <trkpt lat="42.53489" lon="2.01313">
        <ele>2207.67</ele>
        <time>2022-11-05T12:56:52.000Z</time>
      </trkpt>
      <trkpt lat="42.53493" lon="2.01303">
        <ele>2209.67</ele>
        <time>2022-11-05T12:57:02.000Z</time>
      </trkpt>
      <trkpt lat="42.53497" lon="2.01293">
        <ele>2210.67</ele>
        <time>2022-11-05T12:57:11.271Z</time>
      </trkpt>
      <trkpt lat="42.53504" lon="2.01284">
        <ele>2209.68</ele>
        <time>2022-11-05T12:57:20.291Z</time>
      </trkpt>
      <trkpt lat="42.53512" lon="2.01275">
        <ele>2209.67</ele>
        <time>2022-11-05T12:57:29.751Z</time>
      </trkpt>
      <trkpt lat="42.53518" lon="2.01265">
        <ele>2211.42</ele>
        <time>2022-11-05T12:57:40.000Z</time>
      </trkpt>
      <trkpt lat="42.53523" lon="2.01252">
        <ele>2211.71</ele>
        <time>2022-11-05T12:57:50.000Z</time>
      </trkpt>
      <trkpt lat="42.53526" lon="2.01238">
        <ele>2212.42</ele>
        <time>2022-11-05T12:58:00.000Z</time>
      </trkpt>
      <trkpt lat="42.53526" lon="2.01235">
        <ele>2210.68</ele>
        <time>2022-11-05T12:58:09.732Z</time>
      </trkpt>
      <trkpt lat="42.53529" lon="2.01226">
        <ele>2210.67</ele>
        <time>2022-11-05T12:58:20.000Z</time>
      </trkpt>
      <trkpt lat="42.53533" lon="2.01213">
        <ele>2210.86</ele>
        <time>2022-11-05T12:58:29.931Z</time>
      </trkpt>
      <trkpt lat="42.53535" lon="2.01203">
        <ele>2211.67</ele>
        <time>2022-11-05T12:58:39.000Z</time>
      </trkpt>
      <trkpt lat="42.53536" lon="2.0119">
        <ele>2211.67</ele>
        <time>2022-11-05T12:58:48.812Z</time>
      </trkpt>
      <trkpt lat="42.5354" lon="2.01179">
        <ele>2211.48</ele>
        <time>2022-11-05T12:58:59.000Z</time>
      </trkpt>
      <trkpt lat="42.53544" lon="2.01166">
        <ele>2210.66</ele>
        <time>2022-11-05T12:59:08.720Z</time>
      </trkpt>
      <trkpt lat="42.53547" lon="2.01155">
        <ele>2210.66</ele>
        <time>2022-11-05T12:59:19.000Z</time>
      </trkpt>
      <trkpt lat="42.53551" lon="2.01142">
        <ele>2209.67</ele>
        <time>2022-11-05T12:59:28.732Z</time>
      </trkpt>
      <trkpt lat="42.53555" lon="2.0113">
        <ele>2209.66</ele>
        <time>2022-11-05T12:59:39.000Z</time>
      </trkpt>
      <trkpt lat="42.53559" lon="2.01118">
        <ele>2208.67</ele>
        <time>2022-11-05T12:59:48.631Z</time>
      </trkpt>
      <trkpt lat="42.53564" lon="2.01106">
        <ele>2208.67</ele>
        <time>2022-11-05T12:59:58.341Z</time>
      </trkpt>
      <trkpt lat="42.53568" lon="2.01093">
        <ele>2207.42</ele>
        <time>2022-11-05T13:00:07.451Z</time>
      </trkpt>
      <trkpt lat="42.53572" lon="2.0108">
        <ele>2206.66</ele>
        <time>2022-11-05T13:00:18.000Z</time>
      </trkpt>
      <trkpt lat="42.53575" lon="2.01065">
        <ele>2203.91</ele>
        <time>2022-11-05T13:00:27.069Z</time>
      </trkpt>
      <trkpt lat="42.5358" lon="2.01055">
        <ele>2202.91</ele>
        <time>2022-11-05T13:00:37.000Z</time>
      </trkpt>
      <trkpt lat="42.53584" lon="2.01045">
        <ele>2201.9</ele>
        <time>2022-11-05T13:00:46.491Z</time>
      </trkpt>
      <trkpt lat="42.5359" lon="2.01036">
        <ele>2201.66</ele>
        <time>2022-11-05T13:00:56.000Z</time>
      </trkpt>
      <trkpt lat="42.53596" lon="2.01031">
        <ele>2201.66</ele>
        <time>2022-11-05T13:01:07.000Z</time>
      </trkpt>
      <trkpt lat="42.53606" lon="2.01022">
        <ele>2199.73</ele>
        <time>2022-11-05T13:01:17.000Z</time>
      </trkpt>
      <trkpt lat="42.53607" lon="2.01012">
        <ele>2197.66</ele>
        <time>2022-11-05T13:01:27.000Z</time>
      </trkpt>
      <trkpt lat="42.53607" lon="2.0101">
        <ele>2197.66</ele>
        <time>2022-11-05T13:01:37.000Z</time>
      </trkpt>
      <trkpt lat="42.53607" lon="2.01008">
        <ele>2195.67</ele>
        <time>2022-11-05T13:01:47.000Z</time>
      </trkpt>
      <trkpt lat="42.53607" lon="2.01006">
        <ele>2195.66</ele>
        <time>2022-11-05T13:02:07.000Z</time>
      </trkpt>
      <trkpt lat="42.53606" lon="2.01001">
        <ele>2194.66</ele>
        <time>2022-11-05T13:02:17.000Z</time>
      </trkpt>
      <trkpt lat="42.53607" lon="2.0099">
        <ele>2195.41</ele>
        <time>2022-11-05T13:02:26.532Z</time>
      </trkpt>
      <trkpt lat="42.53609" lon="2.00982">
        <ele>2194.66</ele>
        <time>2022-11-05T13:02:36.000Z</time>
      </trkpt>
      <trkpt lat="42.53607" lon="2.0098">
        <ele>2193.66</ele>
        <time>2022-11-05T13:02:46.000Z</time>
      </trkpt>
      <trkpt lat="42.53607" lon="2.00981">
        <ele>2193.65</ele>
        <time>2022-11-05T13:03:15.000Z</time>
      </trkpt>
      <trkpt lat="42.53607" lon="2.0098">
        <ele>2192.66</ele>
        <time>2022-11-05T13:03:27.000Z</time>
      </trkpt>
      <trkpt lat="42.53607" lon="2.00978">
        <ele>2191.91</ele>
        <time>2022-11-05T13:04:05.000Z</time>
      </trkpt>
      <trkpt lat="42.53607" lon="2.00977">
        <ele>2191.66</ele>
        <time>2022-11-05T13:04:17.000Z</time>
      </trkpt>
      <trkpt lat="42.53608" lon="2.00975">
        <ele>2190.67</ele>
        <time>2022-11-05T13:04:29.000Z</time>
      </trkpt>
      <trkpt lat="42.53608" lon="2.00973">
        <ele>2189.66</ele>
        <time>2022-11-05T13:04:39.000Z</time>
      </trkpt>
      <trkpt lat="42.53609" lon="2.00974">
        <ele>2191.65</ele>
        <time>2022-11-05T13:05:10.000Z</time>
      </trkpt>
      <trkpt lat="42.53608" lon="2.00973">
        <ele>2191.66</ele>
        <time>2022-11-05T13:05:36.000Z</time>
      </trkpt>
      <trkpt lat="42.53607" lon="2.00973">
        <ele>2190.72</ele>
        <time>2022-11-05T13:05:47.000Z</time>
      </trkpt>
      <trkpt lat="42.53607" lon="2.00975">
        <ele>2189.72</ele>
        <time>2022-11-05T13:06:05.000Z</time>
      </trkpt>
      <trkpt lat="42.53606" lon="2.00975">
        <ele>2190.66</ele>
        <time>2022-11-05T13:06:22.000Z</time>
      </trkpt>
      <trkpt lat="42.53607" lon="2.00974">
        <ele>2192.6</ele>
        <time>2022-11-05T13:07:02.000Z</time>
      </trkpt>
      <trkpt lat="42.5361" lon="2.00963">
        <ele>2194.65</ele>
        <time>2022-11-05T13:07:11.351Z</time>
      </trkpt>
      <trkpt lat="42.53609" lon="2.00954">
        <ele>2195.66</ele>
        <time>2022-11-05T13:07:20.611Z</time>
      </trkpt>
      <trkpt lat="42.53609" lon="2.00944">
        <ele>2196.46</ele>
        <time>2022-11-05T13:07:31.000Z</time>
      </trkpt>
      <trkpt lat="42.53609" lon="2.00934">
        <ele>2197.41</ele>
        <time>2022-11-05T13:07:41.000Z</time>
      </trkpt>
      <trkpt lat="42.53609" lon="2.00917">
        <ele>2196.66</ele>
        <time>2022-11-05T13:07:50.571Z</time>
      </trkpt>
      <trkpt lat="42.53608" lon="2.00911">
        <ele>2196.66</ele>
        <time>2022-11-05T13:08:00.000Z</time>
      </trkpt>
      <trkpt lat="42.53607" lon="2.00911">
        <ele>2194.67</ele>
        <time>2022-11-05T13:08:16.000Z</time>
      </trkpt>
      <trkpt lat="42.53606" lon="2.0091">
        <ele>2194.66</ele>
        <time>2022-11-05T13:08:26.000Z</time>
      </trkpt>
      <trkpt lat="42.53605" lon="2.00909">
        <ele>2194.66</ele>
        <time>2022-11-05T13:08:42.000Z</time>
      </trkpt>
      <trkpt lat="42.53605" lon="2.00909">
        <ele>2194.65</ele>
        <time>2022-11-05T13:09:24.000Z</time>
      </trkpt>
      <trkpt lat="42.53607" lon="2.00908">
        <ele>2193.91</ele>
        <time>2022-11-05T13:10:00.000Z</time>
      </trkpt>
      <trkpt lat="42.53607" lon="2.00907">
        <ele>2192.91</ele>
        <time>2022-11-05T13:10:48.000Z</time>
      </trkpt>
      <trkpt lat="42.53606" lon="2.00906">
        <ele>2191.66</ele>
        <time>2022-11-05T13:10:58.000Z</time>
      </trkpt>
      <trkpt lat="42.53606" lon="2.00907">
        <ele>2191.6</ele>
        <time>2022-11-05T13:11:17.000Z</time>
      </trkpt>
      <trkpt lat="42.53602" lon="2.00901">
        <ele>2193.6</ele>
        <time>2022-11-05T13:11:27.000Z</time>
      </trkpt>
      <trkpt lat="42.53597" lon="2.0089">
        <ele>2194.66</ele>
        <time>2022-11-05T13:11:36.312Z</time>
      </trkpt>
      <trkpt lat="42.53591" lon="2.00882">
        <ele>2193.66</ele>
        <time>2022-11-05T13:11:46.000Z</time>
      </trkpt>
      <trkpt lat="42.53583" lon="2.00877">
        <ele>2193.66</ele>
        <time>2022-11-05T13:11:57.000Z</time>
      </trkpt>
      <trkpt lat="42.53574" lon="2.00868">
        <ele>2195.41</ele>
        <time>2022-11-05T13:12:06.511Z</time>
      </trkpt>
      <trkpt lat="42.53566" lon="2.00862">
        <ele>2195.66</ele>
        <time>2022-11-05T13:12:15.952Z</time>
      </trkpt>
      <trkpt lat="42.5356" lon="2.00854">
        <ele>2192.91</ele>
        <time>2022-11-05T13:12:25.000Z</time>
      </trkpt>
      <trkpt lat="42.53553" lon="2.00843">
        <ele>2194.65</ele>
        <time>2022-11-05T13:12:35.000Z</time>
      </trkpt>
      <trkpt lat="42.53548" lon="2.00838">
        <ele>2192.72</ele>
        <time>2022-11-05T13:12:44.130Z</time>
      </trkpt>
      <trkpt lat="42.53542" lon="2.00828">
        <ele>2188.91</ele>
        <time>2022-11-05T13:12:54.000Z</time>
      </trkpt>
      <trkpt lat="42.53541" lon="2.00826">
        <ele>2188.66</ele>
        <time>2022-11-05T13:13:04.000Z</time>
      </trkpt>
      <trkpt lat="42.5354" lon="2.00825">
        <ele>2187.67</ele>
        <time>2022-11-05T13:13:16.000Z</time>
      </trkpt>
      <trkpt lat="42.53532" lon="2.00821">
        <ele>2186.6</ele>
        <time>2022-11-05T13:13:26.000Z</time>
      </trkpt>
      <trkpt lat="42.53521" lon="2.0082">
        <ele>2186.66</ele>
        <time>2022-11-05T13:13:36.000Z</time>
      </trkpt>
      <trkpt lat="42.53513" lon="2.00821">
        <ele>2185.66</ele>
        <time>2022-11-05T13:13:46.000Z</time>
      </trkpt>
      <trkpt lat="42.53509" lon="2.00817">
        <ele>2183.66</ele>
        <time>2022-11-05T13:13:56.000Z</time>
      </trkpt>
      <trkpt lat="42.53507" lon="2.00813">
        <ele>2182.67</ele>
        <time>2022-11-05T13:14:06.000Z</time>
      </trkpt>
      <trkpt lat="42.53498" lon="2.00809">
        <ele>2178.74</ele>
        <time>2022-11-05T13:14:16.000Z</time>
      </trkpt>
      <trkpt lat="42.5349" lon="2.00806">
        <ele>2175.86</ele>
        <time>2022-11-05T13:14:26.000Z</time>
      </trkpt>
      <trkpt lat="42.53481" lon="2.00805">
        <ele>2173.67</ele>
        <time>2022-11-05T13:14:36.000Z</time>
      </trkpt>
      <trkpt lat="42.53473" lon="2.00805">
        <ele>2172.66</ele>
        <time>2022-11-05T13:14:46.000Z</time>
      </trkpt>
      <trkpt lat="42.53466" lon="2.00808">
        <ele>2172.91</ele>
        <time>2022-11-05T13:14:56.000Z</time>
      </trkpt>
      <trkpt lat="42.53458" lon="2.00813">
        <ele>2168.92</ele>
        <time>2022-11-05T13:15:06.000Z</time>
      </trkpt>
      <trkpt lat="42.53449" lon="2.00809">
        <ele>2166.59</ele>
        <time>2022-11-05T13:15:16.000Z</time>
      </trkpt>
      <trkpt lat="42.53444" lon="2.00798">
        <ele>2167.9</ele>
        <time>2022-11-05T13:15:26.000Z</time>
      </trkpt>
      <trkpt lat="42.53441" lon="2.00784">
        <ele>2169.65</ele>
        <time>2022-11-05T13:15:36.000Z</time>
      </trkpt>
      <trkpt lat="42.53444" lon="2.00771">
        <ele>2167.91</ele>
        <time>2022-11-05T13:15:46.000Z</time>
      </trkpt>
      <trkpt lat="42.53444" lon="2.00761">
        <ele>2166.66</ele>
        <time>2022-11-05T13:15:56.000Z</time>
      </trkpt>
      <trkpt lat="42.53441" lon="2.0075">
        <ele>2165.66</ele>
        <time>2022-11-05T13:16:06.000Z</time>
      </trkpt>
      <trkpt lat="42.53436" lon="2.00743">
        <ele>2165.65</ele>
        <time>2022-11-05T13:16:16.000Z</time>
      </trkpt>
      <trkpt lat="42.53435" lon="2.0073">
        <ele>2162.66</ele>
        <time>2022-11-05T13:16:26.000Z</time>
      </trkpt>
      <trkpt lat="42.53433" lon="2.00728">
        <ele>2160.68</ele>
        <time>2022-11-05T13:16:36.000Z</time>
      </trkpt>
      <trkpt lat="42.53433" lon="2.00726">
        <ele>2159.65</ele>
        <time>2022-11-05T13:16:46.000Z</time>
      </trkpt>
      <trkpt lat="42.53433" lon="2.00723">
        <ele>2157.65</ele>
        <time>2022-11-05T13:16:56.000Z</time>
      </trkpt>
      <trkpt lat="42.5343" lon="2.00725">
        <ele>2157.65</ele>
        <time>2022-11-05T13:17:06.000Z</time>
      </trkpt>
      <trkpt lat="42.53429" lon="2.00725">
        <ele>2158.59</ele>
        <time>2022-11-05T13:18:12.000Z</time>
      </trkpt>
      <trkpt lat="42.53426" lon="2.00724">
        <ele>2158.59</ele>
        <time>2022-11-05T13:18:22.000Z</time>
      </trkpt>
      <trkpt lat="42.53424" lon="2.00724">
        <ele>2158.65</ele>
        <time>2022-11-05T13:18:32.000Z</time>
      </trkpt>
      <trkpt lat="42.53423" lon="2.00725">
        <ele>2159.65</ele>
        <time>2022-11-05T13:18:49.000Z</time>
      </trkpt>
      <trkpt lat="42.53419" lon="2.00725">
        <ele>2159.65</ele>
        <time>2022-11-05T13:18:59.000Z</time>
      </trkpt>
      <trkpt lat="42.53418" lon="2.00727">
        <ele>2159.65</ele>
        <time>2022-11-05T13:19:09.000Z</time>
      </trkpt>
      <trkpt lat="42.53416" lon="2.00729">
        <ele>2159.65</ele>
        <time>2022-11-05T13:19:19.000Z</time>
      </trkpt>
      <trkpt lat="42.53415" lon="2.00728">
        <ele>2158.67</ele>
        <time>2022-11-05T13:20:28.000Z</time>
      </trkpt>
      <trkpt lat="42.53416" lon="2.00728">
        <ele>2158.65</ele>
        <time>2022-11-05T13:20:45.000Z</time>
      </trkpt>
      <trkpt lat="42.53425" lon="2.00727">
        <ele>2159.65</ele>
        <time>2022-11-05T13:20:55.000Z</time>
      </trkpt>
      <trkpt lat="42.53432" lon="2.0072">
        <ele>2161.4</ele>
        <time>2022-11-05T13:21:05.000Z</time>
      </trkpt>
      <trkpt lat="42.53436" lon="2.00712">
        <ele>2160.9</ele>
        <time>2022-11-05T13:21:15.000Z</time>
      </trkpt>
      <trkpt lat="42.53439" lon="2.00702">
        <ele>2159.65</ele>
        <time>2022-11-05T13:21:24.351Z</time>
      </trkpt>
      <trkpt lat="42.53437" lon="2.0069">
        <ele>2157.64</ele>
        <time>2022-11-05T13:21:33.591Z</time>
      </trkpt>
      <trkpt lat="42.53436" lon="2.00679">
        <ele>2155.66</ele>
        <time>2022-11-05T13:21:42.731Z</time>
      </trkpt>
      <trkpt lat="42.53435" lon="2.00665">
        <ele>2154.65</ele>
        <time>2022-11-05T13:21:52.000Z</time>
      </trkpt>
      <trkpt lat="42.53429" lon="2.00651">
        <ele>2156.65</ele>
        <time>2022-11-05T13:22:02.000Z</time>
      </trkpt>
      <trkpt lat="42.53426" lon="2.00641">
        <ele>2156.9</ele>
        <time>2022-11-05T13:22:11.990Z</time>
      </trkpt>
      <trkpt lat="42.53424" lon="2.00631">
        <ele>2157.65</ele>
        <time>2022-11-05T13:22:22.000Z</time>
      </trkpt>
      <trkpt lat="42.53425" lon="2.00612">
        <ele>2155.65</ele>
        <time>2022-11-05T13:22:32.010Z</time>
      </trkpt>
      <trkpt lat="42.53425" lon="2.00599">
        <ele>2157.59</ele>
        <time>2022-11-05T13:22:41.431Z</time>
      </trkpt>
      <trkpt lat="42.53425" lon="2.00584">
        <ele>2158.65</ele>
        <time>2022-11-05T13:22:50.911Z</time>
      </trkpt>
      <trkpt lat="42.53423" lon="2.00574">
        <ele>2158.65</ele>
        <time>2022-11-05T13:23:00.000Z</time>
      </trkpt>
      <trkpt lat="42.53418" lon="2.00557">
        <ele>2156.84</ele>
        <time>2022-11-05T13:23:09.530Z</time>
      </trkpt>
      <trkpt lat="42.53414" lon="2.00549">
        <ele>2156.9</ele>
        <time>2022-11-05T13:23:18.531Z</time>
      </trkpt>
      <trkpt lat="42.53407" lon="2.00539">
        <ele>2156.65</ele>
        <time>2022-11-05T13:23:27.720Z</time>
      </trkpt>
      <trkpt lat="42.53399" lon="2.00534">
        <ele>2155.65</ele>
        <time>2022-11-05T13:23:37.000Z</time>
      </trkpt>
      <trkpt lat="42.53388" lon="2.00528">
        <ele>2154.65</ele>
        <time>2022-11-05T13:23:46.372Z</time>
      </trkpt>
      <trkpt lat="42.53382" lon="2.00525">
        <ele>2154.63</ele>
        <time>2022-11-05T13:23:55.390Z</time>
      </trkpt>
      <trkpt lat="42.53376" lon="2.00515">
        <ele>2152.9</ele>
        <time>2022-11-05T13:24:05.000Z</time>
      </trkpt>
      <trkpt lat="42.53374" lon="2.00501">
        <ele>2151.65</ele>
        <time>2022-11-05T13:24:15.000Z</time>
      </trkpt>
      <trkpt lat="42.53366" lon="2.00483">
        <ele>2146.66</ele>
        <time>2022-11-05T13:24:24.510Z</time>
      </trkpt>
      <trkpt lat="42.53356" lon="2.00472">
        <ele>2145.69</ele>
        <time>2022-11-05T13:24:33.531Z</time>
      </trkpt>
      <trkpt lat="42.53349" lon="2.00463">
        <ele>2142.65</ele>
        <time>2022-11-05T13:24:42.852Z</time>
      </trkpt>
      <trkpt lat="42.5334" lon="2.00455">
        <ele>2144.4</ele>
        <time>2022-11-05T13:24:53.000Z</time>
      </trkpt>
      <trkpt lat="42.53333" lon="2.0045">
        <ele>2143.65</ele>
        <time>2022-11-05T13:25:02.331Z</time>
      </trkpt>
      <trkpt lat="42.53325" lon="2.00443">
        <ele>2143.65</ele>
        <time>2022-11-05T13:25:11.511Z</time>
      </trkpt>
      <trkpt lat="42.53317" lon="2.00436">
        <ele>2144.58</ele>
        <time>2022-11-05T13:25:21.000Z</time>
      </trkpt>
      <trkpt lat="42.5331" lon="2.00428">
        <ele>2144.71</ele>
        <time>2022-11-05T13:25:31.000Z</time>
      </trkpt>
      <trkpt lat="42.53305" lon="2.00413">
        <ele>2143.64</ele>
        <time>2022-11-05T13:25:40.490Z</time>
      </trkpt>
      <trkpt lat="42.53299" lon="2.004">
        <ele>2142.64</ele>
        <time>2022-11-05T13:25:51.000Z</time>
      </trkpt>
      <trkpt lat="42.5329" lon="2.0039">
        <ele>2139.9</ele>
        <time>2022-11-05T13:26:00.271Z</time>
      </trkpt>
      <trkpt lat="42.53279" lon="2.00383">
        <ele>2138.89</ele>
        <time>2022-11-05T13:26:10.000Z</time>
      </trkpt>
      <trkpt lat="42.53269" lon="2.00374">
        <ele>2139.39</ele>
        <time>2022-11-05T13:26:19.451Z</time>
      </trkpt>
      <trkpt lat="42.5326" lon="2.00364">
        <ele>2138.64</ele>
        <time>2022-11-05T13:26:28.631Z</time>
      </trkpt>
      <trkpt lat="42.53252" lon="2.00358">
        <ele>2138.64</ele>
        <time>2022-11-05T13:26:38.000Z</time>
      </trkpt>
      <trkpt lat="42.53244" lon="2.00348">
        <ele>2139.64</ele>
        <time>2022-11-05T13:26:47.011Z</time>
      </trkpt>
      <trkpt lat="42.53237" lon="2.00338">
        <ele>2140.64</ele>
        <time>2022-11-05T13:26:57.000Z</time>
      </trkpt>
      <trkpt lat="42.53227" lon="2.00329">
        <ele>2138.7</ele>
        <time>2022-11-05T13:27:06.871Z</time>
      </trkpt>
      <trkpt lat="42.53218" lon="2.00322">
        <ele>2137.64</ele>
        <time>2022-11-05T13:27:16.411Z</time>
      </trkpt>
      <trkpt lat="42.53211" lon="2.00317">
        <ele>2137.64</ele>
        <time>2022-11-05T13:27:25.811Z</time>
      </trkpt>
      <trkpt lat="42.53203" lon="2.00307">
        <ele>2138.64</ele>
        <time>2022-11-05T13:27:35.000Z</time>
      </trkpt>
      <trkpt lat="42.53196" lon="2.003">
        <ele>2137.64</ele>
        <time>2022-11-05T13:27:45.000Z</time>
      </trkpt>
      <trkpt lat="42.53185" lon="2.00291">
        <ele>2133.64</ele>
        <time>2022-11-05T13:27:54.311Z</time>
      </trkpt>
      <trkpt lat="42.53181" lon="2.00284">
        <ele>2133.64</ele>
        <time>2022-11-05T13:28:04.000Z</time>
      </trkpt>
      <trkpt lat="42.5317" lon="2.00274">
        <ele>2131.64</ele>
        <time>2022-11-05T13:28:13.731Z</time>
      </trkpt>
      <trkpt lat="42.53168" lon="2.00264">
        <ele>2130.64</ele>
        <time>2022-11-05T13:28:22.931Z</time>
      </trkpt>
      <trkpt lat="42.53164" lon="2.00247">
        <ele>2127.65</ele>
        <time>2022-11-05T13:28:32.000Z</time>
      </trkpt>
      <trkpt lat="42.53153" lon="2.00236">
        <ele>2127.62</ele>
        <time>2022-11-05T13:28:41.484Z</time>
      </trkpt>
      <trkpt lat="42.53147" lon="2.0023">
        <ele>2128.64</ele>
        <time>2022-11-05T13:28:50.591Z</time>
      </trkpt>
      <trkpt lat="42.53141" lon="2.0022">
        <ele>2128.64</ele>
        <time>2022-11-05T13:29:01.000Z</time>
      </trkpt>
      <trkpt lat="42.53134" lon="2.00207">
        <ele>2129.62</ele>
        <time>2022-11-05T13:29:10.580Z</time>
      </trkpt>
      <trkpt lat="42.53129" lon="2.00198">
        <ele>2130.64</ele>
        <time>2022-11-05T13:29:19.911Z</time>
      </trkpt>
      <trkpt lat="42.53122" lon="2.00188">
        <ele>2129.64</ele>
        <time>2022-11-05T13:29:31.000Z</time>
      </trkpt>
      <trkpt lat="42.53117" lon="2.00175">
        <ele>2130.63</ele>
        <time>2022-11-05T13:29:40.811Z</time>
      </trkpt>
      <trkpt lat="42.53112" lon="2.00164">
        <ele>2130.64</ele>
        <time>2022-11-05T13:29:49.831Z</time>
      </trkpt>
      <trkpt lat="42.53106" lon="2.00153">
        <ele>2129.39</ele>
        <time>2022-11-05T13:29:59.000Z</time>
      </trkpt>
      <trkpt lat="42.53097" lon="2.00142">
        <ele>2128.63</ele>
        <time>2022-11-05T13:30:09.000Z</time>
      </trkpt>
      <trkpt lat="42.53089" lon="2.00131">
        <ele>2127.7</ele>
        <time>2022-11-05T13:30:18.491Z</time>
      </trkpt>
      <trkpt lat="42.53084" lon="2.00117">
        <ele>2128.63</ele>
        <time>2022-11-05T13:30:29.000Z</time>
      </trkpt>
      <trkpt lat="42.53077" lon="2.00107">
        <ele>2128.63</ele>
        <time>2022-11-05T13:30:38.452Z</time>
      </trkpt>
      <trkpt lat="42.5307" lon="2.00095">
        <ele>2126.63</ele>
        <time>2022-11-05T13:30:47.531Z</time>
      </trkpt>
      <trkpt lat="42.53064" lon="2.00082">
        <ele>2124.95</ele>
        <time>2022-11-05T13:30:58.000Z</time>
      </trkpt>
      <trkpt lat="42.53055" lon="2.00068">
        <ele>2124.82</ele>
        <time>2022-11-05T13:31:07.791Z</time>
      </trkpt>
      <trkpt lat="42.53048" lon="2.00053">
        <ele>2123.69</ele>
        <time>2022-11-05T13:31:18.000Z</time>
      </trkpt>
      <trkpt lat="42.53041" lon="2.00043">
        <ele>2124.63</ele>
        <time>2022-11-05T13:31:27.411Z</time>
      </trkpt>
      <trkpt lat="42.53036" lon="2.00032">
        <ele>2126.63</ele>
        <time>2022-11-05T13:31:36.714Z</time>
      </trkpt>
      <trkpt lat="42.5303" lon="2.00022">
        <ele>2129.32</ele>
        <time>2022-11-05T13:31:47.000Z</time>
      </trkpt>
      <trkpt lat="42.53023" lon="2.00012">
        <ele>2130.63</ele>
        <time>2022-11-05T13:31:56.791Z</time>
      </trkpt>
      <trkpt lat="42.53019" lon="2.00001">
        <ele>2130.63</ele>
        <time>2022-11-05T13:32:06.000Z</time>
      </trkpt>
      <trkpt lat="42.53013" lon="1.99987">
        <ele>2131.63</ele>
        <time>2022-11-05T13:32:16.000Z</time>
      </trkpt>
      <trkpt lat="42.53006" lon="1.99971">
        <ele>2130.65</ele>
        <time>2022-11-05T13:32:25.451Z</time>
      </trkpt>
      <trkpt lat="42.52999" lon="1.9996">
        <ele>2130.62</ele>
        <time>2022-11-05T13:32:34.531Z</time>
      </trkpt>
      <trkpt lat="42.52996" lon="1.99949">
        <ele>2131.63</ele>
        <time>2022-11-05T13:32:45.000Z</time>
      </trkpt>
      <trkpt lat="42.52987" lon="1.9993">
        <ele>2129.63</ele>
        <time>2022-11-05T13:32:54.731Z</time>
      </trkpt>
      <trkpt lat="42.5298" lon="1.99917">
        <ele>2128.69</ele>
        <time>2022-11-05T13:33:05.000Z</time>
      </trkpt>
      <trkpt lat="42.52972" lon="1.999">
        <ele>2127.63</ele>
        <time>2022-11-05T13:33:14.611Z</time>
      </trkpt>
      <trkpt lat="42.52966" lon="1.99886">
        <ele>2126.63</ele>
        <time>2022-11-05T13:33:23.871Z</time>
      </trkpt>
      <trkpt lat="42.52962" lon="1.99875">
        <ele>2124.69</ele>
        <time>2022-11-05T13:33:33.000Z</time>
      </trkpt>
      <trkpt lat="42.52955" lon="1.9986">
        <ele>2124.62</ele>
        <time>2022-11-05T13:33:42.632Z</time>
      </trkpt>
      <trkpt lat="42.52949" lon="1.99846">
        <ele>2123.63</ele>
        <time>2022-11-05T13:33:51.970Z</time>
      </trkpt>
      <trkpt lat="42.52945" lon="1.99834">
        <ele>2122.63</ele>
        <time>2022-11-05T13:34:01.000Z</time>
      </trkpt>
      <trkpt lat="42.52937" lon="1.9982">
        <ele>2121.63</ele>
        <time>2022-11-05T13:34:10.371Z</time>
      </trkpt>
      <trkpt lat="42.52932" lon="1.99809">
        <ele>2120.63</ele>
        <time>2022-11-05T13:34:19.650Z</time>
      </trkpt>
      <trkpt lat="42.52926" lon="1.99799">
        <ele>2121.62</ele>
        <time>2022-11-05T13:34:28.891Z</time>
      </trkpt>
      <trkpt lat="42.52925" lon="1.99796">
        <ele>2119.69</ele>
        <time>2022-11-05T13:34:37.911Z</time>
      </trkpt>
      <trkpt lat="42.52921" lon="1.99787">
        <ele>2119.63</ele>
        <time>2022-11-05T13:34:47.000Z</time>
      </trkpt>
      <trkpt lat="42.52917" lon="1.99781">
        <ele>2120.38</ele>
        <time>2022-11-05T13:34:58.000Z</time>
      </trkpt>
      <trkpt lat="42.52916" lon="1.99781">
        <ele>2120.63</ele>
        <time>2022-11-05T13:35:20.000Z</time>
      </trkpt>
      <trkpt lat="42.52915" lon="1.99781">
        <ele>2119.63</ele>
        <time>2022-11-05T13:35:30.000Z</time>
      </trkpt>
      <trkpt lat="42.52914" lon="1.99781">
        <ele>2119.63</ele>
        <time>2022-11-05T13:38:33.000Z</time>
      </trkpt>
      <trkpt lat="42.52913" lon="1.9978">
        <ele>2119.63</ele>
        <time>2022-11-05T13:38:43.000Z</time>
      </trkpt>
      <trkpt lat="42.52912" lon="1.99781">
        <ele>2120.61</ele>
        <time>2022-11-05T13:39:53.000Z</time>
      </trkpt>
      <trkpt lat="42.52911" lon="1.9978">
        <ele>2120.63</ele>
        <time>2022-11-05T13:40:58.000Z</time>
      </trkpt>
      <trkpt lat="42.52905" lon="1.99765">
        <ele>2121.38</ele>
        <time>2022-11-05T13:41:07.180Z</time>
      </trkpt>
      <trkpt lat="42.52901" lon="1.9975">
        <ele>2120.62</ele>
        <time>2022-11-05T13:41:16.210Z</time>
      </trkpt>
      <trkpt lat="42.52895" lon="1.99738">
        <ele>2120.44</ele>
        <time>2022-11-05T13:41:25.651Z</time>
      </trkpt>
      <trkpt lat="42.52891" lon="1.99724">
        <ele>2119.87</ele>
        <time>2022-11-05T13:41:36.000Z</time>
      </trkpt>
      <trkpt lat="42.52884" lon="1.99709">
        <ele>2119.62</ele>
        <time>2022-11-05T13:41:45.731Z</time>
      </trkpt>
      <trkpt lat="42.52878" lon="1.99697">
        <ele>2117.87</ele>
        <time>2022-11-05T13:41:55.000Z</time>
      </trkpt>
      <trkpt lat="42.5287" lon="1.99684">
        <ele>2118.37</ele>
        <time>2022-11-05T13:42:04.711Z</time>
      </trkpt>
      <trkpt lat="42.52863" lon="1.99671">
        <ele>2118.37</ele>
        <time>2022-11-05T13:42:14.000Z</time>
      </trkpt>
      <trkpt lat="42.52855" lon="1.99657">
        <ele>2117.62</ele>
        <time>2022-11-05T13:42:23.691Z</time>
      </trkpt>
      <trkpt lat="42.52848" lon="1.99643">
        <ele>2118.62</ele>
        <time>2022-11-05T13:42:33.671Z</time>
      </trkpt>
      <trkpt lat="42.52842" lon="1.99629">
        <ele>2118.62</ele>
        <time>2022-11-05T13:42:43.000Z</time>
      </trkpt>
      <trkpt lat="42.52835" lon="1.99616">
        <ele>2117.62</ele>
        <time>2022-11-05T13:42:53.000Z</time>
      </trkpt>
      <trkpt lat="42.52825" lon="1.99605">
        <ele>2118.37</ele>
        <time>2022-11-05T13:43:02.210Z</time>
      </trkpt>
      <trkpt lat="42.52819" lon="1.99593">
        <ele>2118.62</ele>
        <time>2022-11-05T13:43:12.000Z</time>
      </trkpt>
      <trkpt lat="42.52815" lon="1.9958">
        <ele>2119.62</ele>
        <time>2022-11-05T13:43:22.000Z</time>
      </trkpt>
      <trkpt lat="42.52809" lon="1.99563">
        <ele>2121.56</ele>
        <time>2022-11-05T13:43:32.000Z</time>
      </trkpt>
      <trkpt lat="42.52803" lon="1.99549">
        <ele>2122.62</ele>
        <time>2022-11-05T13:43:42.000Z</time>
      </trkpt>
      <trkpt lat="42.52798" lon="1.99534">
        <ele>2123.62</ele>
        <time>2022-11-05T13:43:52.000Z</time>
      </trkpt>
      <trkpt lat="42.52793" lon="1.9952">
        <ele>2122.62</ele>
        <time>2022-11-05T13:44:02.000Z</time>
      </trkpt>
      <trkpt lat="42.52787" lon="1.99503">
        <ele>2123.62</ele>
        <time>2022-11-05T13:44:12.000Z</time>
      </trkpt>
      <trkpt lat="42.52783" lon="1.9949">
        <ele>2121.62</ele>
        <time>2022-11-05T13:44:21.400Z</time>
      </trkpt>
      <trkpt lat="42.52779" lon="1.99475">
        <ele>2121.43</ele>
        <time>2022-11-05T13:44:30.941Z</time>
      </trkpt>
      <trkpt lat="42.52772" lon="1.99462">
        <ele>2122.61</ele>
        <time>2022-11-05T13:44:40.000Z</time>
      </trkpt>
      <trkpt lat="42.52767" lon="1.99442">
        <ele>2120.68</ele>
        <time>2022-11-05T13:44:50.000Z</time>
      </trkpt>
      <trkpt lat="42.5276" lon="1.99427">
        <ele>2116.68</ele>
        <time>2022-11-05T13:45:00.000Z</time>
      </trkpt>
      <trkpt lat="42.5275" lon="1.99417">
        <ele>2112.88</ele>
        <time>2022-11-05T13:45:10.000Z</time>
      </trkpt>
      <trkpt lat="42.52739" lon="1.99409">
        <ele>2111.62</ele>
        <time>2022-11-05T13:45:20.000Z</time>
      </trkpt>
      <trkpt lat="42.52726" lon="1.99399">
        <ele>2110.61</ele>
        <time>2022-11-05T13:45:30.000Z</time>
      </trkpt>
      <trkpt lat="42.52715" lon="1.99395">
        <ele>2109.66</ele>
        <time>2022-11-05T13:45:40.000Z</time>
      </trkpt>
      <trkpt lat="42.52702" lon="1.99389">
        <ele>2107.63</ele>
        <time>2022-11-05T13:45:50.000Z</time>
      </trkpt>
      <trkpt lat="42.52688" lon="1.99382">
        <ele>2107.62</ele>
        <time>2022-11-05T13:46:00.000Z</time>
      </trkpt>
      <trkpt lat="42.52676" lon="1.99379">
        <ele>2106.62</ele>
        <time>2022-11-05T13:46:10.000Z</time>
      </trkpt>
      <trkpt lat="42.52673" lon="1.99377">
        <ele>2106.62</ele>
        <time>2022-11-05T13:46:20.000Z</time>
      </trkpt>
      <trkpt lat="42.52673" lon="1.99376">
        <ele>2106.62</ele>
        <time>2022-11-05T13:46:35.000Z</time>
      </trkpt>
      <trkpt lat="42.52673" lon="1.99375">
        <ele>2106.62</ele>
        <time>2022-11-05T13:46:45.000Z</time>
      </trkpt>
      <trkpt lat="42.52672" lon="1.99376">
        <ele>2106.38</ele>
        <time>2022-11-05T13:47:25.000Z</time>
      </trkpt>
      <trkpt lat="42.5267" lon="1.99377">
        <ele>2105.85</ele>
        <time>2022-11-05T13:47:35.000Z</time>
      </trkpt>
      <trkpt lat="42.52671" lon="1.99376">
        <ele>2105.62</ele>
        <time>2022-11-05T13:48:37.000Z</time>
      </trkpt>
      <trkpt lat="42.52669" lon="1.99373">
        <ele>2105.62</ele>
        <time>2022-11-05T13:48:47.000Z</time>
      </trkpt>
      <trkpt lat="42.52671" lon="1.99374">
        <ele>2104.68</ele>
        <time>2022-11-05T13:49:02.000Z</time>
      </trkpt>
      <trkpt lat="42.52673" lon="1.99375">
        <ele>2104.62</ele>
        <time>2022-11-05T13:49:12.000Z</time>
      </trkpt>
      <trkpt lat="42.52673" lon="1.99374">
        <ele>2103.87</ele>
        <time>2022-11-05T13:49:26.000Z</time>
      </trkpt>
      <trkpt lat="42.52672" lon="1.99373">
        <ele>2103.62</ele>
        <time>2022-11-05T13:49:37.010Z</time>
      </trkpt>
      <trkpt lat="42.52664" lon="1.99386">
        <ele>2102.62</ele>
        <time>2022-11-05T13:49:46.602Z</time>
      </trkpt>
      <trkpt lat="42.52658" lon="1.99391">
        <ele>2103.55</ele>
        <time>2022-11-05T13:49:55.891Z</time>
      </trkpt>
      <trkpt lat="42.52648" lon="1.99393">
        <ele>2104.62</ele>
        <time>2022-11-05T13:50:06.000Z</time>
      </trkpt>
      <trkpt lat="42.52637" lon="1.99396">
        <ele>2101.63</ele>
        <time>2022-11-05T13:50:15.770Z</time>
      </trkpt>
      <trkpt lat="42.52631" lon="1.99407">
        <ele>2101.57</ele>
        <time>2022-11-05T13:50:24.830Z</time>
      </trkpt>
      <trkpt lat="42.52626" lon="1.99418">
        <ele>2100.67</ele>
        <time>2022-11-05T13:50:33.931Z</time>
      </trkpt>
      <trkpt lat="42.52622" lon="1.99433">
        <ele>2100.62</ele>
        <time>2022-11-05T13:50:44.000Z</time>
      </trkpt>
      <trkpt lat="42.52619" lon="1.99448">
        <ele>2101.62</ele>
        <time>2022-11-05T13:50:53.431Z</time>
      </trkpt>
      <trkpt lat="42.52617" lon="1.9946">
        <ele>2102.62</ele>
        <time>2022-11-05T13:51:02.463Z</time>
      </trkpt>
      <trkpt lat="42.52616" lon="1.99476">
        <ele>2101.62</ele>
        <time>2022-11-05T13:51:11.551Z</time>
      </trkpt>
      <trkpt lat="42.52616" lon="1.99492">
        <ele>2102.55</ele>
        <time>2022-11-05T13:51:20.911Z</time>
      </trkpt>
      <trkpt lat="42.52616" lon="1.99506">
        <ele>2102.37</ele>
        <time>2022-11-05T13:51:30.472Z</time>
      </trkpt>
      <trkpt lat="42.52619" lon="1.99523">
        <ele>2103.61</ele>
        <time>2022-11-05T13:51:39.482Z</time>
      </trkpt>
      <trkpt lat="42.5262" lon="1.99538">
        <ele>2101.62</ele>
        <time>2022-11-05T13:51:48.572Z</time>
      </trkpt>
      <trkpt lat="42.52623" lon="1.99551">
        <ele>2099.63</ele>
        <time>2022-11-05T13:51:58.000Z</time>
      </trkpt>
      <trkpt lat="42.52628" lon="1.99569">
        <ele>2097.62</ele>
        <time>2022-11-05T13:52:07.831Z</time>
      </trkpt>
      <trkpt lat="42.52632" lon="1.99585">
        <ele>2096.62</ele>
        <time>2022-11-05T13:52:17.472Z</time>
      </trkpt>
      <trkpt lat="42.52634" lon="1.99601">
        <ele>2095.62</ele>
        <time>2022-11-05T13:52:28.000Z</time>
      </trkpt>
      <trkpt lat="42.5264" lon="1.99617">
        <ele>2095.43</ele>
        <time>2022-11-05T13:52:37.492Z</time>
      </trkpt>
      <trkpt lat="42.52643" lon="1.99631">
        <ele>2093.63</ele>
        <time>2022-11-05T13:52:46.930Z</time>
      </trkpt>
      <trkpt lat="42.52646" lon="1.99643">
        <ele>2092.62</ele>
        <time>2022-11-05T13:52:56.251Z</time>
      </trkpt>
      <trkpt lat="42.52649" lon="1.99657">
        <ele>2090.68</ele>
        <time>2022-11-05T13:53:06.000Z</time>
      </trkpt>
      <trkpt lat="42.52654" lon="1.9967">
        <ele>2090.62</ele>
        <time>2022-11-05T13:53:15.372Z</time>
      </trkpt>
      <trkpt lat="42.52658" lon="1.99684">
        <ele>2090.62</ele>
        <time>2022-11-05T13:53:25.000Z</time>
      </trkpt>
      <trkpt lat="42.52662" lon="1.99698">
        <ele>2089.62</ele>
        <time>2022-11-05T13:53:34.495Z</time>
      </trkpt>
      <trkpt lat="42.52668" lon="1.99712">
        <ele>2089.62</ele>
        <time>2022-11-05T13:53:43.892Z</time>
      </trkpt>
      <trkpt lat="42.52674" lon="1.99727">
        <ele>2088.85</ele>
        <time>2022-11-05T13:53:53.352Z</time>
      </trkpt>
      <trkpt lat="42.52679" lon="1.99738">
        <ele>2089.39</ele>
        <time>2022-11-05T13:54:04.000Z</time>
      </trkpt>
      <trkpt lat="42.52681" lon="1.99743">
        <ele>2088.62</ele>
        <time>2022-11-05T13:54:14.000Z</time>
      </trkpt>
      <trkpt lat="42.52684" lon="1.99757">
        <ele>2089.62</ele>
        <time>2022-11-05T13:54:25.000Z</time>
      </trkpt>
      <trkpt lat="42.5269" lon="1.99772">
        <ele>2087.62</ele>
        <time>2022-11-05T13:54:34.431Z</time>
      </trkpt>
      <trkpt lat="42.5269" lon="1.99787">
        <ele>2085.64</ele>
        <time>2022-11-05T13:54:43.572Z</time>
      </trkpt>
      <trkpt lat="42.52688" lon="1.99801">
        <ele>2084.62</ele>
        <time>2022-11-05T13:54:52.851Z</time>
      </trkpt>
      <trkpt lat="42.52684" lon="1.99812">
        <ele>2083.68</ele>
        <time>2022-11-05T13:55:02.000Z</time>
      </trkpt>
      <trkpt lat="42.52684" lon="1.99816">
        <ele>2083.62</ele>
        <time>2022-11-05T13:55:11.691Z</time>
      </trkpt>
      <trkpt lat="42.52683" lon="1.99816">
        <ele>2083.62</ele>
        <time>2022-11-05T13:55:23.652Z</time>
      </trkpt>
      <trkpt lat="42.52677" lon="1.99829">
        <ele>2083.62</ele>
        <time>2022-11-05T13:55:32.932Z</time>
      </trkpt>
      <trkpt lat="42.52672" lon="1.99841">
        <ele>2083.56</ele>
        <time>2022-11-05T13:55:42.000Z</time>
      </trkpt>
      <trkpt lat="42.52663" lon="1.99854">
        <ele>2081.62</ele>
        <time>2022-11-05T13:55:51.250Z</time>
      </trkpt>
      <trkpt lat="42.52657" lon="1.99867">
        <ele>2080.62</ele>
        <time>2022-11-05T13:56:00.911Z</time>
      </trkpt>
      <trkpt lat="42.5265" lon="1.99879">
        <ele>2080.62</ele>
        <time>2022-11-05T13:56:09.990Z</time>
      </trkpt>
      <trkpt lat="42.52644" lon="1.99892">
        <ele>2080.62</ele>
        <time>2022-11-05T13:56:19.671Z</time>
      </trkpt>
      <trkpt lat="42.52636" lon="1.99904">
        <ele>2078.62</ele>
        <time>2022-11-05T13:56:28.691Z</time>
      </trkpt>
      <trkpt lat="42.5263" lon="1.99914">
        <ele>2077.63</ele>
        <time>2022-11-05T13:56:38.000Z</time>
      </trkpt>
      <trkpt lat="42.52623" lon="1.99926">
        <ele>2076.62</ele>
        <time>2022-11-05T13:56:47.611Z</time>
      </trkpt>
      <trkpt lat="42.52614" lon="1.99935">
        <ele>2077.62</ele>
        <time>2022-11-05T13:56:57.671Z</time>
      </trkpt>
      <trkpt lat="42.52606" lon="1.99949">
        <ele>2075.64</ele>
        <time>2022-11-05T13:57:07.231Z</time>
      </trkpt>
      <trkpt lat="42.526" lon="1.99961">
        <ele>2074.56</ele>
        <time>2022-11-05T13:57:16.952Z</time>
      </trkpt>
      <trkpt lat="42.52593" lon="1.99976">
        <ele>2073.62</ele>
        <time>2022-11-05T13:57:26.471Z</time>
      </trkpt>
      <trkpt lat="42.52588" lon="1.99988">
        <ele>2072.62</ele>
        <time>2022-11-05T13:57:35.870Z</time>
      </trkpt>
      <trkpt lat="42.52583" lon="1.99998">
        <ele>2072.62</ele>
        <time>2022-11-05T13:57:45.830Z</time>
      </trkpt>
      <trkpt lat="42.5258" lon="2.00013">
        <ele>2072.56</ele>
        <time>2022-11-05T13:57:54.957Z</time>
      </trkpt>
      <trkpt lat="42.52576" lon="2.00028">
        <ele>2070.62</ele>
        <time>2022-11-05T13:58:04.433Z</time>
      </trkpt>
      <trkpt lat="42.52572" lon="2.00041">
        <ele>2070.62</ele>
        <time>2022-11-05T13:58:14.000Z</time>
      </trkpt>
      <trkpt lat="42.52569" lon="2.00057">
        <ele>2070.44</ele>
        <time>2022-11-05T13:58:24.000Z</time>
      </trkpt>
      <trkpt lat="42.52564" lon="2.00071">
        <ele>2069.62</ele>
        <time>2022-11-05T13:58:33.511Z</time>
      </trkpt>
      <trkpt lat="42.52563" lon="2.00087">
        <ele>2068.62</ele>
        <time>2022-11-05T13:58:43.000Z</time>
      </trkpt>
      <trkpt lat="42.5256" lon="2.00103">
        <ele>2066.64</ele>
        <time>2022-11-05T13:58:52.770Z</time>
      </trkpt>
      <trkpt lat="42.52556" lon="2.00111">
        <ele>2067.39</ele>
        <time>2022-11-05T13:59:02.000Z</time>
      </trkpt>
      <trkpt lat="42.52549" lon="2.00125">
        <ele>2065.63</ele>
        <time>2022-11-05T13:59:12.000Z</time>
      </trkpt>
      <trkpt lat="42.52541" lon="2.00135">
        <ele>2062.67</ele>
        <time>2022-11-05T13:59:22.000Z</time>
      </trkpt>
      <trkpt lat="42.5253" lon="2.00141">
        <ele>2062.62</ele>
        <time>2022-11-05T13:59:32.000Z</time>
      </trkpt>
      <trkpt lat="42.52519" lon="2.00142">
        <ele>2063.62</ele>
        <time>2022-11-05T13:59:41.370Z</time>
      </trkpt>
      <trkpt lat="42.52511" lon="2.00142">
        <ele>2063.37</ele>
        <time>2022-11-05T13:59:51.000Z</time>
      </trkpt>
      <trkpt lat="42.52497" lon="2.00141">
        <ele>2064.62</ele>
        <time>2022-11-05T14:00:00.711Z</time>
      </trkpt>
      <trkpt lat="42.52487" lon="2.00142">
        <ele>2064.62</ele>
        <time>2022-11-05T14:00:09.971Z</time>
      </trkpt>
      <trkpt lat="42.52477" lon="2.00139">
        <ele>2064.62</ele>
        <time>2022-11-05T14:00:19.000Z</time>
      </trkpt>
      <trkpt lat="42.5247" lon="2.00137">
        <ele>2065.62</ele>
        <time>2022-11-05T14:00:28.450Z</time>
      </trkpt>
      <trkpt lat="42.5246" lon="2.0014">
        <ele>2066.62</ele>
        <time>2022-11-05T14:00:37.551Z</time>
      </trkpt>
      <trkpt lat="42.5245" lon="2.0014">
        <ele>2066.93</ele>
        <time>2022-11-05T14:00:47.000Z</time>
      </trkpt>
      <trkpt lat="42.52441" lon="2.00151">
        <ele>2067.61</ele>
        <time>2022-11-05T14:00:57.000Z</time>
      </trkpt>
      <trkpt lat="42.5243" lon="2.00158">
        <ele>2065.63</ele>
        <time>2022-11-05T14:01:06.331Z</time>
      </trkpt>
      <trkpt lat="42.52423" lon="2.00169">
        <ele>2063.81</ele>
        <time>2022-11-05T14:01:16.000Z</time>
      </trkpt>
      <trkpt lat="42.52419" lon="2.00189">
        <ele>2061.56</ele>
        <time>2022-11-05T14:01:25.731Z</time>
      </trkpt>
      <trkpt lat="42.52414" lon="2.002">
        <ele>2060.62</ele>
        <time>2022-11-05T14:01:35.000Z</time>
      </trkpt>
      <trkpt lat="42.5241" lon="2.00216">
        <ele>2058.62</ele>
        <time>2022-11-05T14:01:45.000Z</time>
      </trkpt>
      <trkpt lat="42.52407" lon="2.00235">
        <ele>2057.62</ele>
        <time>2022-11-05T14:01:54.391Z</time>
      </trkpt>
      <trkpt lat="42.52406" lon="2.00249">
        <ele>2056.57</ele>
        <time>2022-11-05T14:02:03.634Z</time>
      </trkpt>
      <trkpt lat="42.52403" lon="2.00264">
        <ele>2055.62</ele>
        <time>2022-11-05T14:02:12.990Z</time>
      </trkpt>
      <trkpt lat="42.52399" lon="2.00276">
        <ele>2055.62</ele>
        <time>2022-11-05T14:02:22.351Z</time>
      </trkpt>
      <trkpt lat="42.52395" lon="2.00287">
        <ele>2054.62</ele>
        <time>2022-11-05T14:02:31.651Z</time>
      </trkpt>
      <trkpt lat="42.52389" lon="2.003">
        <ele>2053.62</ele>
        <time>2022-11-05T14:02:40.771Z</time>
      </trkpt>
      <trkpt lat="42.52381" lon="2.00311">
        <ele>2052.62</ele>
        <time>2022-11-05T14:02:50.291Z</time>
      </trkpt>
      <trkpt lat="42.52372" lon="2.00323">
        <ele>2051.62</ele>
        <time>2022-11-05T14:02:59.790Z</time>
      </trkpt>
      <trkpt lat="42.52362" lon="2.00328">
        <ele>2049.87</ele>
        <time>2022-11-05T14:03:09.286Z</time>
      </trkpt>
      <trkpt lat="42.52352" lon="2.00336">
        <ele>2049.63</ele>
        <time>2022-11-05T14:03:19.000Z</time>
      </trkpt>
      <trkpt lat="42.52341" lon="2.00345">
        <ele>2047.87</ele>
        <time>2022-11-05T14:03:29.000Z</time>
      </trkpt>
      <trkpt lat="42.52331" lon="2.00353">
        <ele>2048.62</ele>
        <time>2022-11-05T14:03:39.000Z</time>
      </trkpt>
      <trkpt lat="42.52323" lon="2.00363">
        <ele>2048.62</ele>
        <time>2022-11-05T14:03:49.000Z</time>
      </trkpt>
      <trkpt lat="42.52314" lon="2.00373">
        <ele>2049.62</ele>
        <time>2022-11-05T14:03:58.670Z</time>
      </trkpt>
      <trkpt lat="42.52307" lon="2.00383">
        <ele>2049.62</ele>
        <time>2022-11-05T14:04:08.000Z</time>
      </trkpt>
      <trkpt lat="42.52298" lon="2.00391">
        <ele>2051.62</ele>
        <time>2022-11-05T14:04:17.471Z</time>
      </trkpt>
      <trkpt lat="42.52291" lon="2.00402">
        <ele>2050.87</ele>
        <time>2022-11-05T14:04:27.000Z</time>
      </trkpt>
      <trkpt lat="42.52283" lon="2.00414">
        <ele>2049.87</ele>
        <time>2022-11-05T14:04:37.000Z</time>
      </trkpt>
      <trkpt lat="42.52274" lon="2.00427">
        <ele>2047.64</ele>
        <time>2022-11-05T14:04:48.000Z</time>
      </trkpt>
      <trkpt lat="42.52266" lon="2.00441">
        <ele>2045.87</ele>
        <time>2022-11-05T14:04:57.311Z</time>
      </trkpt>
      <trkpt lat="42.52265" lon="2.00444">
        <ele>2045.62</ele>
        <time>2022-11-05T14:05:07.000Z</time>
      </trkpt>
      <trkpt lat="42.52265" lon="2.00443">
        <ele>2045.62</ele>
        <time>2022-11-05T14:05:17.000Z</time>
      </trkpt>
      <trkpt lat="42.52264" lon="2.00443">
        <ele>2044.62</ele>
        <time>2022-11-05T14:06:13.000Z</time>
      </trkpt>
      <trkpt lat="42.52264" lon="2.00445">
        <ele>2043.63</ele>
        <time>2022-11-05T14:06:36.000Z</time>
      </trkpt>
      <trkpt lat="42.52263" lon="2.00454">
        <ele>2043.69</ele>
        <time>2022-11-05T14:06:45.010Z</time>
      </trkpt>
      <trkpt lat="42.52255" lon="2.00467">
        <ele>2041.64</ele>
        <time>2022-11-05T14:06:54.832Z</time>
      </trkpt>
      <trkpt lat="42.52248" lon="2.00481">
        <ele>2041.62</ele>
        <time>2022-11-05T14:07:04.976Z</time>
      </trkpt>
      <trkpt lat="42.52242" lon="2.0049">
        <ele>2041.69</ele>
        <time>2022-11-05T14:07:14.000Z</time>
      </trkpt>
      <trkpt lat="42.52234" lon="2.00505">
        <ele>2040.63</ele>
        <time>2022-11-05T14:07:24.000Z</time>
      </trkpt>
      <trkpt lat="42.52227" lon="2.0052">
        <ele>2039.87</ele>
        <time>2022-11-05T14:07:35.000Z</time>
      </trkpt>
      <trkpt lat="42.52221" lon="2.00535">
        <ele>2037.64</ele>
        <time>2022-11-05T14:07:44.371Z</time>
      </trkpt>
      <trkpt lat="42.52214" lon="2.00548">
        <ele>2035.69</ele>
        <time>2022-11-05T14:07:53.771Z</time>
      </trkpt>
      <trkpt lat="42.5221" lon="2.0056">
        <ele>2034.56</ele>
        <time>2022-11-05T14:08:04.000Z</time>
      </trkpt>
      <trkpt lat="42.52204" lon="2.00577">
        <ele>2034.63</ele>
        <time>2022-11-05T14:08:13.310Z</time>
      </trkpt>
      <trkpt lat="42.52198" lon="2.00591">
        <ele>2034.63</ele>
        <time>2022-11-05T14:08:22.910Z</time>
      </trkpt>
      <trkpt lat="42.52194" lon="2.00603">
        <ele>2034.43</ele>
        <time>2022-11-05T14:08:32.000Z</time>
      </trkpt>
      <trkpt lat="42.52191" lon="2.00618">
        <ele>2033.63</ele>
        <time>2022-11-05T14:08:41.010Z</time>
      </trkpt>
      <trkpt lat="42.52188" lon="2.00632">
        <ele>2034.63</ele>
        <time>2022-11-05T14:08:51.000Z</time>
      </trkpt>
      <trkpt lat="42.52186" lon="2.00649">
        <ele>2032.63</ele>
        <time>2022-11-05T14:09:02.000Z</time>
      </trkpt>
      <trkpt lat="42.52182" lon="2.00664">
        <ele>2033.63</ele>
        <time>2022-11-05T14:09:12.000Z</time>
      </trkpt>
      <trkpt lat="42.5218" lon="2.0068">
        <ele>2033.63</ele>
        <time>2022-11-05T14:09:21.691Z</time>
      </trkpt>
      <trkpt lat="42.5218" lon="2.00692">
        <ele>2031.63</ele>
        <time>2022-11-05T14:09:30.873Z</time>
      </trkpt>
      <trkpt lat="42.52182" lon="2.00704">
        <ele>2030.63</ele>
        <time>2022-11-05T14:09:40.000Z</time>
      </trkpt>
      <trkpt lat="42.52186" lon="2.00723">
        <ele>2028.63</ele>
        <time>2022-11-05T14:09:49.771Z</time>
      </trkpt>
      <trkpt lat="42.52191" lon="2.00738">
        <ele>2028.63</ele>
        <time>2022-11-05T14:09:58.791Z</time>
      </trkpt>
      <trkpt lat="42.52195" lon="2.00752">
        <ele>2028.63</ele>
        <time>2022-11-05T14:10:07.911Z</time>
      </trkpt>
      <trkpt lat="42.52199" lon="2.00765">
        <ele>2028.88</ele>
        <time>2022-11-05T14:10:18.000Z</time>
      </trkpt>
      <trkpt lat="42.52206" lon="2.00781">
        <ele>2028.65</ele>
        <time>2022-11-05T14:10:27.731Z</time>
      </trkpt>
      <trkpt lat="42.52211" lon="2.00789">
        <ele>2028.63</ele>
        <time>2022-11-05T14:10:38.000Z</time>
      </trkpt>
      <trkpt lat="42.52219" lon="2.00802">
        <ele>2028.63</ele>
        <time>2022-11-05T14:10:47.771Z</time>
      </trkpt>
      <trkpt lat="42.52229" lon="2.00813">
        <ele>2026.63</ele>
        <time>2022-11-05T14:10:57.371Z</time>
      </trkpt>
      <trkpt lat="42.5223" lon="2.00814">
        <ele>2026.63</ele>
        <time>2022-11-05T14:11:07.000Z</time>
      </trkpt>
      <trkpt lat="42.52229" lon="2.00815">
        <ele>2025.63</ele>
        <time>2022-11-05T14:11:17.000Z</time>
      </trkpt>
      <trkpt lat="42.5223" lon="2.0082">
        <ele>2023.63</ele>
        <time>2022-11-05T14:11:26.792Z</time>
      </trkpt>
      <trkpt lat="42.52232" lon="2.00822">
        <ele>2023.63</ele>
        <time>2022-11-05T14:11:36.000Z</time>
      </trkpt>
      <trkpt lat="42.52231" lon="2.0082">
        <ele>2022.88</ele>
        <time>2022-11-05T14:12:45.000Z</time>
      </trkpt>
      <trkpt lat="42.5223" lon="2.00818">
        <ele>2023.63</ele>
        <time>2022-11-05T14:12:55.000Z</time>
      </trkpt>
      <trkpt lat="42.52236" lon="2.00823">
        <ele>2023.63</ele>
        <time>2022-11-05T14:13:05.000Z</time>
      </trkpt>
      <trkpt lat="42.52244" lon="2.00832">
        <ele>2024.63</ele>
        <time>2022-11-05T14:13:14.350Z</time>
      </trkpt>
      <trkpt lat="42.52252" lon="2.00844">
        <ele>2025.63</ele>
        <time>2022-11-05T14:13:23.411Z</time>
      </trkpt>
      <trkpt lat="42.52258" lon="2.00856">
        <ele>2026.63</ele>
        <time>2022-11-05T14:13:32.631Z</time>
      </trkpt>
      <trkpt lat="42.5226" lon="2.00869">
        <ele>2026.57</ele>
        <time>2022-11-05T14:13:41.911Z</time>
      </trkpt>
      <trkpt lat="42.52263" lon="2.00884">
        <ele>2025.63</ele>
        <time>2022-11-05T14:13:51.010Z</time>
      </trkpt>
      <trkpt lat="42.52266" lon="2.00898">
        <ele>2025.63</ele>
        <time>2022-11-05T14:14:00.371Z</time>
      </trkpt>
      <trkpt lat="42.5227" lon="2.00912">
        <ele>2024.64</ele>
        <time>2022-11-05T14:14:09.772Z</time>
      </trkpt>
      <trkpt lat="42.52273" lon="2.00924">
        <ele>2023.63</ele>
        <time>2022-11-05T14:14:19.000Z</time>
      </trkpt>
      <trkpt lat="42.52274" lon="2.00937">
        <ele>2023.58</ele>
        <time>2022-11-05T14:14:29.000Z</time>
      </trkpt>
      <trkpt lat="42.5227" lon="2.00938">
        <ele>2022.63</ele>
        <time>2022-11-05T14:14:38.332Z</time>
      </trkpt>
      <trkpt lat="42.52269" lon="2.00938">
        <ele>2021.63</ele>
        <time>2022-11-05T14:14:48.000Z</time>
      </trkpt>
      <trkpt lat="42.5227" lon="2.00938">
        <ele>2019.9</ele>
        <time>2022-11-05T14:21:13.000Z</time>
      </trkpt>
      <trkpt lat="42.52271" lon="2.00938">
        <ele>2019.63</ele>
        <time>2022-11-05T14:21:23.000Z</time>
      </trkpt>
      <trkpt lat="42.52272" lon="2.00938">
        <ele>2019.63</ele>
        <time>2022-11-05T14:24:14.000Z</time>
      </trkpt>
      <trkpt lat="42.5227" lon="2.00938">
        <ele>2019.63</ele>
        <time>2022-11-05T14:26:17.990Z</time>
      </trkpt>
      <trkpt lat="42.52262" lon="2.0094">
        <ele>2017.64</ele>
        <time>2022-11-05T14:26:27.530Z</time>
      </trkpt>
      <trkpt lat="42.52257" lon="2.00947">
        <ele>2015.64</ele>
        <time>2022-11-05T14:26:36.930Z</time>
      </trkpt>
      <trkpt lat="42.52249" lon="2.00955">
        <ele>2013.64</ele>
        <time>2022-11-05T14:26:46.771Z</time>
      </trkpt>
      <trkpt lat="42.52242" lon="2.0096">
        <ele>2012.63</ele>
        <time>2022-11-05T14:26:56.000Z</time>
      </trkpt>
      <trkpt lat="42.52233" lon="2.00971">
        <ele>2011.64</ele>
        <time>2022-11-05T14:27:05.551Z</time>
      </trkpt>
      <trkpt lat="42.52227" lon="2.00981">
        <ele>2010.63</ele>
        <time>2022-11-05T14:27:14.871Z</time>
      </trkpt>
      <trkpt lat="42.52221" lon="2.0099">
        <ele>2009.63</ele>
        <time>2022-11-05T14:27:25.000Z</time>
      </trkpt>
      <trkpt lat="42.52214" lon="2.01">
        <ele>2007.64</ele>
        <time>2022-11-05T14:27:34.331Z</time>
      </trkpt>
      <trkpt lat="42.52205" lon="2.01008">
        <ele>2005.69</ele>
        <time>2022-11-05T14:27:43.831Z</time>
      </trkpt>
      <trkpt lat="42.52197" lon="2.01017">
        <ele>2003.89</ele>
        <time>2022-11-05T14:27:53.370Z</time>
      </trkpt>
      <trkpt lat="42.52188" lon="2.01023">
        <ele>2002.63</ele>
        <time>2022-11-05T14:28:02.433Z</time>
      </trkpt>
      <trkpt lat="42.52176" lon="2.01026">
        <ele>2002.63</ele>
        <time>2022-11-05T14:28:13.000Z</time>
      </trkpt>
      <trkpt lat="42.52163" lon="2.01031">
        <ele>2000.63</ele>
        <time>2022-11-05T14:28:23.000Z</time>
      </trkpt>
      <trkpt lat="42.52152" lon="2.01036">
        <ele>1998.88</ele>
        <time>2022-11-05T14:28:32.932Z</time>
      </trkpt>
      <trkpt lat="42.52145" lon="2.01047">
        <ele>1999.63</ele>
        <time>2022-11-05T14:28:42.330Z</time>
      </trkpt>
      <trkpt lat="42.52138" lon="2.0106">
        <ele>2000.63</ele>
        <time>2022-11-05T14:28:51.894Z</time>
      </trkpt>
      <trkpt lat="42.52134" lon="2.01072">
        <ele>2000.63</ele>
        <time>2022-11-05T14:29:00.912Z</time>
      </trkpt>
      <trkpt lat="42.52133" lon="2.01086">
        <ele>2001.63</ele>
        <time>2022-11-05T14:29:09.930Z</time>
      </trkpt>
      <trkpt lat="42.52132" lon="2.01101">
        <ele>2001.64</ele>
        <time>2022-11-05T14:29:19.351Z</time>
      </trkpt>
      <trkpt lat="42.52131" lon="2.01116">
        <ele>2000.64</ele>
        <time>2022-11-05T14:29:28.791Z</time>
      </trkpt>
      <trkpt lat="42.52129" lon="2.01132">
        <ele>2000.64</ele>
        <time>2022-11-05T14:29:38.275Z</time>
      </trkpt>
      <trkpt lat="42.52128" lon="2.01147">
        <ele>2000.64</ele>
        <time>2022-11-05T14:29:47.990Z</time>
      </trkpt>
      <trkpt lat="42.5213" lon="2.01156">
        <ele>2000.65</ele>
        <time>2022-11-05T14:29:57.000Z</time>
      </trkpt>
      <trkpt lat="42.52129" lon="2.01157">
        <ele>1999.7</ele>
        <time>2022-11-05T14:30:07.000Z</time>
      </trkpt>
      <trkpt lat="42.52128" lon="2.01159">
        <ele>1998.64</ele>
        <time>2022-11-05T14:30:17.000Z</time>
      </trkpt>
      <trkpt lat="42.52125" lon="2.01163">
        <ele>1997.64</ele>
        <time>2022-11-05T14:30:26.511Z</time>
      </trkpt>
      <trkpt lat="42.52117" lon="2.01158">
        <ele>1993.89</ele>
        <time>2022-11-05T14:30:35.595Z</time>
      </trkpt>
      <trkpt lat="42.52114" lon="2.01149">
        <ele>1991.65</ele>
        <time>2022-11-05T14:30:45.000Z</time>
      </trkpt>
      <trkpt lat="42.52107" lon="2.01136">
        <ele>1988.65</ele>
        <time>2022-11-05T14:30:54.171Z</time>
      </trkpt>
      <trkpt lat="42.521" lon="2.01123">
        <ele>1988.63</ele>
        <time>2022-11-05T14:31:03.871Z</time>
      </trkpt>
      <trkpt lat="42.52092" lon="2.01111">
        <ele>1987.63</ele>
        <time>2022-11-05T14:31:13.233Z</time>
      </trkpt>
      <trkpt lat="42.52085" lon="2.01099">
        <ele>1987.63</ele>
        <time>2022-11-05T14:31:22.432Z</time>
      </trkpt>
      <trkpt lat="42.52075" lon="2.0109">
        <ele>1985.7</ele>
        <time>2022-11-05T14:31:31.892Z</time>
      </trkpt>
      <trkpt lat="42.52065" lon="2.0108">
        <ele>1985.88</ele>
        <time>2022-11-05T14:31:41.411Z</time>
      </trkpt>
      <trkpt lat="42.52057" lon="2.01069">
        <ele>1985.63</ele>
        <time>2022-11-05T14:31:50.911Z</time>
      </trkpt>
      <trkpt lat="42.52048" lon="2.01058">
        <ele>1984.63</ele>
        <time>2022-11-05T14:32:00.591Z</time>
      </trkpt>
      <trkpt lat="42.52041" lon="2.01049">
        <ele>1985.62</ele>
        <time>2022-11-05T14:32:09.865Z</time>
      </trkpt>
      <trkpt lat="42.52035" lon="2.01036">
        <ele>1985.63</ele>
        <time>2022-11-05T14:32:19.315Z</time>
      </trkpt>
      <trkpt lat="42.52026" lon="2.01025">
        <ele>1984.63</ele>
        <time>2022-11-05T14:32:28.832Z</time>
      </trkpt>
      <trkpt lat="42.52019" lon="2.01014">
        <ele>1983.63</ele>
        <time>2022-11-05T14:32:37.911Z</time>
      </trkpt>
      <trkpt lat="42.52013" lon="2.00999">
        <ele>1984.63</ele>
        <time>2022-11-05T14:32:46.990Z</time>
      </trkpt>
      <trkpt lat="42.52004" lon="2.0099">
        <ele>1983.63</ele>
        <time>2022-11-05T14:32:57.000Z</time>
      </trkpt>
      <trkpt lat="42.51996" lon="2.0098">
        <ele>1983.63</ele>
        <time>2022-11-05T14:33:07.000Z</time>
      </trkpt>
      <trkpt lat="42.51984" lon="2.00972">
        <ele>1983.61</ele>
        <time>2022-11-05T14:33:16.391Z</time>
      </trkpt>
      <trkpt lat="42.51974" lon="2.00967">
        <ele>1982.63</ele>
        <time>2022-11-05T14:33:25.531Z</time>
      </trkpt>
      <trkpt lat="42.51964" lon="2.00963">
        <ele>1982.38</ele>
        <time>2022-11-05T14:33:36.000Z</time>
      </trkpt>
      <trkpt lat="42.51951" lon="2.00961">
        <ele>1981.38</ele>
        <time>2022-11-05T14:33:47.000Z</time>
      </trkpt>
      <trkpt lat="42.51937" lon="2.00965">
        <ele>1980.63</ele>
        <time>2022-11-05T14:33:56.970Z</time>
      </trkpt>
      <trkpt lat="42.51925" lon="2.00971">
        <ele>1979.64</ele>
        <time>2022-11-05T14:34:06.511Z</time>
      </trkpt>
      <trkpt lat="42.51913" lon="2.00977">
        <ele>1979.63</ele>
        <time>2022-11-05T14:34:17.000Z</time>
      </trkpt>
      <trkpt lat="42.51901" lon="2.00986">
        <ele>1978.63</ele>
        <time>2022-11-05T14:34:26.791Z</time>
      </trkpt>
      <trkpt lat="42.51892" lon="2.0099">
        <ele>1978.63</ele>
        <time>2022-11-05T14:34:37.000Z</time>
      </trkpt>
      <trkpt lat="42.51882" lon="2.00996">
        <ele>1978.63</ele>
        <time>2022-11-05T14:34:46.571Z</time>
      </trkpt>
      <trkpt lat="42.51872" lon="2.01001">
        <ele>1978.63</ele>
        <time>2022-11-05T14:34:55.691Z</time>
      </trkpt>
      <trkpt lat="42.5186" lon="2.01008">
        <ele>1977.63</ele>
        <time>2022-11-05T14:35:05.791Z</time>
      </trkpt>
      <trkpt lat="42.51851" lon="2.01013">
        <ele>1979.56</ele>
        <time>2022-11-05T14:35:14.811Z</time>
      </trkpt>
      <trkpt lat="42.51845" lon="2.01015">
        <ele>1979.69</ele>
        <time>2022-11-05T14:35:24.432Z</time>
      </trkpt>
      <trkpt lat="42.51838" lon="2.01015">
        <ele>1979.63</ele>
        <time>2022-11-05T14:35:33.711Z</time>
      </trkpt>
      <trkpt lat="42.51824" lon="2.01013">
        <ele>1978.63</ele>
        <time>2022-11-05T14:35:42.851Z</time>
      </trkpt>
      <trkpt lat="42.51814" lon="2.0101">
        <ele>1980.63</ele>
        <time>2022-11-05T14:35:53.000Z</time>
      </trkpt>
      <trkpt lat="42.51804" lon="2.01001">
        <ele>1979.63</ele>
        <time>2022-11-05T14:36:02.532Z</time>
      </trkpt>
      <trkpt lat="42.51797" lon="2.00993">
        <ele>1978.88</ele>
        <time>2022-11-05T14:36:11.812Z</time>
      </trkpt>
      <trkpt lat="42.51787" lon="2.00985">
        <ele>1975.88</ele>
        <time>2022-11-05T14:36:22.000Z</time>
      </trkpt>
      <trkpt lat="42.51774" lon="2.00976">
        <ele>1973.63</ele>
        <time>2022-11-05T14:36:31.412Z</time>
      </trkpt>
      <trkpt lat="42.51762" lon="2.0097">
        <ele>1971.63</ele>
        <time>2022-11-05T14:36:41.000Z</time>
      </trkpt>
      <trkpt lat="42.51748" lon="2.00974">
        <ele>1968.64</ele>
        <time>2022-11-05T14:36:50.492Z</time>
      </trkpt>
      <trkpt lat="42.5174" lon="2.00983">
        <ele>1968.69</ele>
        <time>2022-11-05T14:37:00.000Z</time>
      </trkpt>
      <trkpt lat="42.51733" lon="2.00997">
        <ele>1968.63</ele>
        <time>2022-11-05T14:37:09.010Z</time>
      </trkpt>
      <trkpt lat="42.51729" lon="2.01011">
        <ele>1968.63</ele>
        <time>2022-11-05T14:37:18.731Z</time>
      </trkpt>
      <trkpt lat="42.51725" lon="2.01025">
        <ele>1968.63</ele>
        <time>2022-11-05T14:37:27.851Z</time>
      </trkpt>
      <trkpt lat="42.51721" lon="2.01036">
        <ele>1968.63</ele>
        <time>2022-11-05T14:37:37.000Z</time>
      </trkpt>
      <trkpt lat="42.51714" lon="2.01049">
        <ele>1967.64</ele>
        <time>2022-11-05T14:37:46.444Z</time>
      </trkpt>
      <trkpt lat="42.51706" lon="2.0106">
        <ele>1967.63</ele>
        <time>2022-11-05T14:37:56.000Z</time>
      </trkpt>
      <trkpt lat="42.51698" lon="2.0107">
        <ele>1967.57</ele>
        <time>2022-11-05T14:38:06.000Z</time>
      </trkpt>
      <trkpt lat="42.51687" lon="2.01081">
        <ele>1966.63</ele>
        <time>2022-11-05T14:38:15.651Z</time>
      </trkpt>
      <trkpt lat="42.5168" lon="2.01092">
        <ele>1966.56</ele>
        <time>2022-11-05T14:38:24.930Z</time>
      </trkpt>
      <trkpt lat="42.51674" lon="2.01102">
        <ele>1966.63</ele>
        <time>2022-11-05T14:38:34.000Z</time>
      </trkpt>
      <trkpt lat="42.51666" lon="2.01115">
        <ele>1966.62</ele>
        <time>2022-11-05T14:38:43.331Z</time>
      </trkpt>
      <trkpt lat="42.51659" lon="2.01127">
        <ele>1966.63</ele>
        <time>2022-11-05T14:38:52.951Z</time>
      </trkpt>
      <trkpt lat="42.51653" lon="2.01135">
        <ele>1966.63</ele>
        <time>2022-11-05T14:39:02.000Z</time>
      </trkpt>
      <trkpt lat="42.51645" lon="2.01144">
        <ele>1968.63</ele>
        <time>2022-11-05T14:39:12.000Z</time>
      </trkpt>
      <trkpt lat="42.51642" lon="2.01156">
        <ele>1966.69</ele>
        <time>2022-11-05T14:39:22.000Z</time>
      </trkpt>
      <trkpt lat="42.51637" lon="2.01167">
        <ele>1967.63</ele>
        <time>2022-11-05T14:39:31.300Z</time>
      </trkpt>
      <trkpt lat="42.51632" lon="2.01179">
        <ele>1967.88</ele>
        <time>2022-11-05T14:39:41.000Z</time>
      </trkpt>
      <trkpt lat="42.51627" lon="2.0119">
        <ele>1968.38</ele>
        <time>2022-11-05T14:39:51.000Z</time>
      </trkpt>
      <trkpt lat="42.51621" lon="2.01197">
        <ele>1965.88</ele>
        <time>2022-11-05T14:40:00.306Z</time>
      </trkpt>
      <trkpt lat="42.51615" lon="2.0121">
        <ele>1962.88</ele>
        <time>2022-11-05T14:40:09.491Z</time>
      </trkpt>
      <trkpt lat="42.51611" lon="2.01218">
        <ele>1960.88</ele>
        <time>2022-11-05T14:40:19.000Z</time>
      </trkpt>
      <trkpt lat="42.51605" lon="2.01224">
        <ele>1958.69</ele>
        <time>2022-11-05T14:40:28.644Z</time>
      </trkpt>
      <trkpt lat="42.51599" lon="2.01224">
        <ele>1957.44</ele>
        <time>2022-11-05T14:40:39.000Z</time>
      </trkpt>
      <trkpt lat="42.51598" lon="2.01225">
        <ele>1957.63</ele>
        <time>2022-11-05T14:40:49.000Z</time>
      </trkpt>
      <trkpt lat="42.51597" lon="2.01225">
        <ele>1957.63</ele>
        <time>2022-11-05T14:41:02.000Z</time>
      </trkpt>
      <trkpt lat="42.51595" lon="2.01224">
        <ele>1957.63</ele>
        <time>2022-11-05T14:41:12.000Z</time>
      </trkpt>
      <trkpt lat="42.51595" lon="2.01223">
        <ele>1958.61</ele>
        <time>2022-11-05T14:43:51.000Z</time>
      </trkpt>
      <trkpt lat="42.51595" lon="2.01224">
        <ele>1958.75</ele>
        <time>2022-11-05T14:44:06.771Z</time>
      </trkpt>
      <trkpt lat="42.51589" lon="2.0123">
        <ele>1956.63</ele>
        <time>2022-11-05T14:44:17.000Z</time>
      </trkpt>
      <trkpt lat="42.51584" lon="2.01239">
        <ele>1956.63</ele>
        <time>2022-11-05T14:44:26.771Z</time>
      </trkpt>
      <trkpt lat="42.5158" lon="2.01245">
        <ele>1957.38</ele>
        <time>2022-11-05T14:44:36.000Z</time>
      </trkpt>
      <trkpt lat="42.51577" lon="2.01253">
        <ele>1957.62</ele>
        <time>2022-11-05T14:44:46.000Z</time>
      </trkpt>
      <trkpt lat="42.51574" lon="2.01263">
        <ele>1955.63</ele>
        <time>2022-11-05T14:44:56.000Z</time>
      </trkpt>
      <trkpt lat="42.51569" lon="2.01273">
        <ele>1953.88</ele>
        <time>2022-11-05T14:45:06.000Z</time>
      </trkpt>
      <trkpt lat="42.51564" lon="2.01281">
        <ele>1951.64</ele>
        <time>2022-11-05T14:45:16.000Z</time>
      </trkpt>
      <trkpt lat="42.51556" lon="2.01291">
        <ele>1949.88</ele>
        <time>2022-11-05T14:45:26.000Z</time>
      </trkpt>
      <trkpt lat="42.51546" lon="2.01301">
        <ele>1947.63</ele>
        <time>2022-11-05T14:45:36.000Z</time>
      </trkpt>
      <trkpt lat="42.51537" lon="2.01313">
        <ele>1946.63</ele>
        <time>2022-11-05T14:45:46.000Z</time>
      </trkpt>
      <trkpt lat="42.5153" lon="2.01324">
        <ele>1945.88</ele>
        <time>2022-11-05T14:45:56.000Z</time>
      </trkpt>
      <trkpt lat="42.51527" lon="2.01327">
        <ele>1945.63</ele>
        <time>2022-11-05T14:46:06.000Z</time>
      </trkpt>
      <trkpt lat="42.51528" lon="2.01327">
        <ele>1945.88</ele>
        <time>2022-11-05T14:46:31.000Z</time>
      </trkpt>
      <trkpt lat="42.51531" lon="2.01331">
        <ele>1947.63</ele>
        <time>2022-11-05T14:46:41.000Z</time>
      </trkpt>
      <trkpt lat="42.51534" lon="2.01342">
        <ele>1948.63</ele>
        <time>2022-11-05T14:46:51.000Z</time>
      </trkpt>
      <trkpt lat="42.51535" lon="2.01354">
        <ele>1949.63</ele>
        <time>2022-11-05T14:47:01.000Z</time>
      </trkpt>
      <trkpt lat="42.51534" lon="2.01366">
        <ele>1948.63</ele>
        <time>2022-11-05T14:47:11.000Z</time>
      </trkpt>
      <trkpt lat="42.51536" lon="2.01378">
        <ele>1947.88</ele>
        <time>2022-11-05T14:47:21.000Z</time>
      </trkpt>
      <trkpt lat="42.51536" lon="2.01386">
        <ele>1948.88</ele>
        <time>2022-11-05T14:47:31.000Z</time>
      </trkpt>
      <trkpt lat="42.51538" lon="2.01396">
        <ele>1946.63</ele>
        <time>2022-11-05T14:47:40.321Z</time>
      </trkpt>
      <trkpt lat="42.51543" lon="2.01405">
        <ele>1945.63</ele>
        <time>2022-11-05T14:47:50.000Z</time>
      </trkpt>
      <trkpt lat="42.51546" lon="2.0141">
        <ele>1944.88</ele>
        <time>2022-11-05T14:47:59.361Z</time>
      </trkpt>
      <trkpt lat="42.51549" lon="2.01416">
        <ele>1943.88</ele>
        <time>2022-11-05T14:48:09.000Z</time>
      </trkpt>
      <trkpt lat="42.51551" lon="2.01421">
        <ele>1941.88</ele>
        <time>2022-11-05T14:48:18.261Z</time>
      </trkpt>
      <trkpt lat="42.51554" lon="2.0143">
        <ele>1940.68</ele>
        <time>2022-11-05T14:48:28.000Z</time>
      </trkpt>
      <trkpt lat="42.51558" lon="2.01438">
        <ele>1939.63</ele>
        <time>2022-11-05T14:48:38.000Z</time>
      </trkpt>
      <trkpt lat="42.51562" lon="2.01447">
        <ele>1941.63</ele>
        <time>2022-11-05T14:48:48.000Z</time>
      </trkpt>
      <trkpt lat="42.51568" lon="2.01456">
        <ele>1939.88</ele>
        <time>2022-11-05T14:48:58.000Z</time>
      </trkpt>
      <trkpt lat="42.51574" lon="2.01464">
        <ele>1936.63</ele>
        <time>2022-11-05T14:49:07.451Z</time>
      </trkpt>
      <trkpt lat="42.51578" lon="2.01469">
        <ele>1935.63</ele>
        <time>2022-11-05T14:49:17.000Z</time>
      </trkpt>
      <trkpt lat="42.51585" lon="2.01475">
        <ele>1933.88</ele>
        <time>2022-11-05T14:49:27.000Z</time>
      </trkpt>
      <trkpt lat="42.51591" lon="2.01481">
        <ele>1932.63</ele>
        <time>2022-11-05T14:49:38.000Z</time>
      </trkpt>
      <trkpt lat="42.51595" lon="2.01486">
        <ele>1933.88</ele>
        <time>2022-11-05T14:49:47.713Z</time>
      </trkpt>
      <trkpt lat="42.51598" lon="2.01492">
        <ele>1932.94</ele>
        <time>2022-11-05T14:49:58.000Z</time>
      </trkpt>
      <trkpt lat="42.51602" lon="2.01497">
        <ele>1932.63</ele>
        <time>2022-11-05T14:50:07.531Z</time>
      </trkpt>
      <trkpt lat="42.51606" lon="2.01502">
        <ele>1931.65</ele>
        <time>2022-11-05T14:50:16.741Z</time>
      </trkpt>
      <trkpt lat="42.51612" lon="2.01507">
        <ele>1929.7</ele>
        <time>2022-11-05T14:50:26.000Z</time>
      </trkpt>
      <trkpt lat="42.51616" lon="2.01513">
        <ele>1928.63</ele>
        <time>2022-11-05T14:50:35.591Z</time>
      </trkpt>
      <trkpt lat="42.51619" lon="2.01525">
        <ele>1929.57</ele>
        <time>2022-11-05T14:50:46.000Z</time>
      </trkpt>
      <trkpt lat="42.51627" lon="2.01534">
        <ele>1928.71</ele>
        <time>2022-11-05T14:50:55.454Z</time>
      </trkpt>
      <trkpt lat="42.51633" lon="2.01541">
        <ele>1927.63</ele>
        <time>2022-11-05T14:51:04.791Z</time>
      </trkpt>
      <trkpt lat="42.5164" lon="2.01547">
        <ele>1925.9</ele>
        <time>2022-11-05T14:51:16.000Z</time>
      </trkpt>
      <trkpt lat="42.51647" lon="2.01555">
        <ele>1921.64</ele>
        <time>2022-11-05T14:51:25.391Z</time>
      </trkpt>
      <trkpt lat="42.51652" lon="2.01562">
        <ele>1916.7</ele>
        <time>2022-11-05T14:51:35.000Z</time>
      </trkpt>
      <trkpt lat="42.51665" lon="2.0157">
        <ele>1913.65</ele>
        <time>2022-11-05T14:51:44.534Z</time>
      </trkpt>
      <trkpt lat="42.51675" lon="2.01576">
        <ele>1914.64</ele>
        <time>2022-11-05T14:51:53.891Z</time>
      </trkpt>
      <trkpt lat="42.51684" lon="2.01584">
        <ele>1911.7</ele>
        <time>2022-11-05T14:52:03.652Z</time>
      </trkpt>
      <trkpt lat="42.51693" lon="2.0159">
        <ele>1908.7</ele>
        <time>2022-11-05T14:52:12.794Z</time>
      </trkpt>
      <trkpt lat="42.51703" lon="2.01598">
        <ele>1907.64</ele>
        <time>2022-11-05T14:52:21.891Z</time>
      </trkpt>
      <trkpt lat="42.51713" lon="2.01602">
        <ele>1907.7</ele>
        <time>2022-11-05T14:52:31.000Z</time>
      </trkpt>
      <trkpt lat="42.51724" lon="2.01603">
        <ele>1909.32</ele>
        <time>2022-11-05T14:52:41.000Z</time>
      </trkpt>
      <trkpt lat="42.51735" lon="2.01608">
        <ele>1912.58</ele>
        <time>2022-11-05T14:52:50.711Z</time>
      </trkpt>
      <trkpt lat="42.5174" lon="2.01608">
        <ele>1913.89</ele>
        <time>2022-11-05T14:53:00.000Z</time>
      </trkpt>
      <trkpt lat="42.51747" lon="2.01611">
        <ele>1911.76</ele>
        <time>2022-11-05T14:53:10.000Z</time>
      </trkpt>
      <trkpt lat="42.51752" lon="2.01616">
        <ele>1907.64</ele>
        <time>2022-11-05T14:53:20.000Z</time>
      </trkpt>
      <trkpt lat="42.51756" lon="2.01616">
        <ele>1905.65</ele>
        <time>2022-11-05T14:53:30.000Z</time>
      </trkpt>
      <trkpt lat="42.51758" lon="2.01615">
        <ele>1902.64</ele>
        <time>2022-11-05T14:53:39.331Z</time>
      </trkpt>
      <trkpt lat="42.51764" lon="2.01615">
        <ele>1901.89</ele>
        <time>2022-11-05T14:53:49.000Z</time>
      </trkpt>
      <trkpt lat="42.51772" lon="2.01612">
        <ele>1903.39</ele>
        <time>2022-11-05T14:53:58.482Z</time>
      </trkpt>
      <trkpt lat="42.51776" lon="2.0161">
        <ele>1905.64</ele>
        <time>2022-11-05T14:54:08.000Z</time>
      </trkpt>
      <trkpt lat="42.51785" lon="2.01615">
        <ele>1909.39</ele>
        <time>2022-11-05T14:54:17.612Z</time>
      </trkpt>
      <trkpt lat="42.51794" lon="2.0162">
        <ele>1910.64</ele>
        <time>2022-11-05T14:54:26.952Z</time>
      </trkpt>
      <trkpt lat="42.51799" lon="2.01632">
        <ele>1911.57</ele>
        <time>2022-11-05T14:54:37.000Z</time>
      </trkpt>
      <trkpt lat="42.51803" lon="2.01646">
        <ele>1911.64</ele>
        <time>2022-11-05T14:54:46.551Z</time>
      </trkpt>
      <trkpt lat="42.51806" lon="2.01653">
        <ele>1909.95</ele>
        <time>2022-11-05T14:54:56.000Z</time>
      </trkpt>
      <trkpt lat="42.51809" lon="2.01663">
        <ele>1909.64</ele>
        <time>2022-11-05T14:55:05.432Z</time>
      </trkpt>
      <trkpt lat="42.5181" lon="2.01675">
        <ele>1907.64</ele>
        <time>2022-11-05T14:55:14.531Z</time>
      </trkpt>
      <trkpt lat="42.5181" lon="2.01688">
        <ele>1906.64</ele>
        <time>2022-11-05T14:55:23.751Z</time>
      </trkpt>
      <trkpt lat="42.51811" lon="2.01702">
        <ele>1905.64</ele>
        <time>2022-11-05T14:55:32.871Z</time>
      </trkpt>
      <trkpt lat="42.51809" lon="2.01716">
        <ele>1903.64</ele>
        <time>2022-11-05T14:55:41.911Z</time>
      </trkpt>
      <trkpt lat="42.51808" lon="2.01729">
        <ele>1902.64</ele>
        <time>2022-11-05T14:55:51.431Z</time>
      </trkpt>
      <trkpt lat="42.51805" lon="2.01741">
        <ele>1903.58</ele>
        <time>2022-11-05T14:56:02.000Z</time>
      </trkpt>
      <trkpt lat="42.51804" lon="2.0175">
        <ele>1901.65</ele>
        <time>2022-11-05T14:56:11.571Z</time>
      </trkpt>
      <trkpt lat="42.51801" lon="2.0176">
        <ele>1901.64</ele>
        <time>2022-11-05T14:56:20.771Z</time>
      </trkpt>
      <trkpt lat="42.518" lon="2.01765">
        <ele>1903.64</ele>
        <time>2022-11-05T14:56:29.791Z</time>
      </trkpt>
      <trkpt lat="42.51798" lon="2.01775">
        <ele>1902.66</ele>
        <time>2022-11-05T14:56:39.000Z</time>
      </trkpt>
      <trkpt lat="42.51793" lon="2.01788">
        <ele>1902.89</ele>
        <time>2022-11-05T14:56:48.771Z</time>
      </trkpt>
      <trkpt lat="42.51789" lon="2.01799">
        <ele>1902.64</ele>
        <time>2022-11-05T14:57:00.000Z</time>
      </trkpt>
      <trkpt lat="42.51788" lon="2.01811">
        <ele>1903.64</ele>
        <time>2022-11-05T14:57:09.451Z</time>
      </trkpt>
      <trkpt lat="42.51786" lon="2.01823">
        <ele>1903.64</ele>
        <time>2022-11-05T14:57:18.500Z</time>
      </trkpt>
      <trkpt lat="42.51783" lon="2.01834">
        <ele>1903.64</ele>
        <time>2022-11-05T14:57:27.831Z</time>
      </trkpt>
      <trkpt lat="42.5178" lon="2.01848">
        <ele>1903.71</ele>
        <time>2022-11-05T14:57:36.961Z</time>
      </trkpt>
      <trkpt lat="42.51777" lon="2.01859">
        <ele>1900.89</ele>
        <time>2022-11-05T14:57:46.000Z</time>
      </trkpt>
      <trkpt lat="42.51772" lon="2.01874">
        <ele>1900.64</ele>
        <time>2022-11-05T14:57:55.391Z</time>
      </trkpt>
      <trkpt lat="42.51766" lon="2.01885">
        <ele>1899.64</ele>
        <time>2022-11-05T14:58:04.501Z</time>
      </trkpt>
      <trkpt lat="42.51762" lon="2.01897">
        <ele>1900.44</ele>
        <time>2022-11-05T14:58:14.000Z</time>
      </trkpt>
      <trkpt lat="42.51759" lon="2.01912">
        <ele>1900.64</ele>
        <time>2022-11-05T14:58:23.491Z</time>
      </trkpt>
      <trkpt lat="42.51757" lon="2.01921">
        <ele>1901.63</ele>
        <time>2022-11-05T14:58:33.000Z</time>
      </trkpt>
      <trkpt lat="42.51756" lon="2.01932">
        <ele>1903.64</ele>
        <time>2022-11-05T14:58:43.000Z</time>
      </trkpt>
      <trkpt lat="42.51753" lon="2.01942">
        <ele>1905.63</ele>
        <time>2022-11-05T14:58:52.571Z</time>
      </trkpt>
      <trkpt lat="42.51751" lon="2.01951">
        <ele>1906.58</ele>
        <time>2022-11-05T14:59:02.000Z</time>
      </trkpt>
      <trkpt lat="42.51749" lon="2.0196">
        <ele>1908.58</ele>
        <time>2022-11-05T14:59:12.000Z</time>
      </trkpt>
      <trkpt lat="42.51749" lon="2.01966">
        <ele>1909.64</ele>
        <time>2022-11-05T14:59:22.000Z</time>
      </trkpt>
      <trkpt lat="42.51748" lon="2.01972">
        <ele>1911.4</ele>
        <time>2022-11-05T14:59:32.000Z</time>
      </trkpt>
      <trkpt lat="42.51746" lon="2.01981">
        <ele>1912.65</ele>
        <time>2022-11-05T14:59:42.000Z</time>
      </trkpt>
      <trkpt lat="42.51743" lon="2.01989">
        <ele>1914.64</ele>
        <time>2022-11-05T14:59:51.791Z</time>
      </trkpt>
      <trkpt lat="42.51739" lon="2.01995">
        <ele>1917.39</ele>
        <time>2022-11-05T15:00:01.000Z</time>
      </trkpt>
      <trkpt lat="42.51735" lon="2.02003">
        <ele>1917.64</ele>
        <time>2022-11-05T15:00:11.000Z</time>
      </trkpt>
      <trkpt lat="42.51731" lon="2.02013">
        <ele>1920.63</ele>
        <time>2022-11-05T15:00:20.511Z</time>
      </trkpt>
      <trkpt lat="42.51727" lon="2.02024">
        <ele>1922.58</ele>
        <time>2022-11-05T15:00:31.000Z</time>
      </trkpt>
      <trkpt lat="42.51724" lon="2.02032">
        <ele>1922.66</ele>
        <time>2022-11-05T15:00:41.000Z</time>
      </trkpt>
      <trkpt lat="42.51719" lon="2.02043">
        <ele>1925.65</ele>
        <time>2022-11-05T15:00:50.310Z</time>
      </trkpt>
      <trkpt lat="42.51715" lon="2.02053">
        <ele>1927.63</ele>
        <time>2022-11-05T15:01:00.000Z</time>
      </trkpt>
      <trkpt lat="42.5171" lon="2.02069">
        <ele>1927.65</ele>
        <time>2022-11-05T15:01:09.891Z</time>
      </trkpt>
      <trkpt lat="42.51708" lon="2.02081">
        <ele>1923.91</ele>
        <time>2022-11-05T15:01:19.000Z</time>
      </trkpt>
      <trkpt lat="42.51705" lon="2.02097">
        <ele>1922.66</ele>
        <time>2022-11-05T15:01:28.512Z</time>
      </trkpt>
      <trkpt lat="42.51702" lon="2.02108">
        <ele>1922.65</ele>
        <time>2022-11-05T15:01:38.000Z</time>
      </trkpt>
      <trkpt lat="42.51698" lon="2.02123">
        <ele>1921.65</ele>
        <time>2022-11-05T15:01:48.000Z</time>
      </trkpt>
      <trkpt lat="42.51695" lon="2.02137">
        <ele>1922.59</ele>
        <time>2022-11-05T15:01:57.291Z</time>
      </trkpt>
      <trkpt lat="42.51694" lon="2.02143">
        <ele>1923.65</ele>
        <time>2022-11-05T15:02:06.691Z</time>
      </trkpt>
      <trkpt lat="42.51692" lon="2.02152">
        <ele>1924.65</ele>
        <time>2022-11-05T15:02:17.000Z</time>
      </trkpt>
      <trkpt lat="42.51687" lon="2.02168">
        <ele>1924.65</ele>
        <time>2022-11-05T15:02:28.000Z</time>
      </trkpt>
      <trkpt lat="42.51686" lon="2.02185">
        <ele>1924.65</ele>
        <time>2022-11-05T15:02:37.954Z</time>
      </trkpt>
      <trkpt lat="42.51684" lon="2.02195">
        <ele>1924.65</ele>
        <time>2022-11-05T15:02:47.000Z</time>
      </trkpt>
      <trkpt lat="42.51683" lon="2.02209">
        <ele>1923.9</ele>
        <time>2022-11-05T15:02:56.650Z</time>
      </trkpt>
      <trkpt lat="42.51683" lon="2.02223">
        <ele>1923.65</ele>
        <time>2022-11-05T15:03:07.000Z</time>
      </trkpt>
      <trkpt lat="42.5168" lon="2.02237">
        <ele>1922.59</ele>
        <time>2022-11-05T15:03:16.711Z</time>
      </trkpt>
      <trkpt lat="42.51679" lon="2.0225">
        <ele>1923.66</ele>
        <time>2022-11-05T15:03:26.651Z</time>
      </trkpt>
      <trkpt lat="42.51677" lon="2.0226">
        <ele>1923.65</ele>
        <time>2022-11-05T15:03:37.000Z</time>
      </trkpt>
      <trkpt lat="42.51675" lon="2.0227">
        <ele>1924.65</ele>
        <time>2022-11-05T15:03:46.510Z</time>
      </trkpt>
      <trkpt lat="42.51673" lon="2.02283">
        <ele>1925.59</ele>
        <time>2022-11-05T15:03:55.801Z</time>
      </trkpt>
      <trkpt lat="42.51673" lon="2.02296">
        <ele>1926.65</ele>
        <time>2022-11-05T15:04:04.970Z</time>
      </trkpt>
      <trkpt lat="42.51671" lon="2.0231">
        <ele>1925.65</ele>
        <time>2022-11-05T15:04:16.000Z</time>
      </trkpt>
      <trkpt lat="42.51667" lon="2.02321">
        <ele>1926.4</ele>
        <time>2022-11-05T15:04:25.651Z</time>
      </trkpt>
      <trkpt lat="42.51665" lon="2.02327">
        <ele>1930.59</ele>
        <time>2022-11-05T15:04:36.000Z</time>
      </trkpt>
      <trkpt lat="42.51659" lon="2.02339">
        <ele>1929.65</ele>
        <time>2022-11-05T15:04:45.851Z</time>
      </trkpt>
      <trkpt lat="42.51655" lon="2.02349">
        <ele>1928.65</ele>
        <time>2022-11-05T15:04:55.000Z</time>
      </trkpt>
      <trkpt lat="42.51652" lon="2.02362">
        <ele>1930.65</ele>
        <time>2022-11-05T15:05:04.471Z</time>
      </trkpt>
      <trkpt lat="42.51651" lon="2.02371">
        <ele>1931.71</ele>
        <time>2022-11-05T15:05:15.000Z</time>
      </trkpt>
      <trkpt lat="42.51648" lon="2.02382">
        <ele>1934.65</ele>
        <time>2022-11-05T15:05:24.382Z</time>
      </trkpt>
      <trkpt lat="42.51646" lon="2.02394">
        <ele>1935.65</ele>
        <time>2022-11-05T15:05:34.000Z</time>
      </trkpt>
      <trkpt lat="42.51644" lon="2.02406">
        <ele>1938.39</ele>
        <time>2022-11-05T15:05:44.000Z</time>
      </trkpt>
      <trkpt lat="42.51641" lon="2.02417">
        <ele>1939.65</ele>
        <time>2022-11-05T15:05:54.000Z</time>
      </trkpt>
      <trkpt lat="42.51637" lon="2.02432">
        <ele>1940.59</ele>
        <time>2022-11-05T15:06:03.840Z</time>
      </trkpt>
      <trkpt lat="42.51632" lon="2.02445">
        <ele>1939.65</ele>
        <time>2022-11-05T15:06:13.000Z</time>
      </trkpt>
      <trkpt lat="42.51629" lon="2.02455">
        <ele>1944.34</ele>
        <time>2022-11-05T15:06:23.000Z</time>
      </trkpt>
      <trkpt lat="42.51631" lon="2.02474">
        <ele>1942.72</ele>
        <time>2022-11-05T15:06:32.761Z</time>
      </trkpt>
      <trkpt lat="42.5163" lon="2.0249">
        <ele>1939.66</ele>
        <time>2022-11-05T15:06:41.891Z</time>
      </trkpt>
      <trkpt lat="42.51628" lon="2.02501">
        <ele>1937.67</ele>
        <time>2022-11-05T15:06:51.000Z</time>
      </trkpt>
      <trkpt lat="42.51625" lon="2.02514">
        <ele>1935.65</ele>
        <time>2022-11-05T15:07:01.000Z</time>
      </trkpt>
      <trkpt lat="42.51621" lon="2.02522">
        <ele>1938.65</ele>
        <time>2022-11-05T15:07:10.650Z</time>
      </trkpt>
      <trkpt lat="42.51617" lon="2.02532">
        <ele>1940.65</ele>
        <time>2022-11-05T15:07:21.000Z</time>
      </trkpt>
      <trkpt lat="42.51611" lon="2.02545">
        <ele>1940.66</ele>
        <time>2022-11-05T15:07:30.911Z</time>
      </trkpt>
      <trkpt lat="42.51608" lon="2.02553">
        <ele>1941.65</ele>
        <time>2022-11-05T15:07:40.000Z</time>
      </trkpt>
      <trkpt lat="42.51603" lon="2.02563">
        <ele>1943.65</ele>
        <time>2022-11-05T15:07:50.000Z</time>
      </trkpt>
      <trkpt lat="42.51598" lon="2.02576">
        <ele>1943.65</ele>
        <time>2022-11-05T15:07:59.591Z</time>
      </trkpt>
      <trkpt lat="42.51591" lon="2.02586">
        <ele>1942.72</ele>
        <time>2022-11-05T15:08:09.000Z</time>
      </trkpt>
      <trkpt lat="42.51585" lon="2.026">
        <ele>1940.67</ele>
        <time>2022-11-05T15:08:18.331Z</time>
      </trkpt>
      <trkpt lat="42.51579" lon="2.02611">
        <ele>1939.9</ele>
        <time>2022-11-05T15:08:27.672Z</time>
      </trkpt>
      <trkpt lat="42.51577" lon="2.02623">
        <ele>1938.66</ele>
        <time>2022-11-05T15:08:37.000Z</time>
      </trkpt>
      <trkpt lat="42.51573" lon="2.02631">
        <ele>1935.91</ele>
        <time>2022-11-05T15:08:46.212Z</time>
      </trkpt>
      <trkpt lat="42.51568" lon="2.02637">
        <ele>1937.65</ele>
        <time>2022-11-05T15:08:55.232Z</time>
      </trkpt>
      <trkpt lat="42.51566" lon="2.0264">
        <ele>1936.66</ele>
        <time>2022-11-05T15:09:05.000Z</time>
      </trkpt>
      <trkpt lat="42.51565" lon="2.02641">
        <ele>1931.85</ele>
        <time>2022-11-05T15:09:15.000Z</time>
      </trkpt>
      <trkpt lat="42.51561" lon="2.02642">
        <ele>1931.66</ele>
        <time>2022-11-05T15:09:25.000Z</time>
      </trkpt>
      <trkpt lat="42.5156" lon="2.02642">
        <ele>1930.66</ele>
        <time>2022-11-05T15:09:35.000Z</time>
      </trkpt>
      <trkpt lat="42.51559" lon="2.0264">
        <ele>1927.91</ele>
        <time>2022-11-05T15:12:20.442Z</time>
      </trkpt>
      <trkpt lat="42.51565" lon="2.02643">
        <ele>1929.66</ele>
        <time>2022-11-05T15:12:30.000Z</time>
      </trkpt>
      <trkpt lat="42.51572" lon="2.02652">
        <ele>1930.64</ele>
        <time>2022-11-05T15:12:39.010Z</time>
      </trkpt>
      <trkpt lat="42.51577" lon="2.02664">
        <ele>1930.91</ele>
        <time>2022-11-05T15:12:48.591Z</time>
      </trkpt>
      <trkpt lat="42.51583" lon="2.02673">
        <ele>1930.66</ele>
        <time>2022-11-05T15:12:58.331Z</time>
      </trkpt>
      <trkpt lat="42.5159" lon="2.02681">
        <ele>1930.66</ele>
        <time>2022-11-05T15:13:07.452Z</time>
      </trkpt>
      <trkpt lat="42.51593" lon="2.02691">
        <ele>1930.66</ele>
        <time>2022-11-05T15:13:16.581Z</time>
      </trkpt>
      <trkpt lat="42.51594" lon="2.02703">
        <ele>1930.66</ele>
        <time>2022-11-05T15:13:25.851Z</time>
      </trkpt>
      <trkpt lat="42.51596" lon="2.02714">
        <ele>1930.66</ele>
        <time>2022-11-05T15:13:36.000Z</time>
      </trkpt>
      <trkpt lat="42.51592" lon="2.02724">
        <ele>1931.66</ele>
        <time>2022-11-05T15:13:46.000Z</time>
      </trkpt>
      <trkpt lat="42.5159" lon="2.02738">
        <ele>1930.64</ele>
        <time>2022-11-05T15:13:55.271Z</time>
      </trkpt>
      <trkpt lat="42.51586" lon="2.02752">
        <ele>1930.66</ele>
        <time>2022-11-05T15:14:04.943Z</time>
      </trkpt>
      <trkpt lat="42.51581" lon="2.02766">
        <ele>1928.66</ele>
        <time>2022-11-05T15:14:14.611Z</time>
      </trkpt>
      <trkpt lat="42.51578" lon="2.0278">
        <ele>1928.6</ele>
        <time>2022-11-05T15:14:23.811Z</time>
      </trkpt>
      <trkpt lat="42.51577" lon="2.02786">
        <ele>1928.41</ele>
        <time>2022-11-05T15:14:34.000Z</time>
      </trkpt>
      <trkpt lat="42.51578" lon="2.02796">
        <ele>1929.66</ele>
        <time>2022-11-05T15:14:43.601Z</time>
      </trkpt>
      <trkpt lat="42.51574" lon="2.02809">
        <ele>1926.91</ele>
        <time>2022-11-05T15:14:52.690Z</time>
      </trkpt>
      <trkpt lat="42.51571" lon="2.02818">
        <ele>1925.66</ele>
        <time>2022-11-05T15:15:02.000Z</time>
      </trkpt>
      <trkpt lat="42.51561" lon="2.02834">
        <ele>1925.66</ele>
        <time>2022-11-05T15:15:11.710Z</time>
      </trkpt>
      <trkpt lat="42.51557" lon="2.02846">
        <ele>1923.67</ele>
        <time>2022-11-05T15:15:20.911Z</time>
      </trkpt>
      <trkpt lat="42.51555" lon="2.02854">
        <ele>1921.78</ele>
        <time>2022-11-05T15:15:29.931Z</time>
      </trkpt>
      <trkpt lat="42.51551" lon="2.02866">
        <ele>1919.66</ele>
        <time>2022-11-05T15:15:39.452Z</time>
      </trkpt>
      <trkpt lat="42.51543" lon="2.02883">
        <ele>1920.66</ele>
        <time>2022-11-05T15:15:48.931Z</time>
      </trkpt>
      <trkpt lat="42.51539" lon="2.02899">
        <ele>1916.66</ele>
        <time>2022-11-05T15:15:58.371Z</time>
      </trkpt>
      <trkpt lat="42.51537" lon="2.02912">
        <ele>1914.68</ele>
        <time>2022-11-05T15:16:07.991Z</time>
      </trkpt>
      <trkpt lat="42.51534" lon="2.02925">
        <ele>1913.64</ele>
        <time>2022-11-05T15:16:17.551Z</time>
      </trkpt>
      <trkpt lat="42.51531" lon="2.02937">
        <ele>1911.72</ele>
        <time>2022-11-05T15:16:26.813Z</time>
      </trkpt>
      <trkpt lat="42.51529" lon="2.02946">
        <ele>1910.66</ele>
        <time>2022-11-05T15:16:35.851Z</time>
      </trkpt>
      <trkpt lat="42.51528" lon="2.02958">
        <ele>1911.85</ele>
        <time>2022-11-05T15:16:46.000Z</time>
      </trkpt>
      <trkpt lat="42.51529" lon="2.02968">
        <ele>1912.66</ele>
        <time>2022-11-05T15:16:55.611Z</time>
      </trkpt>
      <trkpt lat="42.51526" lon="2.02984">
        <ele>1907.68</ele>
        <time>2022-11-05T15:17:04.891Z</time>
      </trkpt>
      <trkpt lat="42.51522" lon="2.02997">
        <ele>1904.72</ele>
        <time>2022-11-05T15:17:15.000Z</time>
      </trkpt>
      <trkpt lat="42.51517" lon="2.03005">
        <ele>1902.68</ele>
        <time>2022-11-05T15:17:24.352Z</time>
      </trkpt>
      <trkpt lat="42.51515" lon="2.0301">
        <ele>1900.67</ele>
        <time>2022-11-05T15:17:33.451Z</time>
      </trkpt>
      <trkpt lat="42.51511" lon="2.03017">
        <ele>1901.6</ele>
        <time>2022-11-05T15:17:42.791Z</time>
      </trkpt>
      <trkpt lat="42.515" lon="2.03028">
        <ele>1897.66</ele>
        <time>2022-11-05T15:17:51.891Z</time>
      </trkpt>
      <trkpt lat="42.51491" lon="2.03037">
        <ele>1896.66</ele>
        <time>2022-11-05T15:18:02.000Z</time>
      </trkpt>
      <trkpt lat="42.51484" lon="2.03046">
        <ele>1893.91</ele>
        <time>2022-11-05T15:18:12.000Z</time>
      </trkpt>
      <trkpt lat="42.51479" lon="2.03052">
        <ele>1891.66</ele>
        <time>2022-11-05T15:18:21.391Z</time>
      </trkpt>
      <trkpt lat="42.51475" lon="2.03059">
        <ele>1891.66</ele>
        <time>2022-11-05T15:18:31.000Z</time>
      </trkpt>
      <trkpt lat="42.5147" lon="2.03075">
        <ele>1892.68</ele>
        <time>2022-11-05T15:18:40.531Z</time>
      </trkpt>
      <trkpt lat="42.51466" lon="2.03089">
        <ele>1888.67</ele>
        <time>2022-11-05T15:18:49.790Z</time>
      </trkpt>
      <trkpt lat="42.51463" lon="2.03097">
        <ele>1887.73</ele>
        <time>2022-11-05T15:19:00.000Z</time>
      </trkpt>
      <trkpt lat="42.51458" lon="2.0311">
        <ele>1886.91</ele>
        <time>2022-11-05T15:19:09.433Z</time>
      </trkpt>
      <trkpt lat="42.51458" lon="2.03126">
        <ele>1889.66</ele>
        <time>2022-11-05T15:19:18.832Z</time>
      </trkpt>
      <trkpt lat="42.5146" lon="2.03136">
        <ele>1890.66</ele>
        <time>2022-11-05T15:19:27.851Z</time>
      </trkpt>
      <trkpt lat="42.51463" lon="2.03145">
        <ele>1888.66</ele>
        <time>2022-11-05T15:19:38.000Z</time>
      </trkpt>
      <trkpt lat="42.51469" lon="2.03151">
        <ele>1885.66</ele>
        <time>2022-11-05T15:19:47.561Z</time>
      </trkpt>
      <trkpt lat="42.51475" lon="2.03156">
        <ele>1884.61</ele>
        <time>2022-11-05T15:19:57.000Z</time>
      </trkpt>
      <trkpt lat="42.51482" lon="2.0316">
        <ele>1881.67</ele>
        <time>2022-11-05T15:20:06.391Z</time>
      </trkpt>
      <trkpt lat="42.51486" lon="2.03164">
        <ele>1880.67</ele>
        <time>2022-11-05T15:20:15.911Z</time>
      </trkpt>
      <trkpt lat="42.51484" lon="2.03175">
        <ele>1880.73</ele>
        <time>2022-11-05T15:20:24.961Z</time>
      </trkpt>
      <trkpt lat="42.51483" lon="2.03181">
        <ele>1880.66</ele>
        <time>2022-11-05T15:20:34.722Z</time>
      </trkpt>
      <trkpt lat="42.51479" lon="2.03187">
        <ele>1880.66</ele>
        <time>2022-11-05T15:20:44.001Z</time>
      </trkpt>
      <trkpt lat="42.51469" lon="2.03195">
        <ele>1876.67</ele>
        <time>2022-11-05T15:20:53.572Z</time>
      </trkpt>
      <trkpt lat="42.51462" lon="2.03201">
        <ele>1878.66</ele>
        <time>2022-11-05T15:21:02.871Z</time>
      </trkpt>
      <trkpt lat="42.51452" lon="2.03207">
        <ele>1877.42</ele>
        <time>2022-11-05T15:21:13.000Z</time>
      </trkpt>
      <trkpt lat="42.51442" lon="2.03217">
        <ele>1879.41</ele>
        <time>2022-11-05T15:21:22.451Z</time>
      </trkpt>
      <trkpt lat="42.51436" lon="2.03223">
        <ele>1876.73</ele>
        <time>2022-11-05T15:21:31.981Z</time>
      </trkpt>
      <trkpt lat="42.51429" lon="2.03226">
        <ele>1876.91</ele>
        <time>2022-11-05T15:21:42.000Z</time>
      </trkpt>
      <trkpt lat="42.51415" lon="2.03229">
        <ele>1875.66</ele>
        <time>2022-11-05T15:21:51.850Z</time>
      </trkpt>
      <trkpt lat="42.51404" lon="2.03229">
        <ele>1872.67</ele>
        <time>2022-11-05T15:22:00.890Z</time>
      </trkpt>
      <trkpt lat="42.51397" lon="2.03231">
        <ele>1869.92</ele>
        <time>2022-11-05T15:22:11.000Z</time>
      </trkpt>
      <trkpt lat="42.51389" lon="2.03232">
        <ele>1866.66</ele>
        <time>2022-11-05T15:22:20.651Z</time>
      </trkpt>
      <trkpt lat="42.51384" lon="2.03235">
        <ele>1865.66</ele>
        <time>2022-11-05T15:22:29.751Z</time>
      </trkpt>
      <trkpt lat="42.51379" lon="2.03241">
        <ele>1863.91</ele>
        <time>2022-11-05T15:22:40.000Z</time>
      </trkpt>
      <trkpt lat="42.51376" lon="2.03248">
        <ele>1862.91</ele>
        <time>2022-11-05T15:22:49.292Z</time>
      </trkpt>
      <trkpt lat="42.51372" lon="2.03254">
        <ele>1862.66</ele>
        <time>2022-11-05T15:22:59.000Z</time>
      </trkpt>
      <trkpt lat="42.51369" lon="2.03262">
        <ele>1864.66</ele>
        <time>2022-11-05T15:23:08.791Z</time>
      </trkpt>
      <trkpt lat="42.5137" lon="2.03266">
        <ele>1863.66</ele>
        <time>2022-11-05T15:23:18.611Z</time>
      </trkpt>
      <trkpt lat="42.51373" lon="2.0327">
        <ele>1864.66</ele>
        <time>2022-11-05T15:23:27.971Z</time>
      </trkpt>
      <trkpt lat="42.5138" lon="2.03277">
        <ele>1863.66</ele>
        <time>2022-11-05T15:23:37.000Z</time>
      </trkpt>
      <trkpt lat="42.51383" lon="2.03279">
        <ele>1862.66</ele>
        <time>2022-11-05T15:23:46.433Z</time>
      </trkpt>
      <trkpt lat="42.51391" lon="2.03286">
        <ele>1857.99</ele>
        <time>2022-11-05T15:23:56.000Z</time>
      </trkpt>
      <trkpt lat="42.51398" lon="2.03289">
        <ele>1856.42</ele>
        <time>2022-11-05T15:24:05.191Z</time>
      </trkpt>
      <trkpt lat="42.51405" lon="2.03293">
        <ele>1856.67</ele>
        <time>2022-11-05T15:24:14.351Z</time>
      </trkpt>
      <trkpt lat="42.51415" lon="2.03299">
        <ele>1857.65</ele>
        <time>2022-11-05T15:24:23.862Z</time>
      </trkpt>
      <trkpt lat="42.51426" lon="2.03309">
        <ele>1854.67</ele>
        <time>2022-11-05T15:24:32.931Z</time>
      </trkpt>
      <trkpt lat="42.51435" lon="2.03315">
        <ele>1855.67</ele>
        <time>2022-11-05T15:24:41.981Z</time>
      </trkpt>
      <trkpt lat="42.51442" lon="2.03321">
        <ele>1855.66</ele>
        <time>2022-11-05T15:24:52.000Z</time>
      </trkpt>
      <trkpt lat="42.51448" lon="2.03329">
        <ele>1855.67</ele>
        <time>2022-11-05T15:25:01.326Z</time>
      </trkpt>
      <trkpt lat="42.51453" lon="2.03341">
        <ele>1856.67</ele>
        <time>2022-11-05T15:25:10.451Z</time>
      </trkpt>
      <trkpt lat="42.51456" lon="2.03353">
        <ele>1858.41</ele>
        <time>2022-11-05T15:25:21.000Z</time>
      </trkpt>
      <trkpt lat="42.51456" lon="2.03369">
        <ele>1857.67</ele>
        <time>2022-11-05T15:25:30.990Z</time>
      </trkpt>
      <trkpt lat="42.51459" lon="2.03382">
        <ele>1859.67</ele>
        <time>2022-11-05T15:25:41.000Z</time>
      </trkpt>
      <trkpt lat="42.51465" lon="2.034">
        <ele>1857.42</ele>
        <time>2022-11-05T15:25:50.351Z</time>
      </trkpt>
      <trkpt lat="42.51465" lon="2.03412">
        <ele>1858.67</ele>
        <time>2022-11-05T15:25:59.450Z</time>
      </trkpt>
      <trkpt lat="42.51465" lon="2.03426">
        <ele>1858.67</ele>
        <time>2022-11-05T15:26:08.593Z</time>
      </trkpt>
      <trkpt lat="42.51466" lon="2.03435">
        <ele>1855.67</ele>
        <time>2022-11-05T15:26:18.000Z</time>
      </trkpt>
      <trkpt lat="42.51469" lon="2.03451">
        <ele>1854.69</ele>
        <time>2022-11-05T15:26:27.311Z</time>
      </trkpt>
      <trkpt lat="42.51466" lon="2.03461">
        <ele>1854.67</ele>
        <time>2022-11-05T15:26:36.790Z</time>
      </trkpt>
      <trkpt lat="42.51469" lon="2.03473">
        <ele>1856.42</ele>
        <time>2022-11-05T15:26:46.000Z</time>
      </trkpt>
      <trkpt lat="42.51473" lon="2.03489">
        <ele>1857.67</ele>
        <time>2022-11-05T15:26:55.291Z</time>
      </trkpt>
      <trkpt lat="42.51475" lon="2.03501">
        <ele>1856.67</ele>
        <time>2022-11-05T15:27:04.770Z</time>
      </trkpt>
      <trkpt lat="42.51477" lon="2.03515">
        <ele>1858.67</ele>
        <time>2022-11-05T15:27:15.000Z</time>
      </trkpt>
      <trkpt lat="42.51481" lon="2.03531">
        <ele>1858.42</ele>
        <time>2022-11-05T15:27:24.831Z</time>
      </trkpt>
      <trkpt lat="42.51483" lon="2.03545">
        <ele>1856.67</ele>
        <time>2022-11-05T15:27:33.990Z</time>
      </trkpt>
      <trkpt lat="42.51484" lon="2.03556">
        <ele>1855.67</ele>
        <time>2022-11-05T15:27:43.000Z</time>
      </trkpt>
      <trkpt lat="42.51485" lon="2.03556">
        <ele>1855.67</ele>
        <time>2022-11-05T15:27:53.000Z</time>
      </trkpt>
      <trkpt lat="42.51487" lon="2.03565">
        <ele>1856.67</ele>
        <time>2022-11-05T15:28:03.000Z</time>
      </trkpt>
      <trkpt lat="42.51487" lon="2.03576">
        <ele>1857.73</ele>
        <time>2022-11-05T15:28:13.000Z</time>
      </trkpt>
      <trkpt lat="42.51486" lon="2.03581">
        <ele>1856.69</ele>
        <time>2022-11-05T15:28:23.000Z</time>
      </trkpt>
      <trkpt lat="42.51487" lon="2.03586">
        <ele>1856.61</ele>
        <time>2022-11-05T15:28:32.291Z</time>
      </trkpt>
      <trkpt lat="42.5149" lon="2.03592">
        <ele>1856.41</ele>
        <time>2022-11-05T15:28:42.000Z</time>
      </trkpt>
      <trkpt lat="42.51489" lon="2.03598">
        <ele>1856.43</ele>
        <time>2022-11-05T15:28:51.451Z</time>
      </trkpt>
      <trkpt lat="42.51491" lon="2.03605">
        <ele>1856.67</ele>
        <time>2022-11-05T15:29:01.000Z</time>
      </trkpt>
      <trkpt lat="42.51491" lon="2.03612">
        <ele>1854.92</ele>
        <time>2022-11-05T15:29:11.000Z</time>
      </trkpt>
      <trkpt lat="42.5149" lon="2.03621">
        <ele>1855.42</ele>
        <time>2022-11-05T15:29:21.000Z</time>
      </trkpt>
      <trkpt lat="42.51489" lon="2.03637">
        <ele>1855.67</ele>
        <time>2022-11-05T15:29:31.000Z</time>
      </trkpt>
      <trkpt lat="42.51488" lon="2.03651">
        <ele>1856.67</ele>
        <time>2022-11-05T15:29:41.000Z</time>
      </trkpt>
      <trkpt lat="42.51486" lon="2.03667">
        <ele>1857.66</ele>
        <time>2022-11-05T15:29:50.531Z</time>
      </trkpt>
      <trkpt lat="42.51485" lon="2.0368">
        <ele>1859.67</ele>
        <time>2022-11-05T15:30:00.022Z</time>
      </trkpt>
      <trkpt lat="42.51484" lon="2.03693">
        <ele>1857.93</ele>
        <time>2022-11-05T15:30:09.392Z</time>
      </trkpt>
      <trkpt lat="42.51484" lon="2.03709">
        <ele>1857.68</ele>
        <time>2022-11-05T15:30:19.000Z</time>
      </trkpt>
      <trkpt lat="42.5148" lon="2.03725">
        <ele>1858.68</ele>
        <time>2022-11-05T15:30:29.000Z</time>
      </trkpt>
      <trkpt lat="42.51481" lon="2.0374">
        <ele>1859.43</ele>
        <time>2022-11-05T15:30:39.000Z</time>
      </trkpt>
      <trkpt lat="42.51482" lon="2.03758">
        <ele>1858.68</ele>
        <time>2022-11-05T15:30:48.824Z</time>
      </trkpt>
      <trkpt lat="42.51484" lon="2.03769">
        <ele>1859.68</ele>
        <time>2022-11-05T15:30:58.000Z</time>
      </trkpt>
      <trkpt lat="42.51486" lon="2.03785">
        <ele>1859.68</ele>
        <time>2022-11-05T15:31:07.141Z</time>
      </trkpt>
      <trkpt lat="42.51489" lon="2.03798">
        <ele>1860.67</ele>
        <time>2022-11-05T15:31:17.000Z</time>
      </trkpt>
      <trkpt lat="42.51491" lon="2.03815">
        <ele>1859.68</ele>
        <time>2022-11-05T15:31:26.731Z</time>
      </trkpt>
      <trkpt lat="42.51492" lon="2.03829">
        <ele>1859.68</ele>
        <time>2022-11-05T15:31:35.871Z</time>
      </trkpt>
      <trkpt lat="42.5149" lon="2.03841">
        <ele>1860.68</ele>
        <time>2022-11-05T15:31:44.881Z</time>
      </trkpt>
      <trkpt lat="42.51493" lon="2.03853">
        <ele>1861.43</ele>
        <time>2022-11-05T15:31:54.000Z</time>
      </trkpt>
      <trkpt lat="42.51498" lon="2.03866">
        <ele>1862.69</ele>
        <time>2022-11-05T15:32:03.291Z</time>
      </trkpt>
      <trkpt lat="42.51501" lon="2.03881">
        <ele>1860.74</ele>
        <time>2022-11-05T15:32:12.601Z</time>
      </trkpt>
      <trkpt lat="42.51501" lon="2.03895">
        <ele>1860.49</ele>
        <time>2022-11-05T15:32:23.000Z</time>
      </trkpt>
      <trkpt lat="42.51507" lon="2.03906">
        <ele>1861.43</ele>
        <time>2022-11-05T15:32:32.411Z</time>
      </trkpt>
      <trkpt lat="42.51515" lon="2.03909">
        <ele>1862.74</ele>
        <time>2022-11-05T15:32:43.000Z</time>
      </trkpt>
      <trkpt lat="42.5153" lon="2.03913">
        <ele>1862.67</ele>
        <time>2022-11-05T15:32:52.771Z</time>
      </trkpt>
      <trkpt lat="42.51538" lon="2.0392">
        <ele>1862.43</ele>
        <time>2022-11-05T15:33:02.000Z</time>
      </trkpt>
      <trkpt lat="42.51545" lon="2.0393">
        <ele>1863.68</ele>
        <time>2022-11-05T15:33:11.731Z</time>
      </trkpt>
      <trkpt lat="42.51549" lon="2.03945">
        <ele>1862.68</ele>
        <time>2022-11-05T15:33:22.000Z</time>
      </trkpt>
      <trkpt lat="42.51553" lon="2.03962">
        <ele>1861.45</ele>
        <time>2022-11-05T15:33:32.000Z</time>
      </trkpt>
      <trkpt lat="42.51555" lon="2.03977">
        <ele>1859.93</ele>
        <time>2022-11-05T15:33:42.000Z</time>
      </trkpt>
      <trkpt lat="42.51558" lon="2.03993">
        <ele>1858.68</ele>
        <time>2022-11-05T15:33:51.771Z</time>
      </trkpt>
      <trkpt lat="42.51558" lon="2.03997">
        <ele>1859.68</ele>
        <time>2022-11-05T15:34:01.000Z</time>
      </trkpt>
      <trkpt lat="42.51563" lon="2.03998">
        <ele>1857.87</ele>
        <time>2022-11-05T15:34:11.000Z</time>
      </trkpt>
      <trkpt lat="42.51565" lon="2.04002">
        <ele>1857.68</ele>
        <time>2022-11-05T15:34:21.000Z</time>
      </trkpt>
      <trkpt lat="42.5157" lon="2.04017">
        <ele>1859.68</ele>
        <time>2022-11-05T15:34:30.391Z</time>
      </trkpt>
      <trkpt lat="42.51579" lon="2.04027">
        <ele>1859.68</ele>
        <time>2022-11-05T15:34:40.000Z</time>
      </trkpt>
      <trkpt lat="42.51588" lon="2.04038">
        <ele>1860.43</ele>
        <time>2022-11-05T15:34:49.451Z</time>
      </trkpt>
      <trkpt lat="42.51596" lon="2.04048">
        <ele>1862.67</ele>
        <time>2022-11-05T15:34:58.672Z</time>
      </trkpt>
      <trkpt lat="42.51603" lon="2.04057">
        <ele>1865.67</ele>
        <time>2022-11-05T15:35:08.030Z</time>
      </trkpt>
      <trkpt lat="42.51611" lon="2.04066">
        <ele>1865.69</ele>
        <time>2022-11-05T15:35:17.391Z</time>
      </trkpt>
      <trkpt lat="42.51617" lon="2.04076">
        <ele>1864.69</ele>
        <time>2022-11-05T15:35:26.953Z</time>
      </trkpt>
      <trkpt lat="42.51616" lon="2.04087">
        <ele>1864.7</ele>
        <time>2022-11-05T15:35:36.772Z</time>
      </trkpt>
      <trkpt lat="42.51622" lon="2.04104">
        <ele>1860.94</ele>
        <time>2022-11-05T15:35:46.854Z</time>
      </trkpt>
      <trkpt lat="42.51626" lon="2.04122">
        <ele>1856.94</ele>
        <time>2022-11-05T15:35:56.711Z</time>
      </trkpt>
      <trkpt lat="42.51625" lon="2.04131">
        <ele>1855.5</ele>
        <time>2022-11-05T15:36:06.000Z</time>
      </trkpt>
      <trkpt lat="42.51626" lon="2.04129">
        <ele>1854.69</ele>
        <time>2022-11-05T15:36:16.000Z</time>
      </trkpt>
      <trkpt lat="42.51625" lon="2.04129">
        <ele>1854.69</ele>
        <time>2022-11-05T15:36:57.000Z</time>
      </trkpt>
      <trkpt lat="42.51625" lon="2.04131">
        <ele>1855.69</ele>
        <time>2022-11-05T15:37:07.000Z</time>
      </trkpt>
      <trkpt lat="42.51625" lon="2.04131">
        <ele>1855.69</ele>
        <time>2022-11-05T15:37:22.000Z</time>
      </trkpt>
    </trkseg>
  </trk>
</gpx>